<?xml version="1.0" encoding="UTF-8" standalone="no" ?>
<gpx xmlns="http://www.topografix.com/GPX/1/1" xmlns:xsi="http://www.w3.org/2001/XMLSchema-instance" xsi:schemaLocation="http://www.topografix.com/GPX/1/1 http://www.topografix.com/GPX/1/1/gpx.xsd" version="1.1" creator="VisuGPX - https://www.visugpx.com">
  <metadata>
    <name>MAXI FREP J1/2/64/1213</name>
  </metadata>
  <trk>
    <name><![CDATA[12833496-maxi frep projet 1-2]]></name>
    <extensions>
      <line xmlns="http://www.topografix.com/GPX/gpx_style/0/2">
        <color>0000FF</color>
        <width>4</width>
      </line>
    </extensions>
    <trkseg>
      <trkpt lat="44.47673" lon="1.54287">
        <ele>237</ele>
        <time>2021-04-09T12:34:00Z</time>
      </trkpt>
      <trkpt lat="44.47676" lon="1.5429">
        <ele>237</ele>
        <time>2021-04-09T12:34:01Z</time>
      </trkpt>
      <trkpt lat="44.47688" lon="1.54281">
        <ele>237</ele>
        <time>2021-04-09T12:34:04Z</time>
      </trkpt>
      <trkpt lat="44.47698" lon="1.54277">
        <ele>237</ele>
        <time>2021-04-09T12:34:06Z</time>
      </trkpt>
      <trkpt lat="44.4771" lon="1.54278">
        <ele>236</ele>
        <time>2021-04-09T12:34:09Z</time>
      </trkpt>
      <trkpt lat="44.47729" lon="1.54318">
        <ele>233</ele>
        <time>2021-04-09T12:34:17Z</time>
      </trkpt>
      <trkpt lat="44.47736" lon="1.54323">
        <ele>232</ele>
        <time>2021-04-09T12:34:19Z</time>
      </trkpt>
      <trkpt lat="44.4774" lon="1.54319">
        <ele>232</ele>
        <time>2021-04-09T12:34:20Z</time>
      </trkpt>
      <trkpt lat="44.47742" lon="1.54309">
        <ele>233</ele>
        <time>2021-04-09T12:34:22Z</time>
      </trkpt>
      <trkpt lat="44.47747" lon="1.54301">
        <ele>233</ele>
        <time>2021-04-09T12:34:24Z</time>
      </trkpt>
      <trkpt lat="44.47753" lon="1.543">
        <ele>233</ele>
        <time>2021-04-09T12:34:25Z</time>
      </trkpt>
      <trkpt lat="44.4777" lon="1.54288">
        <ele>233</ele>
        <time>2021-04-09T12:34:30Z</time>
      </trkpt>
      <trkpt lat="44.47802" lon="1.54262">
        <ele>233</ele>
        <time>2021-04-09T12:34:38Z</time>
      </trkpt>
      <trkpt lat="44.47819" lon="1.54228">
        <ele>235</ele>
        <time>2021-04-09T12:34:45Z</time>
      </trkpt>
      <trkpt lat="44.47825" lon="1.54223">
        <ele>236</ele>
        <time>2021-04-09T12:34:47Z</time>
      </trkpt>
      <trkpt lat="44.47833" lon="1.5422">
        <ele>236</ele>
        <time>2021-04-09T12:34:49Z</time>
      </trkpt>
      <trkpt lat="44.47858" lon="1.54242">
        <ele>235</ele>
        <time>2021-04-09T12:34:56Z</time>
      </trkpt>
      <trkpt lat="44.47867" lon="1.54234">
        <ele>236</ele>
        <time>2021-04-09T12:34:58Z</time>
      </trkpt>
      <trkpt lat="44.47871" lon="1.54219">
        <ele>238</ele>
        <time>2021-04-09T12:35:01Z</time>
      </trkpt>
      <trkpt lat="44.47873" lon="1.54177">
        <ele>242</ele>
        <time>2021-04-09T12:35:08Z</time>
      </trkpt>
      <trkpt lat="44.4787" lon="1.54153">
        <ele>245</ele>
        <time>2021-04-09T12:35:12Z</time>
      </trkpt>
      <trkpt lat="44.47872" lon="1.5414">
        <ele>247</ele>
        <time>2021-04-09T12:35:14Z</time>
      </trkpt>
      <trkpt lat="44.47898" lon="1.54141">
        <ele>248</ele>
        <time>2021-04-09T12:35:20Z</time>
      </trkpt>
      <trkpt lat="44.47936" lon="1.5415">
        <ele>249</ele>
        <time>2021-04-09T12:35:29Z</time>
      </trkpt>
      <trkpt lat="44.47966" lon="1.54153">
        <ele>251</ele>
        <time>2021-04-09T12:35:36Z</time>
      </trkpt>
      <trkpt lat="44.47971" lon="1.54151">
        <ele>252</ele>
        <time>2021-04-09T12:35:37Z</time>
      </trkpt>
      <trkpt lat="44.47989" lon="1.54078">
        <ele>261</ele>
        <time>2021-04-09T12:35:50Z</time>
      </trkpt>
      <trkpt lat="44.47991" lon="1.54042">
        <ele>263</ele>
        <time>2021-04-09T12:35:56Z</time>
      </trkpt>
      <trkpt lat="44.47998" lon="1.54008">
        <ele>265</ele>
        <time>2021-04-09T12:36:02Z</time>
      </trkpt>
      <trkpt lat="44.47993" lon="1.5398">
        <ele>266</ele>
        <time>2021-04-09T12:36:07Z</time>
      </trkpt>
      <trkpt lat="44.47996" lon="1.53978">
        <ele>266</ele>
        <time>2021-04-09T12:36:08Z</time>
      </trkpt>
      <trkpt lat="44.48028" lon="1.53983">
        <ele>267</ele>
        <time>2021-04-09T12:36:15Z</time>
      </trkpt>
      <trkpt lat="44.48086" lon="1.53996">
        <ele>268</ele>
        <time>2021-04-09T12:36:29Z</time>
      </trkpt>
      <trkpt lat="44.4809" lon="1.53995">
        <ele>268</ele>
        <time>2021-04-09T12:36:30Z</time>
      </trkpt>
      <trkpt lat="44.48094" lon="1.53989">
        <ele>268</ele>
        <time>2021-04-09T12:36:31Z</time>
      </trkpt>
      <trkpt lat="44.48099" lon="1.53968">
        <ele>267</ele>
        <time>2021-04-09T12:36:35Z</time>
      </trkpt>
      <trkpt lat="44.48098" lon="1.5395">
        <ele>267</ele>
        <time>2021-04-09T12:36:38Z</time>
      </trkpt>
      <trkpt lat="44.481" lon="1.53946">
        <ele>266</ele>
        <time>2021-04-09T12:36:39Z</time>
      </trkpt>
      <trkpt lat="44.48117" lon="1.53924">
        <ele>265</ele>
        <time>2021-04-09T12:36:44Z</time>
      </trkpt>
      <trkpt lat="44.48137" lon="1.53889">
        <ele>263</ele>
        <time>2021-04-09T12:36:52Z</time>
      </trkpt>
      <trkpt lat="44.48189" lon="1.53826">
        <ele>259</ele>
        <time>2021-04-09T12:37:08Z</time>
      </trkpt>
      <trkpt lat="44.4822" lon="1.53761">
        <ele>258</ele>
        <time>2021-04-09T12:37:21Z</time>
      </trkpt>
      <trkpt lat="44.48222" lon="1.53743">
        <ele>258</ele>
        <time>2021-04-09T12:37:24Z</time>
      </trkpt>
      <trkpt lat="44.48221" lon="1.53709">
        <ele>258</ele>
        <time>2021-04-09T12:37:29Z</time>
      </trkpt>
      <trkpt lat="44.48205" lon="1.53611">
        <ele>256</ele>
        <time>2021-04-09T12:37:46Z</time>
      </trkpt>
      <trkpt lat="44.48201" lon="1.53564">
        <ele>256</ele>
        <time>2021-04-09T12:37:54Z</time>
      </trkpt>
      <trkpt lat="44.48204" lon="1.5353">
        <ele>257</ele>
        <time>2021-04-09T12:38:00Z</time>
      </trkpt>
      <trkpt lat="44.48211" lon="1.53499">
        <ele>257</ele>
        <time>2021-04-09T12:38:05Z</time>
      </trkpt>
      <trkpt lat="44.48221" lon="1.53466">
        <ele>256</ele>
        <time>2021-04-09T12:38:11Z</time>
      </trkpt>
      <trkpt lat="44.4823" lon="1.53445">
        <ele>255</ele>
        <time>2021-04-09T12:38:15Z</time>
      </trkpt>
      <trkpt lat="44.48293" lon="1.53326">
        <ele>251</ele>
        <time>2021-04-09T12:38:40Z</time>
      </trkpt>
      <trkpt lat="44.48304" lon="1.53293">
        <ele>253</ele>
        <time>2021-04-09T12:38:46Z</time>
      </trkpt>
      <trkpt lat="44.48317" lon="1.53267">
        <ele>255</ele>
        <time>2021-04-09T12:38:51Z</time>
      </trkpt>
      <trkpt lat="44.48344" lon="1.53228">
        <ele>258</ele>
        <time>2021-04-09T12:39:00Z</time>
      </trkpt>
      <trkpt lat="44.48361" lon="1.53184">
        <ele>258</ele>
        <time>2021-04-09T12:39:09Z</time>
      </trkpt>
      <trkpt lat="44.48388" lon="1.53137">
        <ele>257</ele>
        <time>2021-04-09T12:39:19Z</time>
      </trkpt>
      <trkpt lat="44.48419" lon="1.53099">
        <ele>257</ele>
        <time>2021-04-09T12:39:28Z</time>
      </trkpt>
      <trkpt lat="44.48452" lon="1.53081">
        <ele>260</ele>
        <time>2021-04-09T12:39:37Z</time>
      </trkpt>
      <trkpt lat="44.48481" lon="1.53055">
        <ele>263</ele>
        <time>2021-04-09T12:39:45Z</time>
      </trkpt>
      <trkpt lat="44.48532" lon="1.52996">
        <ele>266</ele>
        <time>2021-04-09T12:40:00Z</time>
      </trkpt>
      <trkpt lat="44.48579" lon="1.52919">
        <ele>266</ele>
        <time>2021-04-09T12:40:17Z</time>
      </trkpt>
      <trkpt lat="44.48601" lon="1.52872">
        <ele>271</ele>
        <time>2021-04-09T12:40:26Z</time>
      </trkpt>
      <trkpt lat="44.48606" lon="1.52872">
        <ele>272</ele>
        <time>2021-04-09T12:40:28Z</time>
      </trkpt>
      <trkpt lat="44.48609" lon="1.52899">
        <ele>272</ele>
        <time>2021-04-09T12:40:32Z</time>
      </trkpt>
      <trkpt lat="44.48626" lon="1.52969">
        <ele>278</ele>
        <time>2021-04-09T12:40:44Z</time>
      </trkpt>
      <trkpt lat="44.48653" lon="1.53033">
        <ele>282</ele>
        <time>2021-04-09T12:40:57Z</time>
      </trkpt>
      <trkpt lat="44.48667" lon="1.5306">
        <ele>283</ele>
        <time>2021-04-09T12:41:02Z</time>
      </trkpt>
      <trkpt lat="44.487" lon="1.53106">
        <ele>285</ele>
        <time>2021-04-09T12:41:13Z</time>
      </trkpt>
      <trkpt lat="44.48738" lon="1.53147">
        <ele>286</ele>
        <time>2021-04-09T12:41:24Z</time>
      </trkpt>
      <trkpt lat="44.48747" lon="1.53161">
        <ele>286</ele>
        <time>2021-04-09T12:41:28Z</time>
      </trkpt>
      <trkpt lat="44.4875" lon="1.53195">
        <ele>285</ele>
        <time>2021-04-09T12:41:33Z</time>
      </trkpt>
      <trkpt lat="44.48742" lon="1.53248">
        <ele>283</ele>
        <time>2021-04-09T12:41:42Z</time>
      </trkpt>
      <trkpt lat="44.48743" lon="1.53287">
        <ele>283</ele>
        <time>2021-04-09T12:41:49Z</time>
      </trkpt>
      <trkpt lat="44.48753" lon="1.53312">
        <ele>283</ele>
        <time>2021-04-09T12:41:54Z</time>
      </trkpt>
      <trkpt lat="44.48771" lon="1.53345">
        <ele>283</ele>
        <time>2021-04-09T12:42:01Z</time>
      </trkpt>
      <trkpt lat="44.48813" lon="1.53296">
        <ele>286</ele>
        <time>2021-04-09T12:42:13Z</time>
      </trkpt>
      <trkpt lat="44.48839" lon="1.53273">
        <ele>288</ele>
        <time>2021-04-09T12:42:20Z</time>
      </trkpt>
      <trkpt lat="44.48883" lon="1.53226">
        <ele>293</ele>
        <time>2021-04-09T12:42:33Z</time>
      </trkpt>
      <trkpt lat="44.48925" lon="1.53136">
        <ele>303</ele>
        <time>2021-04-09T12:42:51Z</time>
      </trkpt>
      <trkpt lat="44.48928" lon="1.53125">
        <ele>304</ele>
        <time>2021-04-09T12:42:53Z</time>
      </trkpt>
      <trkpt lat="44.4893" lon="1.53096">
        <ele>306</ele>
        <time>2021-04-09T12:42:58Z</time>
      </trkpt>
      <trkpt lat="44.48935" lon="1.53085">
        <ele>307</ele>
        <time>2021-04-09T12:43:00Z</time>
      </trkpt>
      <trkpt lat="44.4895" lon="1.53058">
        <ele>309</ele>
        <time>2021-04-09T12:43:06Z</time>
      </trkpt>
      <trkpt lat="44.48981" lon="1.53014">
        <ele>311</ele>
        <time>2021-04-09T12:43:16Z</time>
      </trkpt>
      <trkpt lat="44.4905" lon="1.529">
        <ele>319</ele>
        <time>2021-04-09T12:43:41Z</time>
      </trkpt>
      <trkpt lat="44.4909" lon="1.52846">
        <ele>321</ele>
        <time>2021-04-09T12:43:54Z</time>
      </trkpt>
      <trkpt lat="44.49111" lon="1.52775">
        <ele>323</ele>
        <time>2021-04-09T12:44:07Z</time>
      </trkpt>
      <trkpt lat="44.49126" lon="1.52741">
        <ele>324</ele>
        <time>2021-04-09T12:44:14Z</time>
      </trkpt>
      <trkpt lat="44.49144" lon="1.52711">
        <ele>323</ele>
        <time>2021-04-09T12:44:20Z</time>
      </trkpt>
      <trkpt lat="44.49156" lon="1.52695">
        <ele>324</ele>
        <time>2021-04-09T12:44:24Z</time>
      </trkpt>
      <trkpt lat="44.49209" lon="1.52643">
        <ele>323</ele>
        <time>2021-04-09T12:44:39Z</time>
      </trkpt>
      <trkpt lat="44.49227" lon="1.52622">
        <ele>323</ele>
        <time>2021-04-09T12:44:45Z</time>
      </trkpt>
      <trkpt lat="44.49238" lon="1.52603">
        <ele>324</ele>
        <time>2021-04-09T12:44:49Z</time>
      </trkpt>
      <trkpt lat="44.49257" lon="1.52559">
        <ele>326</ele>
        <time>2021-04-09T12:44:57Z</time>
      </trkpt>
      <trkpt lat="44.49274" lon="1.5254">
        <ele>326</ele>
        <time>2021-04-09T12:45:02Z</time>
      </trkpt>
      <trkpt lat="44.49322" lon="1.52497">
        <ele>327</ele>
        <time>2021-04-09T12:45:16Z</time>
      </trkpt>
      <trkpt lat="44.49357" lon="1.52478">
        <ele>321</ele>
        <time>2021-04-09T12:45:24Z</time>
      </trkpt>
      <trkpt lat="44.49366" lon="1.52467">
        <ele>319</ele>
        <time>2021-04-09T12:45:27Z</time>
      </trkpt>
      <trkpt lat="44.49374" lon="1.52451">
        <ele>317</ele>
        <time>2021-04-09T12:45:30Z</time>
      </trkpt>
      <trkpt lat="44.49382" lon="1.52424">
        <ele>315</ele>
        <time>2021-04-09T12:45:35Z</time>
      </trkpt>
      <trkpt lat="44.49388" lon="1.52352">
        <ele>313</ele>
        <time>2021-04-09T12:45:47Z</time>
      </trkpt>
      <trkpt lat="44.49369" lon="1.52252">
        <ele>309</ele>
        <time>2021-04-09T12:46:05Z</time>
      </trkpt>
      <trkpt lat="44.49317" lon="1.52082">
        <ele>292</ele>
        <time>2021-04-09T12:46:35Z</time>
      </trkpt>
      <trkpt lat="44.49318" lon="1.52067">
        <ele>291</ele>
        <time>2021-04-09T12:46:38Z</time>
      </trkpt>
      <trkpt lat="44.4933" lon="1.52063">
        <ele>290</ele>
        <time>2021-04-09T12:46:41Z</time>
      </trkpt>
      <trkpt lat="44.49349" lon="1.52069">
        <ele>289</ele>
        <time>2021-04-09T12:46:45Z</time>
      </trkpt>
      <trkpt lat="44.49357" lon="1.52066">
        <ele>288</ele>
        <time>2021-04-09T12:46:47Z</time>
      </trkpt>
      <trkpt lat="44.4937" lon="1.5207">
        <ele>287</ele>
        <time>2021-04-09T12:46:50Z</time>
      </trkpt>
      <trkpt lat="44.49418" lon="1.52072">
        <ele>283</ele>
        <time>2021-04-09T12:47:02Z</time>
      </trkpt>
      <trkpt lat="44.49453" lon="1.52067">
        <ele>279</ele>
        <time>2021-04-09T12:47:10Z</time>
      </trkpt>
      <trkpt lat="44.4951" lon="1.52069">
        <ele>276</ele>
        <time>2021-04-09T12:47:23Z</time>
      </trkpt>
      <trkpt lat="44.49519" lon="1.52073">
        <ele>277</ele>
        <time>2021-04-09T12:47:25Z</time>
      </trkpt>
      <trkpt lat="44.49531" lon="1.52083">
        <ele>278</ele>
        <time>2021-04-09T12:47:29Z</time>
      </trkpt>
      <trkpt lat="44.49549" lon="1.52087">
        <ele>279</ele>
        <time>2021-04-09T12:47:33Z</time>
      </trkpt>
      <trkpt lat="44.49563" lon="1.52094">
        <ele>280</ele>
        <time>2021-04-09T12:47:36Z</time>
      </trkpt>
      <trkpt lat="44.49572" lon="1.52086">
        <ele>280</ele>
        <time>2021-04-09T12:47:39Z</time>
      </trkpt>
      <trkpt lat="44.49586" lon="1.52085">
        <ele>280</ele>
        <time>2021-04-09T12:47:42Z</time>
      </trkpt>
      <trkpt lat="44.49594" lon="1.52082">
        <ele>280</ele>
        <time>2021-04-09T12:47:44Z</time>
      </trkpt>
      <trkpt lat="44.4961" lon="1.52084">
        <ele>281</ele>
        <time>2021-04-09T12:47:48Z</time>
      </trkpt>
      <trkpt lat="44.4963" lon="1.52072">
        <ele>281</ele>
        <time>2021-04-09T12:47:53Z</time>
      </trkpt>
      <trkpt lat="44.49643" lon="1.52075">
        <ele>282</ele>
        <time>2021-04-09T12:47:56Z</time>
      </trkpt>
      <trkpt lat="44.49666" lon="1.52055">
        <ele>283</ele>
        <time>2021-04-09T12:48:02Z</time>
      </trkpt>
      <trkpt lat="44.49692" lon="1.5205">
        <ele>283</ele>
        <time>2021-04-09T12:48:08Z</time>
      </trkpt>
      <trkpt lat="44.49706" lon="1.52041">
        <ele>283</ele>
        <time>2021-04-09T12:48:12Z</time>
      </trkpt>
      <trkpt lat="44.49731" lon="1.5201">
        <ele>285</ele>
        <time>2021-04-09T12:48:20Z</time>
      </trkpt>
      <trkpt lat="44.49735" lon="1.51989">
        <ele>285</ele>
        <time>2021-04-09T12:48:23Z</time>
      </trkpt>
      <trkpt lat="44.49752" lon="1.51949">
        <ele>285</ele>
        <time>2021-04-09T12:48:31Z</time>
      </trkpt>
      <trkpt lat="44.49788" lon="1.51907">
        <ele>282</ele>
        <time>2021-04-09T12:48:42Z</time>
      </trkpt>
      <trkpt lat="44.49798" lon="1.51886">
        <ele>280</ele>
        <time>2021-04-09T12:48:46Z</time>
      </trkpt>
      <trkpt lat="44.49798" lon="1.51873">
        <ele>280</ele>
        <time>2021-04-09T12:48:49Z</time>
      </trkpt>
      <trkpt lat="44.49803" lon="1.51855">
        <ele>279</ele>
        <time>2021-04-09T12:48:52Z</time>
      </trkpt>
      <trkpt lat="44.49826" lon="1.51799">
        <ele>274</ele>
        <time>2021-04-09T12:49:02Z</time>
      </trkpt>
      <trkpt lat="44.49818" lon="1.51764">
        <ele>272</ele>
        <time>2021-04-09T12:49:09Z</time>
      </trkpt>
      <trkpt lat="44.49818" lon="1.5174">
        <ele>270</ele>
        <time>2021-04-09T12:49:13Z</time>
      </trkpt>
      <trkpt lat="44.4983" lon="1.51716">
        <ele>266</ele>
        <time>2021-04-09T12:49:17Z</time>
      </trkpt>
      <trkpt lat="44.49838" lon="1.51709">
        <ele>264</ele>
        <time>2021-04-09T12:49:20Z</time>
      </trkpt>
      <trkpt lat="44.49846" lon="1.51709">
        <ele>263</ele>
        <time>2021-04-09T12:49:22Z</time>
      </trkpt>
      <trkpt lat="44.49871" lon="1.51721">
        <ele>262</ele>
        <time>2021-04-09T12:49:28Z</time>
      </trkpt>
      <trkpt lat="44.49888" lon="1.51725">
        <ele>260</ele>
        <time>2021-04-09T12:49:32Z</time>
      </trkpt>
      <trkpt lat="44.49897" lon="1.51737">
        <ele>261</ele>
        <time>2021-04-09T12:49:35Z</time>
      </trkpt>
      <trkpt lat="44.49914" lon="1.51745">
        <ele>260</ele>
        <time>2021-04-09T12:49:39Z</time>
      </trkpt>
      <trkpt lat="44.49976" lon="1.51766">
        <ele>257</ele>
        <time>2021-04-09T12:49:54Z</time>
      </trkpt>
      <trkpt lat="44.49982" lon="1.51758">
        <ele>257</ele>
        <time>2021-04-09T12:49:56Z</time>
      </trkpt>
      <trkpt lat="44.49986" lon="1.51742">
        <ele>255</ele>
        <time>2021-04-09T12:49:58Z</time>
      </trkpt>
      <trkpt lat="44.50007" lon="1.51633">
        <ele>243</ele>
        <time>2021-04-09T12:50:17Z</time>
      </trkpt>
      <trkpt lat="44.50031" lon="1.51531">
        <ele>234</ele>
        <time>2021-04-09T12:50:35Z</time>
      </trkpt>
      <trkpt lat="44.50035" lon="1.515">
        <ele>231</ele>
        <time>2021-04-09T12:50:40Z</time>
      </trkpt>
      <trkpt lat="44.50043" lon="1.51477">
        <ele>230</ele>
        <time>2021-04-09T12:50:45Z</time>
      </trkpt>
      <trkpt lat="44.50057" lon="1.51456">
        <ele>230</ele>
        <time>2021-04-09T12:50:49Z</time>
      </trkpt>
      <trkpt lat="44.50073" lon="1.5144">
        <ele>233</ele>
        <time>2021-04-09T12:50:54Z</time>
      </trkpt>
      <trkpt lat="44.50095" lon="1.51423">
        <ele>235</ele>
        <time>2021-04-09T12:51:00Z</time>
      </trkpt>
      <trkpt lat="44.50117" lon="1.51418">
        <ele>238</ele>
        <time>2021-04-09T12:51:05Z</time>
      </trkpt>
      <trkpt lat="44.50128" lon="1.5142">
        <ele>240</ele>
        <time>2021-04-09T12:51:08Z</time>
      </trkpt>
      <trkpt lat="44.50182" lon="1.51412">
        <ele>244</ele>
        <time>2021-04-09T12:51:20Z</time>
      </trkpt>
      <trkpt lat="44.50197" lon="1.51414">
        <ele>244</ele>
        <time>2021-04-09T12:51:24Z</time>
      </trkpt>
      <trkpt lat="44.50234" lon="1.51471">
        <ele>251</ele>
        <time>2021-04-09T12:51:37Z</time>
      </trkpt>
      <trkpt lat="44.50237" lon="1.51547">
        <ele>257</ele>
        <time>2021-04-09T12:51:49Z</time>
      </trkpt>
      <trkpt lat="44.50245" lon="1.51626">
        <ele>263</ele>
        <time>2021-04-09T12:52:03Z</time>
      </trkpt>
      <trkpt lat="44.5025" lon="1.51723">
        <ele>268</ele>
        <time>2021-04-09T12:52:19Z</time>
      </trkpt>
      <trkpt lat="44.50256" lon="1.51767">
        <ele>271</ele>
        <time>2021-04-09T12:52:26Z</time>
      </trkpt>
      <trkpt lat="44.50282" lon="1.51842">
        <ele>274</ele>
        <time>2021-04-09T12:52:40Z</time>
      </trkpt>
      <trkpt lat="44.50303" lon="1.51888">
        <ele>275</ele>
        <time>2021-04-09T12:52:49Z</time>
      </trkpt>
      <trkpt lat="44.50327" lon="1.51965">
        <ele>277</ele>
        <time>2021-04-09T12:53:03Z</time>
      </trkpt>
      <trkpt lat="44.50353" lon="1.52065">
        <ele>278</ele>
        <time>2021-04-09T12:53:21Z</time>
      </trkpt>
      <trkpt lat="44.50369" lon="1.52111">
        <ele>277</ele>
        <time>2021-04-09T12:53:30Z</time>
      </trkpt>
      <trkpt lat="44.50383" lon="1.52124">
        <ele>276</ele>
        <time>2021-04-09T12:53:34Z</time>
      </trkpt>
      <trkpt lat="44.50421" lon="1.52147">
        <ele>275</ele>
        <time>2021-04-09T12:53:43Z</time>
      </trkpt>
      <trkpt lat="44.50463" lon="1.52162">
        <ele>273</ele>
        <time>2021-04-09T12:53:53Z</time>
      </trkpt>
      <trkpt lat="44.50514" lon="1.52184">
        <ele>270</ele>
        <time>2021-04-09T12:54:06Z</time>
      </trkpt>
      <trkpt lat="44.50538" lon="1.5228">
        <ele>267</ele>
        <time>2021-04-09T12:54:23Z</time>
      </trkpt>
      <trkpt lat="44.50573" lon="1.52347">
        <ele>267</ele>
        <time>2021-04-09T12:54:37Z</time>
      </trkpt>
      <trkpt lat="44.50589" lon="1.52369">
        <ele>268</ele>
        <time>2021-04-09T12:54:42Z</time>
      </trkpt>
      <trkpt lat="44.50604" lon="1.52374">
        <ele>268</ele>
        <time>2021-04-09T12:54:45Z</time>
      </trkpt>
      <trkpt lat="44.50624" lon="1.52459">
        <ele>270</ele>
        <time>2021-04-09T12:55:00Z</time>
      </trkpt>
      <trkpt lat="44.50669" lon="1.52604">
        <ele>281</ele>
        <time>2021-04-09T12:55:27Z</time>
      </trkpt>
      <trkpt lat="44.5068" lon="1.52629">
        <ele>283</ele>
        <time>2021-04-09T12:55:32Z</time>
      </trkpt>
      <trkpt lat="44.50692" lon="1.52666">
        <ele>285</ele>
        <time>2021-04-09T12:55:38Z</time>
      </trkpt>
      <trkpt lat="44.50702" lon="1.52726">
        <ele>288</ele>
        <time>2021-04-09T12:55:49Z</time>
      </trkpt>
      <trkpt lat="44.50708" lon="1.52748">
        <ele>289</ele>
        <time>2021-04-09T12:55:53Z</time>
      </trkpt>
      <trkpt lat="44.50708" lon="1.52777">
        <ele>291</ele>
        <time>2021-04-09T12:55:57Z</time>
      </trkpt>
      <trkpt lat="44.50721" lon="1.52897">
        <ele>299</ele>
        <time>2021-04-09T12:56:18Z</time>
      </trkpt>
      <trkpt lat="44.50742" lon="1.53052">
        <ele>301</ele>
        <time>2021-04-09T12:56:44Z</time>
      </trkpt>
      <trkpt lat="44.50743" lon="1.5314">
        <ele>303</ele>
        <time>2021-04-09T12:56:58Z</time>
      </trkpt>
      <trkpt lat="44.5075" lon="1.53196">
        <ele>306</ele>
        <time>2021-04-09T12:57:08Z</time>
      </trkpt>
      <trkpt lat="44.50774" lon="1.5328">
        <ele>312</ele>
        <time>2021-04-09T12:57:23Z</time>
      </trkpt>
      <trkpt lat="44.50787" lon="1.53305">
        <ele>314</ele>
        <time>2021-04-09T12:57:28Z</time>
      </trkpt>
      <trkpt lat="44.50792" lon="1.53321">
        <ele>315</ele>
        <time>2021-04-09T12:57:31Z</time>
      </trkpt>
      <trkpt lat="44.5082" lon="1.53384">
        <ele>319</ele>
        <time>2021-04-09T12:57:43Z</time>
      </trkpt>
      <trkpt lat="44.50842" lon="1.53462">
        <ele>325</ele>
        <time>2021-04-09T12:57:57Z</time>
      </trkpt>
      <trkpt lat="44.50851" lon="1.53485">
        <ele>326</ele>
        <time>2021-04-09T12:58:02Z</time>
      </trkpt>
      <trkpt lat="44.50861" lon="1.53503">
        <ele>327</ele>
        <time>2021-04-09T12:58:06Z</time>
      </trkpt>
      <trkpt lat="44.50875" lon="1.53518">
        <ele>328</ele>
        <time>2021-04-09T12:58:10Z</time>
      </trkpt>
      <trkpt lat="44.50982" lon="1.53611">
        <ele>336</ele>
        <time>2021-04-09T12:58:39Z</time>
      </trkpt>
      <trkpt lat="44.51018" lon="1.53646">
        <ele>339</ele>
        <time>2021-04-09T12:58:49Z</time>
      </trkpt>
      <trkpt lat="44.51047" lon="1.53682">
        <ele>343</ele>
        <time>2021-04-09T12:58:58Z</time>
      </trkpt>
      <trkpt lat="44.51081" lon="1.53739">
        <ele>347</ele>
        <time>2021-04-09T12:59:11Z</time>
      </trkpt>
      <trkpt lat="44.51085" lon="1.53751">
        <ele>347</ele>
        <time>2021-04-09T12:59:13Z</time>
      </trkpt>
      <trkpt lat="44.51087" lon="1.53753">
        <ele>347</ele>
        <time>2021-04-09T12:59:14Z</time>
      </trkpt>
      <trkpt lat="44.51091" lon="1.53752">
        <ele>347</ele>
        <time>2021-04-09T12:59:14Z</time>
      </trkpt>
      <trkpt lat="44.51121" lon="1.53609">
        <ele>347</ele>
        <time>2021-04-09T12:59:39Z</time>
      </trkpt>
      <trkpt lat="44.51135" lon="1.53559">
        <ele>348</ele>
        <time>2021-04-09T12:59:48Z</time>
      </trkpt>
      <trkpt lat="44.51165" lon="1.53489">
        <ele>349</ele>
        <time>2021-04-09T13:00:02Z</time>
      </trkpt>
      <trkpt lat="44.51181" lon="1.53467">
        <ele>347</ele>
        <time>2021-04-09T13:00:07Z</time>
      </trkpt>
      <trkpt lat="44.51239" lon="1.53357">
        <ele>341</ele>
        <time>2021-04-09T13:00:30Z</time>
      </trkpt>
      <trkpt lat="44.51243" lon="1.53351">
        <ele>341</ele>
        <time>2021-04-09T13:00:31Z</time>
      </trkpt>
      <trkpt lat="44.51249" lon="1.53348">
        <ele>341</ele>
        <time>2021-04-09T13:00:33Z</time>
      </trkpt>
      <trkpt lat="44.51254" lon="1.53349">
        <ele>341</ele>
        <time>2021-04-09T13:00:34Z</time>
      </trkpt>
      <trkpt lat="44.51293" lon="1.53373">
        <ele>338</ele>
        <time>2021-04-09T13:00:44Z</time>
      </trkpt>
      <trkpt lat="44.51302" lon="1.53385">
        <ele>338</ele>
        <time>2021-04-09T13:00:47Z</time>
      </trkpt>
      <trkpt lat="44.51316" lon="1.53422">
        <ele>338</ele>
        <time>2021-04-09T13:00:54Z</time>
      </trkpt>
      <trkpt lat="44.51381" lon="1.53535">
        <ele>337</ele>
        <time>2021-04-09T13:01:18Z</time>
      </trkpt>
      <trkpt lat="44.51392" lon="1.53564">
        <ele>337</ele>
        <time>2021-04-09T13:01:23Z</time>
      </trkpt>
      <trkpt lat="44.51407" lon="1.53624">
        <ele>335</ele>
        <time>2021-04-09T13:01:34Z</time>
      </trkpt>
      <trkpt lat="44.51417" lon="1.53652">
        <ele>335</ele>
        <time>2021-04-09T13:01:39Z</time>
      </trkpt>
      <trkpt lat="44.51424" lon="1.53668">
        <ele>335</ele>
        <time>2021-04-09T13:01:42Z</time>
      </trkpt>
      <trkpt lat="44.51436" lon="1.53686">
        <ele>336</ele>
        <time>2021-04-09T13:01:46Z</time>
      </trkpt>
      <trkpt lat="44.51519" lon="1.53763">
        <ele>346</ele>
        <time>2021-04-09T13:02:10Z</time>
      </trkpt>
      <trkpt lat="44.5153" lon="1.53768">
        <ele>348</ele>
        <time>2021-04-09T13:02:12Z</time>
      </trkpt>
      <trkpt lat="44.51575" lon="1.53799">
        <ele>356</ele>
        <time>2021-04-09T13:02:24Z</time>
      </trkpt>
      <trkpt lat="44.51586" lon="1.53802">
        <ele>357</ele>
        <time>2021-04-09T13:02:27Z</time>
      </trkpt>
      <trkpt lat="44.51608" lon="1.53802">
        <ele>356</ele>
        <time>2021-04-09T13:02:32Z</time>
      </trkpt>
      <trkpt lat="44.51652" lon="1.53785">
        <ele>354</ele>
        <time>2021-04-09T13:02:42Z</time>
      </trkpt>
      <trkpt lat="44.51656" lon="1.53794">
        <ele>354</ele>
        <time>2021-04-09T13:02:44Z</time>
      </trkpt>
      <trkpt lat="44.51663" lon="1.53832">
        <ele>352</ele>
        <time>2021-04-09T13:02:51Z</time>
      </trkpt>
      <trkpt lat="44.51684" lon="1.53881">
        <ele>349</ele>
        <time>2021-04-09T13:03:00Z</time>
      </trkpt>
      <trkpt lat="44.51695" lon="1.53898">
        <ele>348</ele>
        <time>2021-04-09T13:03:04Z</time>
      </trkpt>
      <trkpt lat="44.51746" lon="1.53955">
        <ele>344</ele>
        <time>2021-04-09T13:03:19Z</time>
      </trkpt>
      <trkpt lat="44.51759" lon="1.53962">
        <ele>344</ele>
        <time>2021-04-09T13:03:23Z</time>
      </trkpt>
      <trkpt lat="44.51843" lon="1.53971">
        <ele>346</ele>
        <time>2021-04-09T13:03:42Z</time>
      </trkpt>
      <trkpt lat="44.51879" lon="1.53967">
        <ele>348</ele>
        <time>2021-04-09T13:03:51Z</time>
      </trkpt>
      <trkpt lat="44.51902" lon="1.53961">
        <ele>348</ele>
        <time>2021-04-09T13:03:56Z</time>
      </trkpt>
      <trkpt lat="44.51915" lon="1.53954">
        <ele>348</ele>
        <time>2021-04-09T13:03:59Z</time>
      </trkpt>
      <trkpt lat="44.51938" lon="1.53935">
        <ele>346</ele>
        <time>2021-04-09T13:04:06Z</time>
      </trkpt>
      <trkpt lat="44.51947" lon="1.5393">
        <ele>345</ele>
        <time>2021-04-09T13:04:08Z</time>
      </trkpt>
      <trkpt lat="44.51957" lon="1.53928">
        <ele>345</ele>
        <time>2021-04-09T13:04:10Z</time>
      </trkpt>
      <trkpt lat="44.51987" lon="1.53931">
        <ele>344</ele>
        <time>2021-04-09T13:04:17Z</time>
      </trkpt>
      <trkpt lat="44.52117" lon="1.53967">
        <ele>341</ele>
        <time>2021-04-09T13:04:48Z</time>
      </trkpt>
      <trkpt lat="44.52128" lon="1.53959">
        <ele>341</ele>
        <time>2021-04-09T13:04:51Z</time>
      </trkpt>
      <trkpt lat="44.52168" lon="1.53853">
        <ele>339</ele>
        <time>2021-04-09T13:05:11Z</time>
      </trkpt>
      <trkpt lat="44.52187" lon="1.53809">
        <ele>335</ele>
        <time>2021-04-09T13:05:20Z</time>
      </trkpt>
      <trkpt lat="44.52218" lon="1.53771">
        <ele>332</ele>
        <time>2021-04-09T13:05:29Z</time>
      </trkpt>
      <trkpt lat="44.5225" lon="1.53748">
        <ele>333</ele>
        <time>2021-04-09T13:05:38Z</time>
      </trkpt>
      <trkpt lat="44.52258" lon="1.53747">
        <ele>332</ele>
        <time>2021-04-09T13:05:40Z</time>
      </trkpt>
      <trkpt lat="44.52274" lon="1.53749">
        <ele>331</ele>
        <time>2021-04-09T13:05:43Z</time>
      </trkpt>
      <trkpt lat="44.52325" lon="1.53762">
        <ele>329</ele>
        <time>2021-04-09T13:05:55Z</time>
      </trkpt>
      <trkpt lat="44.52363" lon="1.53762">
        <ele>330</ele>
        <time>2021-04-09T13:06:04Z</time>
      </trkpt>
      <trkpt lat="44.52398" lon="1.53758">
        <ele>332</ele>
        <time>2021-04-09T13:06:12Z</time>
      </trkpt>
      <trkpt lat="44.52403" lon="1.53741">
        <ele>331</ele>
        <time>2021-04-09T13:06:16Z</time>
      </trkpt>
      <trkpt lat="44.52389" lon="1.53685">
        <ele>329</ele>
        <time>2021-04-09T13:06:25Z</time>
      </trkpt>
      <trkpt lat="44.52387" lon="1.53626">
        <ele>332</ele>
        <time>2021-04-09T13:06:35Z</time>
      </trkpt>
      <trkpt lat="44.52388" lon="1.53621">
        <ele>333</ele>
        <time>2021-04-09T13:06:36Z</time>
      </trkpt>
      <trkpt lat="44.52397" lon="1.53608">
        <ele>336</ele>
        <time>2021-04-09T13:06:39Z</time>
      </trkpt>
      <trkpt lat="44.52423" lon="1.53546">
        <ele>342</ele>
        <time>2021-04-09T13:06:51Z</time>
      </trkpt>
      <trkpt lat="44.52428" lon="1.53521">
        <ele>341</ele>
        <time>2021-04-09T13:06:55Z</time>
      </trkpt>
      <trkpt lat="44.52421" lon="1.5348">
        <ele>342</ele>
        <time>2021-04-09T13:07:02Z</time>
      </trkpt>
      <trkpt lat="44.52423" lon="1.53468">
        <ele>342</ele>
        <time>2021-04-09T13:07:05Z</time>
      </trkpt>
      <trkpt lat="44.5242" lon="1.53468">
        <ele>342</ele>
        <time>2021-04-09T13:07:05Z</time>
      </trkpt>
      <trkpt lat="44.5242" lon="1.53478">
        <ele>342</ele>
        <time>2021-04-09T13:07:07Z</time>
      </trkpt>
      <trkpt lat="44.52423" lon="1.53479">
        <ele>342</ele>
        <time>2021-04-09T13:07:08Z</time>
      </trkpt>
      <trkpt lat="44.5242" lon="1.53473">
        <ele>342</ele>
        <time>2021-04-09T13:07:09Z</time>
      </trkpt>
      <trkpt lat="44.52419" lon="1.53475">
        <ele>342</ele>
        <time>2021-04-09T13:07:09Z</time>
      </trkpt>
      <trkpt lat="44.5242" lon="1.53478">
        <ele>342</ele>
        <time>2021-04-09T13:07:10Z</time>
      </trkpt>
      <trkpt lat="44.52425" lon="1.53475">
        <ele>342</ele>
        <time>2021-04-09T13:07:11Z</time>
      </trkpt>
      <trkpt lat="44.52454" lon="1.534">
        <ele>338</ele>
        <time>2021-04-09T13:07:25Z</time>
      </trkpt>
      <trkpt lat="44.52486" lon="1.53353">
        <ele>336</ele>
        <time>2021-04-09T13:07:36Z</time>
      </trkpt>
      <trkpt lat="44.52535" lon="1.5329">
        <ele>337</ele>
        <time>2021-04-09T13:07:52Z</time>
      </trkpt>
      <trkpt lat="44.52583" lon="1.53201">
        <ele>340</ele>
        <time>2021-04-09T13:08:10Z</time>
      </trkpt>
      <trkpt lat="44.52608" lon="1.53165">
        <ele>341</ele>
        <time>2021-04-09T13:08:19Z</time>
      </trkpt>
      <trkpt lat="44.5264" lon="1.53131">
        <ele>339</ele>
        <time>2021-04-09T13:08:28Z</time>
      </trkpt>
      <trkpt lat="44.52677" lon="1.53102">
        <ele>337</ele>
        <time>2021-04-09T13:08:38Z</time>
      </trkpt>
      <trkpt lat="44.52702" lon="1.53064">
        <ele>334</ele>
        <time>2021-04-09T13:08:46Z</time>
      </trkpt>
      <trkpt lat="44.52732" lon="1.53011">
        <ele>335</ele>
        <time>2021-04-09T13:08:58Z</time>
      </trkpt>
      <trkpt lat="44.52781" lon="1.5295">
        <ele>334</ele>
        <time>2021-04-09T13:09:13Z</time>
      </trkpt>
      <trkpt lat="44.52792" lon="1.52941">
        <ele>334</ele>
        <time>2021-04-09T13:09:16Z</time>
      </trkpt>
      <trkpt lat="44.52814" lon="1.5291">
        <ele>335</ele>
        <time>2021-04-09T13:09:23Z</time>
      </trkpt>
      <trkpt lat="44.52832" lon="1.52867">
        <ele>336</ele>
        <time>2021-04-09T13:09:32Z</time>
      </trkpt>
      <trkpt lat="44.52865" lon="1.52802">
        <ele>335</ele>
        <time>2021-04-09T13:09:45Z</time>
      </trkpt>
      <trkpt lat="44.52872" lon="1.52783">
        <ele>335</ele>
        <time>2021-04-09T13:09:48Z</time>
      </trkpt>
      <trkpt lat="44.52908" lon="1.52673">
        <ele>336</ele>
        <time>2021-04-09T13:10:09Z</time>
      </trkpt>
      <trkpt lat="44.52916" lon="1.52633">
        <ele>337</ele>
        <time>2021-04-09T13:10:15Z</time>
      </trkpt>
      <trkpt lat="44.52932" lon="1.52545">
        <ele>339</ele>
        <time>2021-04-09T13:10:31Z</time>
      </trkpt>
      <trkpt lat="44.52954" lon="1.52386">
        <ele>334</ele>
        <time>2021-04-09T13:10:58Z</time>
      </trkpt>
      <trkpt lat="44.52958" lon="1.52336">
        <ele>333</ele>
        <time>2021-04-09T13:11:06Z</time>
      </trkpt>
      <trkpt lat="44.52955" lon="1.52256">
        <ele>331</ele>
        <time>2021-04-09T13:11:19Z</time>
      </trkpt>
      <trkpt lat="44.52956" lon="1.5214">
        <ele>331</ele>
        <time>2021-04-09T13:11:39Z</time>
      </trkpt>
      <trkpt lat="44.52941" lon="1.52021">
        <ele>332</ele>
        <time>2021-04-09T13:11:59Z</time>
      </trkpt>
      <trkpt lat="44.52929" lon="1.51974">
        <ele>335</ele>
        <time>2021-04-09T13:12:07Z</time>
      </trkpt>
      <trkpt lat="44.52924" lon="1.51936">
        <ele>337</ele>
        <time>2021-04-09T13:12:13Z</time>
      </trkpt>
      <trkpt lat="44.52933" lon="1.5189">
        <ele>340</ele>
        <time>2021-04-09T13:12:21Z</time>
      </trkpt>
      <trkpt lat="44.52934" lon="1.5185">
        <ele>343</ele>
        <time>2021-04-09T13:12:28Z</time>
      </trkpt>
      <trkpt lat="44.52929" lon="1.51821">
        <ele>344</ele>
        <time>2021-04-09T13:12:33Z</time>
      </trkpt>
      <trkpt lat="44.52924" lon="1.51761">
        <ele>345</ele>
        <time>2021-04-09T13:12:43Z</time>
      </trkpt>
      <trkpt lat="44.52917" lon="1.51725">
        <ele>345</ele>
        <time>2021-04-09T13:12:49Z</time>
      </trkpt>
      <trkpt lat="44.52876" lon="1.51637">
        <ele>345</ele>
        <time>2021-04-09T13:13:07Z</time>
      </trkpt>
      <trkpt lat="44.52877" lon="1.51629">
        <ele>346</ele>
        <time>2021-04-09T13:13:08Z</time>
      </trkpt>
      <trkpt lat="44.52902" lon="1.51592">
        <ele>349</ele>
        <time>2021-04-09T13:13:17Z</time>
      </trkpt>
      <trkpt lat="44.52968" lon="1.51501">
        <ele>352</ele>
        <time>2021-04-09T13:13:38Z</time>
      </trkpt>
      <trkpt lat="44.52997" lon="1.51474">
        <ele>350</ele>
        <time>2021-04-09T13:13:46Z</time>
      </trkpt>
      <trkpt lat="44.53035" lon="1.51445">
        <ele>348</ele>
        <time>2021-04-09T13:13:56Z</time>
      </trkpt>
      <trkpt lat="44.53082" lon="1.51387">
        <ele>346</ele>
        <time>2021-04-09T13:14:11Z</time>
      </trkpt>
      <trkpt lat="44.53084" lon="1.5139">
        <ele>346</ele>
        <time>2021-04-09T13:14:12Z</time>
      </trkpt>
      <trkpt lat="44.53087" lon="1.51442">
        <ele>349</ele>
        <time>2021-04-09T13:14:20Z</time>
      </trkpt>
      <trkpt lat="44.53097" lon="1.51506">
        <ele>350</ele>
        <time>2021-04-09T13:14:31Z</time>
      </trkpt>
      <trkpt lat="44.53099" lon="1.51603">
        <ele>348</ele>
        <time>2021-04-09T13:14:48Z</time>
      </trkpt>
      <trkpt lat="44.53106" lon="1.51655">
        <ele>346</ele>
        <time>2021-04-09T13:14:56Z</time>
      </trkpt>
      <trkpt lat="44.53106" lon="1.51687">
        <ele>346</ele>
        <time>2021-04-09T13:15:02Z</time>
      </trkpt>
      <trkpt lat="44.53111" lon="1.51697">
        <ele>345</ele>
        <time>2021-04-09T13:15:04Z</time>
      </trkpt>
      <trkpt lat="44.53127" lon="1.51695">
        <ele>344</ele>
        <time>2021-04-09T13:15:07Z</time>
      </trkpt>
      <trkpt lat="44.53138" lon="1.51684">
        <ele>344</ele>
        <time>2021-04-09T13:15:11Z</time>
      </trkpt>
      <trkpt lat="44.53165" lon="1.51641">
        <ele>344</ele>
        <time>2021-04-09T13:15:20Z</time>
      </trkpt>
      <trkpt lat="44.53225" lon="1.5156">
        <ele>341</ele>
        <time>2021-04-09T13:15:40Z</time>
      </trkpt>
      <trkpt lat="44.53246" lon="1.51528">
        <ele>342</ele>
        <time>2021-04-09T13:15:47Z</time>
      </trkpt>
      <trkpt lat="44.53266" lon="1.51488">
        <ele>344</ele>
        <time>2021-04-09T13:15:55Z</time>
      </trkpt>
      <trkpt lat="44.53279" lon="1.51452">
        <ele>344</ele>
        <time>2021-04-09T13:16:02Z</time>
      </trkpt>
      <trkpt lat="44.5329" lon="1.51402">
        <ele>344</ele>
        <time>2021-04-09T13:16:10Z</time>
      </trkpt>
      <trkpt lat="44.53297" lon="1.51339">
        <ele>338</ele>
        <time>2021-04-09T13:16:21Z</time>
      </trkpt>
      <trkpt lat="44.53305" lon="1.51198">
        <ele>339</ele>
        <time>2021-04-09T13:16:45Z</time>
      </trkpt>
      <trkpt lat="44.53308" lon="1.51188">
        <ele>339</ele>
        <time>2021-04-09T13:16:46Z</time>
      </trkpt>
      <trkpt lat="44.53311" lon="1.51189">
        <ele>338</ele>
        <time>2021-04-09T13:16:47Z</time>
      </trkpt>
      <trkpt lat="44.53316" lon="1.512">
        <ele>337</ele>
        <time>2021-04-09T13:16:49Z</time>
      </trkpt>
      <trkpt lat="44.53324" lon="1.51238">
        <ele>334</ele>
        <time>2021-04-09T13:16:56Z</time>
      </trkpt>
      <trkpt lat="44.53333" lon="1.51251">
        <ele>333</ele>
        <time>2021-04-09T13:16:59Z</time>
      </trkpt>
      <trkpt lat="44.53339" lon="1.51253">
        <ele>333</ele>
        <time>2021-04-09T13:17:00Z</time>
      </trkpt>
      <trkpt lat="44.53384" lon="1.51244">
        <ele>330</ele>
        <time>2021-04-09T13:17:11Z</time>
      </trkpt>
      <trkpt lat="44.53437" lon="1.51246">
        <ele>328</ele>
        <time>2021-04-09T13:17:23Z</time>
      </trkpt>
      <trkpt lat="44.53537" lon="1.51262">
        <ele>323</ele>
        <time>2021-04-09T13:17:47Z</time>
      </trkpt>
      <trkpt lat="44.53569" lon="1.51284">
        <ele>321</ele>
        <time>2021-04-09T13:17:55Z</time>
      </trkpt>
      <trkpt lat="44.53595" lon="1.51293">
        <ele>319</ele>
        <time>2021-04-09T13:18:01Z</time>
      </trkpt>
      <trkpt lat="44.53652" lon="1.51298">
        <ele>315</ele>
        <time>2021-04-09T13:18:15Z</time>
      </trkpt>
      <trkpt lat="44.53687" lon="1.51304">
        <ele>313</ele>
        <time>2021-04-09T13:18:23Z</time>
      </trkpt>
      <trkpt lat="44.53704" lon="1.51305">
        <ele>311</ele>
        <time>2021-04-09T13:18:27Z</time>
      </trkpt>
      <trkpt lat="44.53709" lon="1.51303">
        <ele>310</ele>
        <time>2021-04-09T13:18:28Z</time>
      </trkpt>
      <trkpt lat="44.53713" lon="1.51299">
        <ele>309</ele>
        <time>2021-04-09T13:18:29Z</time>
      </trkpt>
      <trkpt lat="44.53714" lon="1.51293">
        <ele>307</ele>
        <time>2021-04-09T13:18:30Z</time>
      </trkpt>
      <trkpt lat="44.5371" lon="1.51282">
        <ele>305</ele>
        <time>2021-04-09T13:18:32Z</time>
      </trkpt>
      <trkpt lat="44.53668" lon="1.51243">
        <ele>302</ele>
        <time>2021-04-09T13:18:44Z</time>
      </trkpt>
      <trkpt lat="44.53643" lon="1.51233">
        <ele>303</ele>
        <time>2021-04-09T13:18:50Z</time>
      </trkpt>
      <trkpt lat="44.53611" lon="1.51224">
        <ele>306</ele>
        <time>2021-04-09T13:18:58Z</time>
      </trkpt>
      <trkpt lat="44.53607" lon="1.51218">
        <ele>306</ele>
        <time>2021-04-09T13:18:59Z</time>
      </trkpt>
      <trkpt lat="44.53601" lon="1.51179">
        <ele>299</ele>
        <time>2021-04-09T13:19:06Z</time>
      </trkpt>
      <trkpt lat="44.53591" lon="1.51162">
        <ele>298</ele>
        <time>2021-04-09T13:19:09Z</time>
      </trkpt>
      <trkpt lat="44.53563" lon="1.51133">
        <ele>299</ele>
        <time>2021-04-09T13:19:18Z</time>
      </trkpt>
      <trkpt lat="44.53546" lon="1.5112">
        <ele>300</ele>
        <time>2021-04-09T13:19:22Z</time>
      </trkpt>
      <trkpt lat="44.53513" lon="1.51108">
        <ele>301</ele>
        <time>2021-04-09T13:19:30Z</time>
      </trkpt>
      <trkpt lat="44.53498" lon="1.511">
        <ele>302</ele>
        <time>2021-04-09T13:19:34Z</time>
      </trkpt>
      <trkpt lat="44.53494" lon="1.51095">
        <ele>301</ele>
        <time>2021-04-09T13:19:35Z</time>
      </trkpt>
      <trkpt lat="44.53491" lon="1.51085">
        <ele>300</ele>
        <time>2021-04-09T13:19:37Z</time>
      </trkpt>
      <trkpt lat="44.53496" lon="1.51078">
        <ele>299</ele>
        <time>2021-04-09T13:19:39Z</time>
      </trkpt>
      <trkpt lat="44.535" lon="1.51077">
        <ele>298</ele>
        <time>2021-04-09T13:19:40Z</time>
      </trkpt>
      <trkpt lat="44.53514" lon="1.5108">
        <ele>297</ele>
        <time>2021-04-09T13:19:43Z</time>
      </trkpt>
      <trkpt lat="44.53541" lon="1.51081">
        <ele>295</ele>
        <time>2021-04-09T13:19:49Z</time>
      </trkpt>
      <trkpt lat="44.53653" lon="1.51126">
        <ele>289</ele>
        <time>2021-04-09T13:20:16Z</time>
      </trkpt>
      <trkpt lat="44.53752" lon="1.51146">
        <ele>278</ele>
        <time>2021-04-09T13:20:40Z</time>
      </trkpt>
      <trkpt lat="44.5381" lon="1.51165">
        <ele>270</ele>
        <time>2021-04-09T13:20:54Z</time>
      </trkpt>
      <trkpt lat="44.53865" lon="1.51191">
        <ele>269</ele>
        <time>2021-04-09T13:21:07Z</time>
      </trkpt>
      <trkpt lat="44.53909" lon="1.51203">
        <ele>268</ele>
        <time>2021-04-09T13:21:18Z</time>
      </trkpt>
      <trkpt lat="44.53919" lon="1.51203">
        <ele>267</ele>
        <time>2021-04-09T13:21:20Z</time>
      </trkpt>
      <trkpt lat="44.53952" lon="1.51193">
        <ele>262</ele>
        <time>2021-04-09T13:21:28Z</time>
      </trkpt>
      <trkpt lat="44.53963" lon="1.51192">
        <ele>261</ele>
        <time>2021-04-09T13:21:30Z</time>
      </trkpt>
      <trkpt lat="44.53984" lon="1.51193">
        <ele>259</ele>
        <time>2021-04-09T13:21:35Z</time>
      </trkpt>
      <trkpt lat="44.54032" lon="1.51205">
        <ele>255</ele>
        <time>2021-04-09T13:21:47Z</time>
      </trkpt>
      <trkpt lat="44.54054" lon="1.51208">
        <ele>254</ele>
        <time>2021-04-09T13:21:52Z</time>
      </trkpt>
      <trkpt lat="44.54125" lon="1.51204">
        <ele>247</ele>
        <time>2021-04-09T13:22:08Z</time>
      </trkpt>
      <trkpt lat="44.54155" lon="1.512">
        <ele>243</ele>
        <time>2021-04-09T13:22:15Z</time>
      </trkpt>
      <trkpt lat="44.54176" lon="1.51193">
        <ele>241</ele>
        <time>2021-04-09T13:22:21Z</time>
      </trkpt>
      <trkpt lat="44.54197" lon="1.51181">
        <ele>238</ele>
        <time>2021-04-09T13:22:26Z</time>
      </trkpt>
      <trkpt lat="44.54199" lon="1.5117">
        <ele>236</ele>
        <time>2021-04-09T13:22:28Z</time>
      </trkpt>
      <trkpt lat="44.54194" lon="1.51158">
        <ele>236</ele>
        <time>2021-04-09T13:22:30Z</time>
      </trkpt>
      <trkpt lat="44.54196" lon="1.51142">
        <ele>237</ele>
        <time>2021-04-09T13:22:33Z</time>
      </trkpt>
      <trkpt lat="44.54219" lon="1.51149">
        <ele>236</ele>
        <time>2021-04-09T13:22:38Z</time>
      </trkpt>
      <trkpt lat="44.54245" lon="1.51153">
        <ele>235</ele>
        <time>2021-04-09T13:22:44Z</time>
      </trkpt>
      <trkpt lat="44.5427" lon="1.5115">
        <ele>236</ele>
        <time>2021-04-09T13:22:50Z</time>
      </trkpt>
      <trkpt lat="44.54334" lon="1.51151">
        <ele>236</ele>
        <time>2021-04-09T13:23:05Z</time>
      </trkpt>
      <trkpt lat="44.54368" lon="1.51158">
        <ele>234</ele>
        <time>2021-04-09T13:23:13Z</time>
      </trkpt>
      <trkpt lat="44.54407" lon="1.5117">
        <ele>230</ele>
        <time>2021-04-09T13:23:22Z</time>
      </trkpt>
      <trkpt lat="44.54464" lon="1.5122">
        <ele>230</ele>
        <time>2021-04-09T13:23:38Z</time>
      </trkpt>
      <trkpt lat="44.54486" lon="1.51233">
        <ele>228</ele>
        <time>2021-04-09T13:23:44Z</time>
      </trkpt>
      <trkpt lat="44.54498" lon="1.51244">
        <ele>225</ele>
        <time>2021-04-09T13:23:47Z</time>
      </trkpt>
      <trkpt lat="44.54508" lon="1.51259">
        <ele>226</ele>
        <time>2021-04-09T13:23:51Z</time>
      </trkpt>
      <trkpt lat="44.54522" lon="1.51284">
        <ele>227</ele>
        <time>2021-04-09T13:23:56Z</time>
      </trkpt>
      <trkpt lat="44.54534" lon="1.51315">
        <ele>225</ele>
        <time>2021-04-09T13:24:02Z</time>
      </trkpt>
      <trkpt lat="44.54549" lon="1.51377">
        <ele>222</ele>
        <time>2021-04-09T13:24:13Z</time>
      </trkpt>
      <trkpt lat="44.54557" lon="1.51391">
        <ele>220</ele>
        <time>2021-04-09T13:24:16Z</time>
      </trkpt>
      <trkpt lat="44.54574" lon="1.51433">
        <ele>216</ele>
        <time>2021-04-09T13:24:24Z</time>
      </trkpt>
      <trkpt lat="44.54595" lon="1.51427">
        <ele>214</ele>
        <time>2021-04-09T13:24:29Z</time>
      </trkpt>
      <trkpt lat="44.5464" lon="1.5139">
        <ele>216</ele>
        <time>2021-04-09T13:24:41Z</time>
      </trkpt>
      <trkpt lat="44.54678" lon="1.51326">
        <ele>220</ele>
        <time>2021-04-09T13:24:55Z</time>
      </trkpt>
      <trkpt lat="44.54691" lon="1.51316">
        <ele>221</ele>
        <time>2021-04-09T13:24:58Z</time>
      </trkpt>
      <trkpt lat="44.5472" lon="1.51302">
        <ele>219</ele>
        <time>2021-04-09T13:25:05Z</time>
      </trkpt>
      <trkpt lat="44.54728" lon="1.51295">
        <ele>219</ele>
        <time>2021-04-09T13:25:07Z</time>
      </trkpt>
      <trkpt lat="44.5474" lon="1.51265">
        <ele>221</ele>
        <time>2021-04-09T13:25:13Z</time>
      </trkpt>
      <trkpt lat="44.54753" lon="1.51241">
        <ele>223</ele>
        <time>2021-04-09T13:25:18Z</time>
      </trkpt>
      <trkpt lat="44.54774" lon="1.51224">
        <ele>225</ele>
        <time>2021-04-09T13:25:24Z</time>
      </trkpt>
      <trkpt lat="44.54786" lon="1.51219">
        <ele>225</ele>
        <time>2021-04-09T13:25:27Z</time>
      </trkpt>
      <trkpt lat="44.54796" lon="1.5121">
        <ele>225</ele>
        <time>2021-04-09T13:25:30Z</time>
      </trkpt>
      <trkpt lat="44.54837" lon="1.51155">
        <ele>225</ele>
        <time>2021-04-09T13:25:43Z</time>
      </trkpt>
      <trkpt lat="44.54846" lon="1.51152">
        <ele>225</ele>
        <time>2021-04-09T13:25:45Z</time>
      </trkpt>
      <trkpt lat="44.54864" lon="1.51189">
        <ele>220</ele>
        <time>2021-04-09T13:25:52Z</time>
      </trkpt>
      <trkpt lat="44.54874" lon="1.51198">
        <ele>219</ele>
        <time>2021-04-09T13:25:55Z</time>
      </trkpt>
      <trkpt lat="44.54889" lon="1.51206">
        <ele>219</ele>
        <time>2021-04-09T13:25:59Z</time>
      </trkpt>
      <trkpt lat="44.54893" lon="1.51203">
        <ele>219</ele>
        <time>2021-04-09T13:26:00Z</time>
      </trkpt>
      <trkpt lat="44.54907" lon="1.51177">
        <ele>218</ele>
        <time>2021-04-09T13:26:05Z</time>
      </trkpt>
      <trkpt lat="44.54916" lon="1.51139">
        <ele>218</ele>
        <time>2021-04-09T13:26:12Z</time>
      </trkpt>
      <trkpt lat="44.54894" lon="1.51087">
        <ele>225</ele>
        <time>2021-04-09T13:26:22Z</time>
      </trkpt>
      <trkpt lat="44.54887" lon="1.51018">
        <ele>226</ele>
        <time>2021-04-09T13:26:34Z</time>
      </trkpt>
      <trkpt lat="44.54887" lon="1.50972">
        <ele>226</ele>
        <time>2021-04-09T13:26:41Z</time>
      </trkpt>
      <trkpt lat="44.54881" lon="1.50945">
        <ele>227</ele>
        <time>2021-04-09T13:26:46Z</time>
      </trkpt>
      <trkpt lat="44.54882" lon="1.50924">
        <ele>226</ele>
        <time>2021-04-09T13:26:50Z</time>
      </trkpt>
      <trkpt lat="44.54879" lon="1.50898">
        <ele>226</ele>
        <time>2021-04-09T13:26:54Z</time>
      </trkpt>
      <trkpt lat="44.54871" lon="1.50871">
        <ele>227</ele>
        <time>2021-04-09T13:26:59Z</time>
      </trkpt>
      <trkpt lat="44.5487" lon="1.50857">
        <ele>227</ele>
        <time>2021-04-09T13:27:01Z</time>
      </trkpt>
      <trkpt lat="44.54885" lon="1.50806">
        <ele>227</ele>
        <time>2021-04-09T13:27:10Z</time>
      </trkpt>
      <trkpt lat="44.549" lon="1.50768">
        <ele>228</ele>
        <time>2021-04-09T13:27:18Z</time>
      </trkpt>
      <trkpt lat="44.54924" lon="1.50691">
        <ele>235</ele>
        <time>2021-04-09T13:27:32Z</time>
      </trkpt>
      <trkpt lat="44.54939" lon="1.50661">
        <ele>236</ele>
        <time>2021-04-09T13:27:38Z</time>
      </trkpt>
      <trkpt lat="44.54949" lon="1.5065">
        <ele>235</ele>
        <time>2021-04-09T13:27:41Z</time>
      </trkpt>
      <trkpt lat="44.54957" lon="1.50632">
        <ele>237</ele>
        <time>2021-04-09T13:27:44Z</time>
      </trkpt>
      <trkpt lat="44.54964" lon="1.50624">
        <ele>236</ele>
        <time>2021-04-09T13:27:46Z</time>
      </trkpt>
      <trkpt lat="44.55021" lon="1.50576">
        <ele>231</ele>
        <time>2021-04-09T13:28:02Z</time>
      </trkpt>
      <trkpt lat="44.55055" lon="1.50541">
        <ele>233</ele>
        <time>2021-04-09T13:28:12Z</time>
      </trkpt>
      <trkpt lat="44.55076" lon="1.50536">
        <ele>231</ele>
        <time>2021-04-09T13:28:17Z</time>
      </trkpt>
      <trkpt lat="44.55092" lon="1.50506">
        <ele>233</ele>
        <time>2021-04-09T13:28:23Z</time>
      </trkpt>
      <trkpt lat="44.55131" lon="1.50496">
        <ele>231</ele>
        <time>2021-04-09T13:28:32Z</time>
      </trkpt>
      <trkpt lat="44.55177" lon="1.50476">
        <ele>231</ele>
        <time>2021-04-09T13:28:43Z</time>
      </trkpt>
      <trkpt lat="44.5522" lon="1.50437">
        <ele>232</ele>
        <time>2021-04-09T13:28:55Z</time>
      </trkpt>
      <trkpt lat="44.55237" lon="1.50408">
        <ele>233</ele>
        <time>2021-04-09T13:29:02Z</time>
      </trkpt>
      <trkpt lat="44.55266" lon="1.50344">
        <ele>236</ele>
        <time>2021-04-09T13:29:14Z</time>
      </trkpt>
      <trkpt lat="44.553" lon="1.50221">
        <ele>237</ele>
        <time>2021-04-09T13:29:36Z</time>
      </trkpt>
      <trkpt lat="44.55318" lon="1.5017">
        <ele>236</ele>
        <time>2021-04-09T13:29:46Z</time>
      </trkpt>
      <trkpt lat="44.55325" lon="1.50122">
        <ele>237</ele>
        <time>2021-04-09T13:29:54Z</time>
      </trkpt>
      <trkpt lat="44.55319" lon="1.50071">
        <ele>241</ele>
        <time>2021-04-09T13:30:02Z</time>
      </trkpt>
      <trkpt lat="44.55312" lon="1.50042">
        <ele>243</ele>
        <time>2021-04-09T13:30:08Z</time>
      </trkpt>
      <trkpt lat="44.55303" lon="1.5002">
        <ele>246</ele>
        <time>2021-04-09T13:30:12Z</time>
      </trkpt>
      <trkpt lat="44.5529" lon="1.49997">
        <ele>249</ele>
        <time>2021-04-09T13:30:17Z</time>
      </trkpt>
      <trkpt lat="44.55285" lon="1.49964">
        <ele>251</ele>
        <time>2021-04-09T13:30:22Z</time>
      </trkpt>
      <trkpt lat="44.5529" lon="1.49762">
        <ele>250</ele>
        <time>2021-04-09T13:30:56Z</time>
      </trkpt>
      <trkpt lat="44.55306" lon="1.49634">
        <ele>243</ele>
        <time>2021-04-09T13:31:18Z</time>
      </trkpt>
      <trkpt lat="44.55294" lon="1.49574">
        <ele>243</ele>
        <time>2021-04-09T13:31:28Z</time>
      </trkpt>
      <trkpt lat="44.55295" lon="1.49545">
        <ele>245</ele>
        <time>2021-04-09T13:31:33Z</time>
      </trkpt>
      <trkpt lat="44.55307" lon="1.49499">
        <ele>245</ele>
        <time>2021-04-09T13:31:41Z</time>
      </trkpt>
      <trkpt lat="44.55329" lon="1.49436">
        <ele>238</ele>
        <time>2021-04-09T13:31:53Z</time>
      </trkpt>
      <trkpt lat="44.55331" lon="1.49422">
        <ele>238</ele>
        <time>2021-04-09T13:31:55Z</time>
      </trkpt>
      <trkpt lat="44.55327" lon="1.49405">
        <ele>238</ele>
        <time>2021-04-09T13:31:58Z</time>
      </trkpt>
      <trkpt lat="44.55291" lon="1.49358">
        <ele>242</ele>
        <time>2021-04-09T13:32:09Z</time>
      </trkpt>
      <trkpt lat="44.5529" lon="1.49353">
        <ele>242</ele>
        <time>2021-04-09T13:32:10Z</time>
      </trkpt>
      <trkpt lat="44.55301" lon="1.4932">
        <ele>241</ele>
        <time>2021-04-09T13:32:16Z</time>
      </trkpt>
      <trkpt lat="44.55314" lon="1.49293">
        <ele>245</ele>
        <time>2021-04-09T13:32:22Z</time>
      </trkpt>
      <trkpt lat="44.55321" lon="1.49288">
        <ele>246</ele>
        <time>2021-04-09T13:32:24Z</time>
      </trkpt>
      <trkpt lat="44.55351" lon="1.49307">
        <ele>242</ele>
        <time>2021-04-09T13:32:31Z</time>
      </trkpt>
      <trkpt lat="44.55364" lon="1.49302">
        <ele>242</ele>
        <time>2021-04-09T13:32:34Z</time>
      </trkpt>
      <trkpt lat="44.55411" lon="1.49188">
        <ele>254</ele>
        <time>2021-04-09T13:32:56Z</time>
      </trkpt>
      <trkpt lat="44.55434" lon="1.49117">
        <ele>262</ele>
        <time>2021-04-09T13:33:09Z</time>
      </trkpt>
      <trkpt lat="44.55481" lon="1.49018">
        <ele>254</ele>
        <time>2021-04-09T13:33:29Z</time>
      </trkpt>
      <trkpt lat="44.5549" lon="1.48985">
        <ele>252</ele>
        <time>2021-04-09T13:33:35Z</time>
      </trkpt>
      <trkpt lat="44.55499" lon="1.48976">
        <ele>249</ele>
        <time>2021-04-09T13:33:38Z</time>
      </trkpt>
      <trkpt lat="44.55529" lon="1.48967">
        <ele>248</ele>
        <time>2021-04-09T13:33:45Z</time>
      </trkpt>
      <trkpt lat="44.55573" lon="1.48944">
        <ele>250</ele>
        <time>2021-04-09T13:33:56Z</time>
      </trkpt>
      <trkpt lat="44.55619" lon="1.4891">
        <ele>252</ele>
        <time>2021-04-09T13:34:08Z</time>
      </trkpt>
      <trkpt lat="44.55658" lon="1.48871">
        <ele>257</ele>
        <time>2021-04-09T13:34:19Z</time>
      </trkpt>
      <trkpt lat="44.55736" lon="1.48821">
        <ele>256</ele>
        <time>2021-04-09T13:34:39Z</time>
      </trkpt>
      <trkpt lat="44.55762" lon="1.48801">
        <ele>257</ele>
        <time>2021-04-09T13:34:46Z</time>
      </trkpt>
      <trkpt lat="44.5578" lon="1.48779">
        <ele>259</ele>
        <time>2021-04-09T13:34:52Z</time>
      </trkpt>
      <trkpt lat="44.55812" lon="1.48726">
        <ele>262</ele>
        <time>2021-04-09T13:35:03Z</time>
      </trkpt>
      <trkpt lat="44.55847" lon="1.48681">
        <ele>264</ele>
        <time>2021-04-09T13:35:14Z</time>
      </trkpt>
      <trkpt lat="44.55902" lon="1.48617">
        <ele>260</ele>
        <time>2021-04-09T13:35:31Z</time>
      </trkpt>
      <trkpt lat="44.5591" lon="1.48615">
        <ele>258</ele>
        <time>2021-04-09T13:35:33Z</time>
      </trkpt>
      <trkpt lat="44.55922" lon="1.4863">
        <ele>256</ele>
        <time>2021-04-09T13:35:37Z</time>
      </trkpt>
      <trkpt lat="44.55936" lon="1.48654">
        <ele>255</ele>
        <time>2021-04-09T13:35:42Z</time>
      </trkpt>
      <trkpt lat="44.55935" lon="1.48676">
        <ele>253</ele>
        <time>2021-04-09T13:35:45Z</time>
      </trkpt>
      <trkpt lat="44.5593" lon="1.48692">
        <ele>253</ele>
        <time>2021-04-09T13:35:48Z</time>
      </trkpt>
      <trkpt lat="44.55944" lon="1.48703">
        <ele>253</ele>
        <time>2021-04-09T13:35:52Z</time>
      </trkpt>
      <trkpt lat="44.55958" lon="1.48699">
        <ele>254</ele>
        <time>2021-04-09T13:35:55Z</time>
      </trkpt>
      <trkpt lat="44.5603" lon="1.4865">
        <ele>259</ele>
        <time>2021-04-09T13:36:14Z</time>
      </trkpt>
      <trkpt lat="44.56069" lon="1.48631">
        <ele>265</ele>
        <time>2021-04-09T13:36:24Z</time>
      </trkpt>
      <trkpt lat="44.56105" lon="1.48623">
        <ele>268</ele>
        <time>2021-04-09T13:36:32Z</time>
      </trkpt>
      <trkpt lat="44.56175" lon="1.48614">
        <ele>270</ele>
        <time>2021-04-09T13:36:49Z</time>
      </trkpt>
      <trkpt lat="44.56197" lon="1.48617">
        <ele>271</ele>
        <time>2021-04-09T13:36:54Z</time>
      </trkpt>
      <trkpt lat="44.56221" lon="1.48625">
        <ele>270</ele>
        <time>2021-04-09T13:37:00Z</time>
      </trkpt>
      <trkpt lat="44.56253" lon="1.48664">
        <ele>265</ele>
        <time>2021-04-09T13:37:09Z</time>
      </trkpt>
      <trkpt lat="44.56276" lon="1.48678">
        <ele>265</ele>
        <time>2021-04-09T13:37:15Z</time>
      </trkpt>
      <trkpt lat="44.56287" lon="1.48681">
        <ele>266</ele>
        <time>2021-04-09T13:37:18Z</time>
      </trkpt>
      <trkpt lat="44.56309" lon="1.48682">
        <ele>267</ele>
        <time>2021-04-09T13:37:23Z</time>
      </trkpt>
      <trkpt lat="44.56331" lon="1.48679">
        <ele>268</ele>
        <time>2021-04-09T13:37:28Z</time>
      </trkpt>
      <trkpt lat="44.56342" lon="1.48681">
        <ele>267</ele>
        <time>2021-04-09T13:37:31Z</time>
      </trkpt>
      <trkpt lat="44.56356" lon="1.48694">
        <ele>266</ele>
        <time>2021-04-09T13:37:35Z</time>
      </trkpt>
      <trkpt lat="44.56365" lon="1.48716">
        <ele>265</ele>
        <time>2021-04-09T13:37:39Z</time>
      </trkpt>
      <trkpt lat="44.56367" lon="1.48732">
        <ele>265</ele>
        <time>2021-04-09T13:37:42Z</time>
      </trkpt>
      <trkpt lat="44.56357" lon="1.48746">
        <ele>264</ele>
        <time>2021-04-09T13:37:45Z</time>
      </trkpt>
      <trkpt lat="44.56343" lon="1.48753">
        <ele>263</ele>
        <time>2021-04-09T13:37:48Z</time>
      </trkpt>
      <trkpt lat="44.56335" lon="1.48751">
        <ele>262</ele>
        <time>2021-04-09T13:37:50Z</time>
      </trkpt>
      <trkpt lat="44.56244" lon="1.48755">
        <ele>266</ele>
        <time>2021-04-09T13:38:12Z</time>
      </trkpt>
      <trkpt lat="44.56212" lon="1.48746">
        <ele>266</ele>
        <time>2021-04-09T13:38:19Z</time>
      </trkpt>
      <trkpt lat="44.5616" lon="1.48724">
        <ele>266</ele>
        <time>2021-04-09T13:38:32Z</time>
      </trkpt>
      <trkpt lat="44.56126" lon="1.48723">
        <ele>264</ele>
        <time>2021-04-09T13:38:40Z</time>
      </trkpt>
      <trkpt lat="44.56111" lon="1.48725">
        <ele>263</ele>
        <time>2021-04-09T13:38:43Z</time>
      </trkpt>
      <trkpt lat="44.56039" lon="1.48763">
        <ele>261</ele>
        <time>2021-04-09T13:39:01Z</time>
      </trkpt>
      <trkpt lat="44.55976" lon="1.48804">
        <ele>261</ele>
        <time>2021-04-09T13:39:18Z</time>
      </trkpt>
      <trkpt lat="44.55901" lon="1.48846">
        <ele>259</ele>
        <time>2021-04-09T13:39:36Z</time>
      </trkpt>
      <trkpt lat="44.55871" lon="1.48854">
        <ele>257</ele>
        <time>2021-04-09T13:39:43Z</time>
      </trkpt>
      <trkpt lat="44.55862" lon="1.48854">
        <ele>256</ele>
        <time>2021-04-09T13:39:46Z</time>
      </trkpt>
      <trkpt lat="44.55854" lon="1.48851">
        <ele>254</ele>
        <time>2021-04-09T13:39:48Z</time>
      </trkpt>
      <trkpt lat="44.55844" lon="1.48852">
        <ele>253</ele>
        <time>2021-04-09T13:39:50Z</time>
      </trkpt>
      <trkpt lat="44.55817" lon="1.48874">
        <ele>255</ele>
        <time>2021-04-09T13:39:57Z</time>
      </trkpt>
      <trkpt lat="44.55775" lon="1.48922">
        <ele>253</ele>
        <time>2021-04-09T13:40:10Z</time>
      </trkpt>
      <trkpt lat="44.55751" lon="1.48943">
        <ele>249</ele>
        <time>2021-04-09T13:40:16Z</time>
      </trkpt>
      <trkpt lat="44.55712" lon="1.48972">
        <ele>246</ele>
        <time>2021-04-09T13:40:27Z</time>
      </trkpt>
      <trkpt lat="44.55671" lon="1.49013">
        <ele>244</ele>
        <time>2021-04-09T13:40:38Z</time>
      </trkpt>
      <trkpt lat="44.55629" lon="1.4904">
        <ele>248</ele>
        <time>2021-04-09T13:40:49Z</time>
      </trkpt>
      <trkpt lat="44.556" lon="1.49053">
        <ele>248</ele>
        <time>2021-04-09T13:40:56Z</time>
      </trkpt>
      <trkpt lat="44.55565" lon="1.49074">
        <ele>248</ele>
        <time>2021-04-09T13:41:05Z</time>
      </trkpt>
      <trkpt lat="44.55548" lon="1.49098">
        <ele>249</ele>
        <time>2021-04-09T13:41:11Z</time>
      </trkpt>
      <trkpt lat="44.55526" lon="1.49159">
        <ele>252</ele>
        <time>2021-04-09T13:41:22Z</time>
      </trkpt>
      <trkpt lat="44.55428" lon="1.4939">
        <ele>247</ele>
        <time>2021-04-09T13:42:07Z</time>
      </trkpt>
      <trkpt lat="44.55423" lon="1.49399">
        <ele>246</ele>
        <time>2021-04-09T13:42:09Z</time>
      </trkpt>
      <trkpt lat="44.55411" lon="1.49412">
        <ele>244</ele>
        <time>2021-04-09T13:42:12Z</time>
      </trkpt>
      <trkpt lat="44.55395" lon="1.49417">
        <ele>243</ele>
        <time>2021-04-09T13:42:16Z</time>
      </trkpt>
      <trkpt lat="44.55388" lon="1.49424">
        <ele>243</ele>
        <time>2021-04-09T13:42:18Z</time>
      </trkpt>
      <trkpt lat="44.55387" lon="1.49436">
        <ele>243</ele>
        <time>2021-04-09T13:42:20Z</time>
      </trkpt>
      <trkpt lat="44.55397" lon="1.49485">
        <ele>246</ele>
        <time>2021-04-09T13:42:29Z</time>
      </trkpt>
      <trkpt lat="44.55395" lon="1.49526">
        <ele>248</ele>
        <time>2021-04-09T13:42:36Z</time>
      </trkpt>
      <trkpt lat="44.55374" lon="1.49632">
        <ele>250</ele>
        <time>2021-04-09T13:42:54Z</time>
      </trkpt>
      <trkpt lat="44.55367" lon="1.49657">
        <ele>250</ele>
        <time>2021-04-09T13:42:58Z</time>
      </trkpt>
      <trkpt lat="44.55344" lon="1.49714">
        <ele>244</ele>
        <time>2021-04-09T13:43:09Z</time>
      </trkpt>
      <trkpt lat="44.55333" lon="1.4978">
        <ele>240</ele>
        <time>2021-04-09T13:43:21Z</time>
      </trkpt>
      <trkpt lat="44.55332" lon="1.49813">
        <ele>240</ele>
        <time>2021-04-09T13:43:26Z</time>
      </trkpt>
      <trkpt lat="44.55336" lon="1.49867">
        <ele>239</ele>
        <time>2021-04-09T13:43:35Z</time>
      </trkpt>
      <trkpt lat="44.55347" lon="1.49943">
        <ele>242</ele>
        <time>2021-04-09T13:43:48Z</time>
      </trkpt>
      <trkpt lat="44.55345" lon="1.50027">
        <ele>241</ele>
        <time>2021-04-09T13:44:02Z</time>
      </trkpt>
      <trkpt lat="44.55347" lon="1.50059">
        <ele>242</ele>
        <time>2021-04-09T13:44:07Z</time>
      </trkpt>
      <trkpt lat="44.55357" lon="1.50097">
        <ele>243</ele>
        <time>2021-04-09T13:44:14Z</time>
      </trkpt>
      <trkpt lat="44.55387" lon="1.50179">
        <ele>242</ele>
        <time>2021-04-09T13:44:29Z</time>
      </trkpt>
      <trkpt lat="44.55395" lon="1.50197">
        <ele>242</ele>
        <time>2021-04-09T13:44:33Z</time>
      </trkpt>
      <trkpt lat="44.55405" lon="1.50205">
        <ele>243</ele>
        <time>2021-04-09T13:44:36Z</time>
      </trkpt>
      <trkpt lat="44.55422" lon="1.50209">
        <ele>246</ele>
        <time>2021-04-09T13:44:40Z</time>
      </trkpt>
      <trkpt lat="44.55432" lon="1.50216">
        <ele>248</ele>
        <time>2021-04-09T13:44:42Z</time>
      </trkpt>
      <trkpt lat="44.55459" lon="1.50243">
        <ele>252</ele>
        <time>2021-04-09T13:44:50Z</time>
      </trkpt>
      <trkpt lat="44.55469" lon="1.50259">
        <ele>254</ele>
        <time>2021-04-09T13:44:54Z</time>
      </trkpt>
      <trkpt lat="44.55483" lon="1.50291">
        <ele>258</ele>
        <time>2021-04-09T13:45:00Z</time>
      </trkpt>
      <trkpt lat="44.55497" lon="1.50312">
        <ele>261</ele>
        <time>2021-04-09T13:45:05Z</time>
      </trkpt>
      <trkpt lat="44.55523" lon="1.50345">
        <ele>269</ele>
        <time>2021-04-09T13:45:13Z</time>
      </trkpt>
      <trkpt lat="44.55541" lon="1.50358">
        <ele>274</ele>
        <time>2021-04-09T13:45:18Z</time>
      </trkpt>
      <trkpt lat="44.55549" lon="1.50361">
        <ele>276</ele>
        <time>2021-04-09T13:45:19Z</time>
      </trkpt>
      <trkpt lat="44.55554" lon="1.50367">
        <ele>277</ele>
        <time>2021-04-09T13:45:21Z</time>
      </trkpt>
      <trkpt lat="44.55555" lon="1.50372">
        <ele>278</ele>
        <time>2021-04-09T13:45:22Z</time>
      </trkpt>
      <trkpt lat="44.55553" lon="1.50376">
        <ele>278</ele>
        <time>2021-04-09T13:45:23Z</time>
      </trkpt>
      <trkpt lat="44.55541" lon="1.50387">
        <ele>278</ele>
        <time>2021-04-09T13:45:26Z</time>
      </trkpt>
      <trkpt lat="44.55505" lon="1.50399">
        <ele>275</ele>
        <time>2021-04-09T13:45:35Z</time>
      </trkpt>
      <trkpt lat="44.55487" lon="1.50402">
        <ele>272</ele>
        <time>2021-04-09T13:45:39Z</time>
      </trkpt>
      <trkpt lat="44.55476" lon="1.504">
        <ele>270</ele>
        <time>2021-04-09T13:45:41Z</time>
      </trkpt>
      <trkpt lat="44.55475" lon="1.50405">
        <ele>270</ele>
        <time>2021-04-09T13:45:42Z</time>
      </trkpt>
      <trkpt lat="44.55553" lon="1.50451">
        <ele>291</ele>
        <time>2021-04-09T13:46:02Z</time>
      </trkpt>
      <trkpt lat="44.55556" lon="1.50455">
        <ele>293</ele>
        <time>2021-04-09T13:46:03Z</time>
      </trkpt>
      <trkpt lat="44.556" lon="1.50466">
        <ele>299</ele>
        <time>2021-04-09T13:46:13Z</time>
      </trkpt>
      <trkpt lat="44.55616" lon="1.50464">
        <ele>301</ele>
        <time>2021-04-09T13:46:17Z</time>
      </trkpt>
      <trkpt lat="44.55644" lon="1.50456">
        <ele>303</ele>
        <time>2021-04-09T13:46:24Z</time>
      </trkpt>
      <trkpt lat="44.55668" lon="1.50455">
        <ele>306</ele>
        <time>2021-04-09T13:46:30Z</time>
      </trkpt>
      <trkpt lat="44.55685" lon="1.50447">
        <ele>305</ele>
        <time>2021-04-09T13:46:34Z</time>
      </trkpt>
      <trkpt lat="44.55718" lon="1.50442">
        <ele>306</ele>
        <time>2021-04-09T13:46:41Z</time>
      </trkpt>
      <trkpt lat="44.55782" lon="1.50344">
        <ele>313</ele>
        <time>2021-04-09T13:47:04Z</time>
      </trkpt>
      <trkpt lat="44.55798" lon="1.5033">
        <ele>316</ele>
        <time>2021-04-09T13:47:08Z</time>
      </trkpt>
      <trkpt lat="44.5585" lon="1.50264">
        <ele>322</ele>
        <time>2021-04-09T13:47:24Z</time>
      </trkpt>
      <trkpt lat="44.55869" lon="1.50244">
        <ele>325</ele>
        <time>2021-04-09T13:47:30Z</time>
      </trkpt>
      <trkpt lat="44.55933" lon="1.50185">
        <ele>332</ele>
        <time>2021-04-09T13:47:48Z</time>
      </trkpt>
      <trkpt lat="44.55946" lon="1.50168">
        <ele>333</ele>
        <time>2021-04-09T13:47:52Z</time>
      </trkpt>
      <trkpt lat="44.55985" lon="1.50132">
        <ele>336</ele>
        <time>2021-04-09T13:48:03Z</time>
      </trkpt>
      <trkpt lat="44.56014" lon="1.50097">
        <ele>339</ele>
        <time>2021-04-09T13:48:12Z</time>
      </trkpt>
      <trkpt lat="44.56032" lon="1.50071">
        <ele>341</ele>
        <time>2021-04-09T13:48:18Z</time>
      </trkpt>
      <trkpt lat="44.56068" lon="1.50011">
        <ele>347</ele>
        <time>2021-04-09T13:48:31Z</time>
      </trkpt>
      <trkpt lat="44.56064" lon="1.50015">
        <ele>346</ele>
        <time>2021-04-09T13:48:32Z</time>
      </trkpt>
      <trkpt lat="44.56068" lon="1.50012">
        <ele>346</ele>
        <time>2021-04-09T13:48:33Z</time>
      </trkpt>
      <trkpt lat="44.56063" lon="1.50013">
        <ele>346</ele>
        <time>2021-04-09T13:48:34Z</time>
      </trkpt>
      <trkpt lat="44.56061" lon="1.5002">
        <ele>345</ele>
        <time>2021-04-09T13:48:36Z</time>
      </trkpt>
      <trkpt lat="44.56077" lon="1.49996">
        <ele>348</ele>
        <time>2021-04-09T13:48:41Z</time>
      </trkpt>
      <trkpt lat="44.56088" lon="1.49989">
        <ele>349</ele>
        <time>2021-04-09T13:48:44Z</time>
      </trkpt>
      <trkpt lat="44.56095" lon="1.49981">
        <ele>349</ele>
        <time>2021-04-09T13:48:46Z</time>
      </trkpt>
      <trkpt lat="44.56106" lon="1.49975">
        <ele>350</ele>
        <time>2021-04-09T13:48:49Z</time>
      </trkpt>
      <trkpt lat="44.56126" lon="1.49975">
        <ele>350</ele>
        <time>2021-04-09T13:48:53Z</time>
      </trkpt>
      <trkpt lat="44.56136" lon="1.49978">
        <ele>350</ele>
        <time>2021-04-09T13:48:56Z</time>
      </trkpt>
      <trkpt lat="44.5626" lon="1.50031">
        <ele>346</ele>
        <time>2021-04-09T13:49:26Z</time>
      </trkpt>
      <trkpt lat="44.56312" lon="1.50062">
        <ele>344</ele>
        <time>2021-04-09T13:49:39Z</time>
      </trkpt>
      <trkpt lat="44.56388" lon="1.5012">
        <ele>344</ele>
        <time>2021-04-09T13:49:59Z</time>
      </trkpt>
      <trkpt lat="44.56379" lon="1.50168">
        <ele>344</ele>
        <time>2021-04-09T13:50:08Z</time>
      </trkpt>
      <trkpt lat="44.56366" lon="1.50197">
        <ele>340</ele>
        <time>2021-04-09T13:50:13Z</time>
      </trkpt>
      <trkpt lat="44.56364" lon="1.50213">
        <ele>338</ele>
        <time>2021-04-09T13:50:16Z</time>
      </trkpt>
      <trkpt lat="44.56367" lon="1.50252">
        <ele>334</ele>
        <time>2021-04-09T13:50:23Z</time>
      </trkpt>
      <trkpt lat="44.56365" lon="1.50264">
        <ele>331</ele>
        <time>2021-04-09T13:50:25Z</time>
      </trkpt>
      <trkpt lat="44.56371" lon="1.50317">
        <ele>322</ele>
        <time>2021-04-09T13:50:34Z</time>
      </trkpt>
      <trkpt lat="44.56381" lon="1.50341">
        <ele>319</ele>
        <time>2021-04-09T13:50:38Z</time>
      </trkpt>
      <trkpt lat="44.56391" lon="1.50353">
        <ele>320</ele>
        <time>2021-04-09T13:50:41Z</time>
      </trkpt>
      <trkpt lat="44.56402" lon="1.50372">
        <ele>320</ele>
        <time>2021-04-09T13:50:45Z</time>
      </trkpt>
      <trkpt lat="44.56403" lon="1.50384">
        <ele>319</ele>
        <time>2021-04-09T13:50:47Z</time>
      </trkpt>
      <trkpt lat="44.56393" lon="1.50415">
        <ele>313</ele>
        <time>2021-04-09T13:50:53Z</time>
      </trkpt>
      <trkpt lat="44.56354" lon="1.50481">
        <ele>300</ele>
        <time>2021-04-09T13:51:07Z</time>
      </trkpt>
      <trkpt lat="44.56352" lon="1.50499">
        <ele>298</ele>
        <time>2021-04-09T13:51:10Z</time>
      </trkpt>
      <trkpt lat="44.56355" lon="1.50527">
        <ele>294</ele>
        <time>2021-04-09T13:51:15Z</time>
      </trkpt>
      <trkpt lat="44.56374" lon="1.50566">
        <ele>292</ele>
        <time>2021-04-09T13:51:23Z</time>
      </trkpt>
      <trkpt lat="44.56405" lon="1.50607">
        <ele>292</ele>
        <time>2021-04-09T13:51:33Z</time>
      </trkpt>
      <trkpt lat="44.5642" lon="1.50631">
        <ele>289</ele>
        <time>2021-04-09T13:51:38Z</time>
      </trkpt>
      <trkpt lat="44.56434" lon="1.50662">
        <ele>282</ele>
        <time>2021-04-09T13:51:44Z</time>
      </trkpt>
      <trkpt lat="44.56466" lon="1.50713">
        <ele>282</ele>
        <time>2021-04-09T13:51:56Z</time>
      </trkpt>
      <trkpt lat="44.5647" lon="1.50785">
        <ele>285</ele>
        <time>2021-04-09T13:52:08Z</time>
      </trkpt>
      <trkpt lat="44.56484" lon="1.50864">
        <ele>292</ele>
        <time>2021-04-09T13:52:21Z</time>
      </trkpt>
      <trkpt lat="44.56502" lon="1.5093">
        <ele>292</ele>
        <time>2021-04-09T13:52:33Z</time>
      </trkpt>
      <trkpt lat="44.56513" lon="1.50982">
        <ele>292</ele>
        <time>2021-04-09T13:52:42Z</time>
      </trkpt>
      <trkpt lat="44.56516" lon="1.51015">
        <ele>293</ele>
        <time>2021-04-09T13:52:47Z</time>
      </trkpt>
      <trkpt lat="44.56521" lon="1.51039">
        <ele>294</ele>
        <time>2021-04-09T13:52:52Z</time>
      </trkpt>
      <trkpt lat="44.56516" lon="1.51097">
        <ele>296</ele>
        <time>2021-04-09T13:53:01Z</time>
      </trkpt>
      <trkpt lat="44.5652" lon="1.51103">
        <ele>298</ele>
        <time>2021-04-09T13:53:03Z</time>
      </trkpt>
      <trkpt lat="44.56536" lon="1.5109">
        <ele>297</ele>
        <time>2021-04-09T13:53:07Z</time>
      </trkpt>
      <trkpt lat="44.56557" lon="1.51067">
        <ele>298</ele>
        <time>2021-04-09T13:53:13Z</time>
      </trkpt>
      <trkpt lat="44.56564" lon="1.51066">
        <ele>299</ele>
        <time>2021-04-09T13:53:15Z</time>
      </trkpt>
      <trkpt lat="44.56568" lon="1.51069">
        <ele>299</ele>
        <time>2021-04-09T13:53:16Z</time>
      </trkpt>
      <trkpt lat="44.56571" lon="1.51079">
        <ele>299</ele>
        <time>2021-04-09T13:53:18Z</time>
      </trkpt>
      <trkpt lat="44.56565" lon="1.51091">
        <ele>299</ele>
        <time>2021-04-09T13:53:20Z</time>
      </trkpt>
      <trkpt lat="44.5654" lon="1.5112">
        <ele>302</ele>
        <time>2021-04-09T13:53:28Z</time>
      </trkpt>
      <trkpt lat="44.56495" lon="1.51158">
        <ele>305</ele>
        <time>2021-04-09T13:53:40Z</time>
      </trkpt>
      <trkpt lat="44.56453" lon="1.51183">
        <ele>314</ele>
        <time>2021-04-09T13:53:51Z</time>
      </trkpt>
      <trkpt lat="44.56433" lon="1.51189">
        <ele>317</ele>
        <time>2021-04-09T13:53:55Z</time>
      </trkpt>
      <trkpt lat="44.56417" lon="1.51199">
        <ele>319</ele>
        <time>2021-04-09T13:54:00Z</time>
      </trkpt>
      <trkpt lat="44.56388" lon="1.51245">
        <ele>328</ele>
        <time>2021-04-09T13:54:10Z</time>
      </trkpt>
      <trkpt lat="44.56382" lon="1.51245">
        <ele>328</ele>
        <time>2021-04-09T13:54:11Z</time>
      </trkpt>
      <trkpt lat="44.56377" lon="1.51241">
        <ele>329</ele>
        <time>2021-04-09T13:54:12Z</time>
      </trkpt>
      <trkpt lat="44.56378" lon="1.51231">
        <ele>328</ele>
        <time>2021-04-09T13:54:14Z</time>
      </trkpt>
      <trkpt lat="44.56385" lon="1.51214">
        <ele>325</ele>
        <time>2021-04-09T13:54:17Z</time>
      </trkpt>
      <trkpt lat="44.56384" lon="1.51206">
        <ele>324</ele>
        <time>2021-04-09T13:54:19Z</time>
      </trkpt>
      <trkpt lat="44.56381" lon="1.51203">
        <ele>324</ele>
        <time>2021-04-09T13:54:20Z</time>
      </trkpt>
      <trkpt lat="44.56375" lon="1.51202">
        <ele>325</ele>
        <time>2021-04-09T13:54:21Z</time>
      </trkpt>
      <trkpt lat="44.5635" lon="1.51222">
        <ele>330</ele>
        <time>2021-04-09T13:54:28Z</time>
      </trkpt>
      <trkpt lat="44.56318" lon="1.51235">
        <ele>335</ele>
        <time>2021-04-09T13:54:36Z</time>
      </trkpt>
      <trkpt lat="44.56318" lon="1.51243">
        <ele>336</ele>
        <time>2021-04-09T13:54:37Z</time>
      </trkpt>
      <trkpt lat="44.56338" lon="1.51317">
        <ele>336</ele>
        <time>2021-04-09T13:54:50Z</time>
      </trkpt>
      <trkpt lat="44.56353" lon="1.51404">
        <ele>338</ele>
        <time>2021-04-09T13:55:05Z</time>
      </trkpt>
      <trkpt lat="44.56374" lon="1.51473">
        <ele>342</ele>
        <time>2021-04-09T13:55:17Z</time>
      </trkpt>
      <trkpt lat="44.56385" lon="1.51496">
        <ele>343</ele>
        <time>2021-04-09T13:55:22Z</time>
      </trkpt>
      <trkpt lat="44.56403" lon="1.51517">
        <ele>344</ele>
        <time>2021-04-09T13:55:27Z</time>
      </trkpt>
      <trkpt lat="44.56413" lon="1.51535">
        <ele>346</ele>
        <time>2021-04-09T13:55:31Z</time>
      </trkpt>
      <trkpt lat="44.56429" lon="1.51553">
        <ele>350</ele>
        <time>2021-04-09T13:55:36Z</time>
      </trkpt>
      <trkpt lat="44.56447" lon="1.51565">
        <ele>353</ele>
        <time>2021-04-09T13:55:41Z</time>
      </trkpt>
      <trkpt lat="44.56468" lon="1.51568">
        <ele>356</ele>
        <time>2021-04-09T13:55:46Z</time>
      </trkpt>
      <trkpt lat="44.56476" lon="1.51567">
        <ele>356</ele>
        <time>2021-04-09T13:55:48Z</time>
      </trkpt>
      <trkpt lat="44.5649" lon="1.5156">
        <ele>357</ele>
        <time>2021-04-09T13:55:51Z</time>
      </trkpt>
      <trkpt lat="44.56517" lon="1.51535">
        <ele>357</ele>
        <time>2021-04-09T13:55:59Z</time>
      </trkpt>
      <trkpt lat="44.56529" lon="1.51511">
        <ele>356</ele>
        <time>2021-04-09T13:56:03Z</time>
      </trkpt>
      <trkpt lat="44.56534" lon="1.51479">
        <ele>356</ele>
        <time>2021-04-09T13:56:09Z</time>
      </trkpt>
      <trkpt lat="44.56528" lon="1.51409">
        <ele>355</ele>
        <time>2021-04-09T13:56:21Z</time>
      </trkpt>
      <trkpt lat="44.56531" lon="1.51399">
        <ele>354</ele>
        <time>2021-04-09T13:56:22Z</time>
      </trkpt>
      <trkpt lat="44.56539" lon="1.51389">
        <ele>355</ele>
        <time>2021-04-09T13:56:25Z</time>
      </trkpt>
      <trkpt lat="44.5658" lon="1.51387">
        <ele>360</ele>
        <time>2021-04-09T13:56:35Z</time>
      </trkpt>
      <trkpt lat="44.56608" lon="1.51382">
        <ele>359</ele>
        <time>2021-04-09T13:56:41Z</time>
      </trkpt>
      <trkpt lat="44.56635" lon="1.51373">
        <ele>358</ele>
        <time>2021-04-09T13:56:48Z</time>
      </trkpt>
      <trkpt lat="44.56662" lon="1.51358">
        <ele>357</ele>
        <time>2021-04-09T13:56:54Z</time>
      </trkpt>
      <trkpt lat="44.56695" lon="1.51326">
        <ele>352</ele>
        <time>2021-04-09T13:57:04Z</time>
      </trkpt>
      <trkpt lat="44.56723" lon="1.51308">
        <ele>349</ele>
        <time>2021-04-09T13:57:11Z</time>
      </trkpt>
      <trkpt lat="44.56797" lon="1.5128">
        <ele>347</ele>
        <time>2021-04-09T13:57:29Z</time>
      </trkpt>
      <trkpt lat="44.56844" lon="1.51258">
        <ele>347</ele>
        <time>2021-04-09T13:57:40Z</time>
      </trkpt>
      <trkpt lat="44.56864" lon="1.51258">
        <ele>347</ele>
        <time>2021-04-09T13:57:45Z</time>
      </trkpt>
      <trkpt lat="44.56882" lon="1.51264">
        <ele>347</ele>
        <time>2021-04-09T13:57:49Z</time>
      </trkpt>
      <trkpt lat="44.56994" lon="1.51286">
        <ele>352</ele>
        <time>2021-04-09T13:58:16Z</time>
      </trkpt>
      <trkpt lat="44.57039" lon="1.51283">
        <ele>354</ele>
        <time>2021-04-09T13:58:26Z</time>
      </trkpt>
      <trkpt lat="44.57073" lon="1.51277">
        <ele>354</ele>
        <time>2021-04-09T13:58:34Z</time>
      </trkpt>
      <trkpt lat="44.57096" lon="1.5127">
        <ele>354</ele>
        <time>2021-04-09T13:58:40Z</time>
      </trkpt>
      <trkpt lat="44.57133" lon="1.51268">
        <ele>355</ele>
        <time>2021-04-09T13:58:48Z</time>
      </trkpt>
      <trkpt lat="44.57164" lon="1.51272">
        <ele>356</ele>
        <time>2021-04-09T13:58:56Z</time>
      </trkpt>
      <trkpt lat="44.57181" lon="1.51277">
        <ele>357</ele>
        <time>2021-04-09T13:59:00Z</time>
      </trkpt>
      <trkpt lat="44.57191" lon="1.51283">
        <ele>358</ele>
        <time>2021-04-09T13:59:02Z</time>
      </trkpt>
      <trkpt lat="44.57238" lon="1.51291">
        <ele>359</ele>
        <time>2021-04-09T13:59:13Z</time>
      </trkpt>
      <trkpt lat="44.57266" lon="1.51303">
        <ele>360</ele>
        <time>2021-04-09T13:59:20Z</time>
      </trkpt>
      <trkpt lat="44.57278" lon="1.5132">
        <ele>361</ele>
        <time>2021-04-09T13:59:24Z</time>
      </trkpt>
      <trkpt lat="44.57298" lon="1.51361">
        <ele>363</ele>
        <time>2021-04-09T13:59:32Z</time>
      </trkpt>
      <trkpt lat="44.57305" lon="1.5137">
        <ele>364</ele>
        <time>2021-04-09T13:59:35Z</time>
      </trkpt>
      <trkpt lat="44.5733" lon="1.51388">
        <ele>365</ele>
        <time>2021-04-09T13:59:41Z</time>
      </trkpt>
      <trkpt lat="44.57337" lon="1.51396">
        <ele>365</ele>
        <time>2021-04-09T13:59:43Z</time>
      </trkpt>
      <trkpt lat="44.57338" lon="1.51413">
        <ele>365</ele>
        <time>2021-04-09T13:59:46Z</time>
      </trkpt>
      <trkpt lat="44.57309" lon="1.51501">
        <ele>367</ele>
        <time>2021-04-09T14:00:02Z</time>
      </trkpt>
      <trkpt lat="44.57293" lon="1.51534">
        <ele>367</ele>
        <time>2021-04-09T14:00:09Z</time>
      </trkpt>
      <trkpt lat="44.57283" lon="1.51544">
        <ele>367</ele>
        <time>2021-04-09T14:00:12Z</time>
      </trkpt>
      <trkpt lat="44.5725" lon="1.51559">
        <ele>371</ele>
        <time>2021-04-09T14:00:20Z</time>
      </trkpt>
      <trkpt lat="44.57237" lon="1.51561">
        <ele>371</ele>
        <time>2021-04-09T14:00:23Z</time>
      </trkpt>
      <trkpt lat="44.57194" lon="1.51561">
        <ele>370</ele>
        <time>2021-04-09T14:00:33Z</time>
      </trkpt>
      <trkpt lat="44.57115" lon="1.51585">
        <ele>368</ele>
        <time>2021-04-09T14:00:52Z</time>
      </trkpt>
      <trkpt lat="44.57043" lon="1.51599">
        <ele>365</ele>
        <time>2021-04-09T14:01:09Z</time>
      </trkpt>
      <trkpt lat="44.57041" lon="1.51601">
        <ele>365</ele>
        <time>2021-04-09T14:01:09Z</time>
      </trkpt>
      <trkpt lat="44.57043" lon="1.51616">
        <ele>364</ele>
        <time>2021-04-09T14:01:12Z</time>
      </trkpt>
      <trkpt lat="44.57081" lon="1.51729">
        <ele>358</ele>
        <time>2021-04-09T14:01:33Z</time>
      </trkpt>
      <trkpt lat="44.57083" lon="1.51755">
        <ele>357</ele>
        <time>2021-04-09T14:01:37Z</time>
      </trkpt>
      <trkpt lat="44.57074" lon="1.51789">
        <ele>357</ele>
        <time>2021-04-09T14:01:43Z</time>
      </trkpt>
      <trkpt lat="44.57074" lon="1.51781">
        <ele>357</ele>
        <time>2021-04-09T14:01:44Z</time>
      </trkpt>
      <trkpt lat="44.57081" lon="1.51762">
        <ele>357</ele>
        <time>2021-04-09T14:01:48Z</time>
      </trkpt>
      <trkpt lat="44.57083" lon="1.51748">
        <ele>357</ele>
        <time>2021-04-09T14:01:50Z</time>
      </trkpt>
      <trkpt lat="44.57076" lon="1.51736">
        <ele>357</ele>
        <time>2021-04-09T14:01:53Z</time>
      </trkpt>
      <trkpt lat="44.57058" lon="1.51722">
        <ele>357</ele>
        <time>2021-04-09T14:01:58Z</time>
      </trkpt>
      <trkpt lat="44.57036" lon="1.51721">
        <ele>356</ele>
        <time>2021-04-09T14:02:03Z</time>
      </trkpt>
      <trkpt lat="44.57007" lon="1.5173">
        <ele>353</ele>
        <time>2021-04-09T14:02:10Z</time>
      </trkpt>
      <trkpt lat="44.56971" lon="1.51733">
        <ele>347</ele>
        <time>2021-04-09T14:02:18Z</time>
      </trkpt>
      <trkpt lat="44.56941" lon="1.51727">
        <ele>343</ele>
        <time>2021-04-09T14:02:25Z</time>
      </trkpt>
      <trkpt lat="44.56936" lon="1.51728">
        <ele>342</ele>
        <time>2021-04-09T14:02:27Z</time>
      </trkpt>
      <trkpt lat="44.56929" lon="1.51736">
        <ele>339</ele>
        <time>2021-04-09T14:02:29Z</time>
      </trkpt>
      <trkpt lat="44.56912" lon="1.51748">
        <ele>333</ele>
        <time>2021-04-09T14:02:33Z</time>
      </trkpt>
      <trkpt lat="44.56896" lon="1.51751">
        <ele>331</ele>
        <time>2021-04-09T14:02:37Z</time>
      </trkpt>
      <trkpt lat="44.56883" lon="1.51759">
        <ele>330</ele>
        <time>2021-04-09T14:02:40Z</time>
      </trkpt>
      <trkpt lat="44.56873" lon="1.51772">
        <ele>328</ele>
        <time>2021-04-09T14:02:43Z</time>
      </trkpt>
      <trkpt lat="44.56877" lon="1.51787">
        <ele>327</ele>
        <time>2021-04-09T14:02:46Z</time>
      </trkpt>
      <trkpt lat="44.56847" lon="1.5181">
        <ele>319</ele>
        <time>2021-04-09T14:02:54Z</time>
      </trkpt>
      <trkpt lat="44.56839" lon="1.51821">
        <ele>316</ele>
        <time>2021-04-09T14:02:57Z</time>
      </trkpt>
      <trkpt lat="44.56811" lon="1.5188">
        <ele>315</ele>
        <time>2021-04-09T14:03:08Z</time>
      </trkpt>
      <trkpt lat="44.56796" lon="1.51901">
        <ele>315</ele>
        <time>2021-04-09T14:03:13Z</time>
      </trkpt>
      <trkpt lat="44.56784" lon="1.51927">
        <ele>312</ele>
        <time>2021-04-09T14:03:19Z</time>
      </trkpt>
      <trkpt lat="44.56778" lon="1.51947">
        <ele>309</ele>
        <time>2021-04-09T14:03:22Z</time>
      </trkpt>
      <trkpt lat="44.56768" lon="1.52005">
        <ele>299</ele>
        <time>2021-04-09T14:03:32Z</time>
      </trkpt>
      <trkpt lat="44.56725" lon="1.52123">
        <ele>291</ele>
        <time>2021-04-09T14:03:54Z</time>
      </trkpt>
      <trkpt lat="44.5671" lon="1.52158">
        <ele>292</ele>
        <time>2021-04-09T14:04:01Z</time>
      </trkpt>
      <trkpt lat="44.56696" lon="1.52204">
        <ele>288</ele>
        <time>2021-04-09T14:04:09Z</time>
      </trkpt>
      <trkpt lat="44.56684" lon="1.52289">
        <ele>277</ele>
        <time>2021-04-09T14:04:24Z</time>
      </trkpt>
      <trkpt lat="44.56686" lon="1.52333">
        <ele>270</ele>
        <time>2021-04-09T14:04:31Z</time>
      </trkpt>
      <trkpt lat="44.56672" lon="1.52381">
        <ele>262</ele>
        <time>2021-04-09T14:04:40Z</time>
      </trkpt>
      <trkpt lat="44.56673" lon="1.52407">
        <ele>258</ele>
        <time>2021-04-09T14:04:44Z</time>
      </trkpt>
      <trkpt lat="44.56678" lon="1.52435">
        <ele>258</ele>
        <time>2021-04-09T14:04:49Z</time>
      </trkpt>
      <trkpt lat="44.56682" lon="1.52481">
        <ele>262</ele>
        <time>2021-04-09T14:04:56Z</time>
      </trkpt>
      <trkpt lat="44.56687" lon="1.5249">
        <ele>263</ele>
        <time>2021-04-09T14:04:58Z</time>
      </trkpt>
      <trkpt lat="44.56746" lon="1.52458">
        <ele>263</ele>
        <time>2021-04-09T14:05:13Z</time>
      </trkpt>
      <trkpt lat="44.56764" lon="1.52454">
        <ele>264</ele>
        <time>2021-04-09T14:05:17Z</time>
      </trkpt>
      <trkpt lat="44.56852" lon="1.52449">
        <ele>269</ele>
        <time>2021-04-09T14:05:38Z</time>
      </trkpt>
      <trkpt lat="44.56897" lon="1.52443">
        <ele>269</ele>
        <time>2021-04-09T14:05:49Z</time>
      </trkpt>
      <trkpt lat="44.56922" lon="1.52448">
        <ele>270</ele>
        <time>2021-04-09T14:05:54Z</time>
      </trkpt>
      <trkpt lat="44.56983" lon="1.52472">
        <ele>273</ele>
        <time>2021-04-09T14:06:09Z</time>
      </trkpt>
      <trkpt lat="44.56996" lon="1.52474">
        <ele>273</ele>
        <time>2021-04-09T14:06:12Z</time>
      </trkpt>
      <trkpt lat="44.57014" lon="1.52469">
        <ele>274</ele>
        <time>2021-04-09T14:06:17Z</time>
      </trkpt>
      <trkpt lat="44.57042" lon="1.52456">
        <ele>275</ele>
        <time>2021-04-09T14:06:23Z</time>
      </trkpt>
      <trkpt lat="44.57083" lon="1.52445">
        <ele>276</ele>
        <time>2021-04-09T14:06:33Z</time>
      </trkpt>
      <trkpt lat="44.57143" lon="1.5242">
        <ele>276</ele>
        <time>2021-04-09T14:06:48Z</time>
      </trkpt>
      <trkpt lat="44.57163" lon="1.52406">
        <ele>277</ele>
        <time>2021-04-09T14:06:53Z</time>
      </trkpt>
      <trkpt lat="44.57187" lon="1.52387">
        <ele>280</ele>
        <time>2021-04-09T14:06:59Z</time>
      </trkpt>
      <trkpt lat="44.57213" lon="1.52362">
        <ele>280</ele>
        <time>2021-04-09T14:07:07Z</time>
      </trkpt>
      <trkpt lat="44.57222" lon="1.5235">
        <ele>279</ele>
        <time>2021-04-09T14:07:10Z</time>
      </trkpt>
      <trkpt lat="44.57243" lon="1.52312">
        <ele>276</ele>
        <time>2021-04-09T14:07:18Z</time>
      </trkpt>
      <trkpt lat="44.57256" lon="1.52299">
        <ele>275</ele>
        <time>2021-04-09T14:07:21Z</time>
      </trkpt>
      <trkpt lat="44.5726" lon="1.52297">
        <ele>275</ele>
        <time>2021-04-09T14:07:22Z</time>
      </trkpt>
      <trkpt lat="44.57289" lon="1.52298">
        <ele>276</ele>
        <time>2021-04-09T14:07:29Z</time>
      </trkpt>
      <trkpt lat="44.57319" lon="1.52276">
        <ele>276</ele>
        <time>2021-04-09T14:07:37Z</time>
      </trkpt>
      <trkpt lat="44.57324" lon="1.52258">
        <ele>275</ele>
        <time>2021-04-09T14:07:40Z</time>
      </trkpt>
      <trkpt lat="44.57324" lon="1.52241">
        <ele>275</ele>
        <time>2021-04-09T14:07:43Z</time>
      </trkpt>
      <trkpt lat="44.57337" lon="1.52214">
        <ele>278</ele>
        <time>2021-04-09T14:07:49Z</time>
      </trkpt>
      <trkpt lat="44.57388" lon="1.52147">
        <ele>293</ele>
        <time>2021-04-09T14:08:05Z</time>
      </trkpt>
      <trkpt lat="44.57409" lon="1.52114">
        <ele>293</ele>
        <time>2021-04-09T14:08:12Z</time>
      </trkpt>
      <trkpt lat="44.57431" lon="1.52062">
        <ele>294</ele>
        <time>2021-04-09T14:08:22Z</time>
      </trkpt>
      <trkpt lat="44.57449" lon="1.52005">
        <ele>296</ele>
        <time>2021-04-09T14:08:33Z</time>
      </trkpt>
      <trkpt lat="44.57484" lon="1.51936">
        <ele>293</ele>
        <time>2021-04-09T14:08:47Z</time>
      </trkpt>
      <trkpt lat="44.5753" lon="1.51887">
        <ele>293</ele>
        <time>2021-04-09T14:09:00Z</time>
      </trkpt>
      <trkpt lat="44.5758" lon="1.51856">
        <ele>296</ele>
        <time>2021-04-09T14:09:13Z</time>
      </trkpt>
      <trkpt lat="44.5763" lon="1.5183">
        <ele>298</ele>
        <time>2021-04-09T14:09:25Z</time>
      </trkpt>
      <trkpt lat="44.57648" lon="1.51818">
        <ele>301</ele>
        <time>2021-04-09T14:09:30Z</time>
      </trkpt>
      <trkpt lat="44.57661" lon="1.51805">
        <ele>304</ele>
        <time>2021-04-09T14:09:34Z</time>
      </trkpt>
      <trkpt lat="44.57676" lon="1.51799">
        <ele>306</ele>
        <time>2021-04-09T14:09:38Z</time>
      </trkpt>
      <trkpt lat="44.57707" lon="1.51796">
        <ele>308</ele>
        <time>2021-04-09T14:09:45Z</time>
      </trkpt>
      <trkpt lat="44.57736" lon="1.51786">
        <ele>311</ele>
        <time>2021-04-09T14:09:52Z</time>
      </trkpt>
      <trkpt lat="44.57753" lon="1.51791">
        <ele>312</ele>
        <time>2021-04-09T14:09:56Z</time>
      </trkpt>
      <trkpt lat="44.57774" lon="1.51793">
        <ele>312</ele>
        <time>2021-04-09T14:10:01Z</time>
      </trkpt>
      <trkpt lat="44.57792" lon="1.51801">
        <ele>313</ele>
        <time>2021-04-09T14:10:05Z</time>
      </trkpt>
      <trkpt lat="44.57863" lon="1.5182">
        <ele>312</ele>
        <time>2021-04-09T14:10:22Z</time>
      </trkpt>
      <trkpt lat="44.57883" lon="1.51829">
        <ele>311</ele>
        <time>2021-04-09T14:10:27Z</time>
      </trkpt>
      <trkpt lat="44.57896" lon="1.51826">
        <ele>311</ele>
        <time>2021-04-09T14:10:30Z</time>
      </trkpt>
      <trkpt lat="44.57916" lon="1.51826">
        <ele>311</ele>
        <time>2021-04-09T14:10:35Z</time>
      </trkpt>
      <trkpt lat="44.57929" lon="1.5183">
        <ele>310</ele>
        <time>2021-04-09T14:10:38Z</time>
      </trkpt>
      <trkpt lat="44.5794" lon="1.51838">
        <ele>311</ele>
        <time>2021-04-09T14:10:41Z</time>
      </trkpt>
      <trkpt lat="44.58029" lon="1.51863">
        <ele>319</ele>
        <time>2021-04-09T14:11:02Z</time>
      </trkpt>
      <trkpt lat="44.58081" lon="1.51866">
        <ele>322</ele>
        <time>2021-04-09T14:11:14Z</time>
      </trkpt>
      <trkpt lat="44.58104" lon="1.51871">
        <ele>323</ele>
        <time>2021-04-09T14:11:19Z</time>
      </trkpt>
      <trkpt lat="44.58151" lon="1.51873">
        <ele>325</ele>
        <time>2021-04-09T14:11:30Z</time>
      </trkpt>
      <trkpt lat="44.58215" lon="1.51882">
        <ele>330</ele>
        <time>2021-04-09T14:11:45Z</time>
      </trkpt>
      <trkpt lat="44.58222" lon="1.51881">
        <ele>331</ele>
        <time>2021-04-09T14:11:47Z</time>
      </trkpt>
      <trkpt lat="44.58238" lon="1.51884">
        <ele>332</ele>
        <time>2021-04-09T14:11:51Z</time>
      </trkpt>
      <trkpt lat="44.58254" lon="1.51882">
        <ele>334</ele>
        <time>2021-04-09T14:11:55Z</time>
      </trkpt>
      <trkpt lat="44.58282" lon="1.51886">
        <ele>337</ele>
        <time>2021-04-09T14:12:01Z</time>
      </trkpt>
      <trkpt lat="44.58299" lon="1.51884">
        <ele>340</ele>
        <time>2021-04-09T14:12:05Z</time>
      </trkpt>
      <trkpt lat="44.5831" lon="1.51879">
        <ele>341</ele>
        <time>2021-04-09T14:12:08Z</time>
      </trkpt>
      <trkpt lat="44.58324" lon="1.51877">
        <ele>343</ele>
        <time>2021-04-09T14:12:11Z</time>
      </trkpt>
      <trkpt lat="44.58341" lon="1.51879">
        <ele>345</ele>
        <time>2021-04-09T14:12:15Z</time>
      </trkpt>
      <trkpt lat="44.58347" lon="1.51877">
        <ele>346</ele>
        <time>2021-04-09T14:12:17Z</time>
      </trkpt>
      <trkpt lat="44.58374" lon="1.51877">
        <ele>349</ele>
        <time>2021-04-09T14:12:23Z</time>
      </trkpt>
      <trkpt lat="44.58417" lon="1.51884">
        <ele>353</ele>
        <time>2021-04-09T14:12:33Z</time>
      </trkpt>
      <trkpt lat="44.58444" lon="1.51894">
        <ele>356</ele>
        <time>2021-04-09T14:12:40Z</time>
      </trkpt>
      <trkpt lat="44.58465" lon="1.51873">
        <ele>359</ele>
        <time>2021-04-09T14:12:46Z</time>
      </trkpt>
      <trkpt lat="44.58482" lon="1.51867">
        <ele>361</ele>
        <time>2021-04-09T14:12:50Z</time>
      </trkpt>
      <trkpt lat="44.58492" lon="1.5186">
        <ele>362</ele>
        <time>2021-04-09T14:12:52Z</time>
      </trkpt>
      <trkpt lat="44.58501" lon="1.51858">
        <ele>363</ele>
        <time>2021-04-09T14:12:54Z</time>
      </trkpt>
      <trkpt lat="44.58511" lon="1.51851">
        <ele>363</ele>
        <time>2021-04-09T14:12:57Z</time>
      </trkpt>
      <trkpt lat="44.58556" lon="1.51842">
        <ele>365</ele>
        <time>2021-04-09T14:13:08Z</time>
      </trkpt>
      <trkpt lat="44.58609" lon="1.51847">
        <ele>370</ele>
        <time>2021-04-09T14:13:20Z</time>
      </trkpt>
      <trkpt lat="44.58638" lon="1.51847">
        <ele>372</ele>
        <time>2021-04-09T14:13:27Z</time>
      </trkpt>
      <trkpt lat="44.58642" lon="1.51842">
        <ele>372</ele>
        <time>2021-04-09T14:13:28Z</time>
      </trkpt>
      <trkpt lat="44.58647" lon="1.51827">
        <ele>373</ele>
        <time>2021-04-09T14:13:31Z</time>
      </trkpt>
      <trkpt lat="44.5865" lon="1.51802">
        <ele>376</ele>
        <time>2021-04-09T14:13:35Z</time>
      </trkpt>
      <trkpt lat="44.58653" lon="1.51794">
        <ele>377</ele>
        <time>2021-04-09T14:13:36Z</time>
      </trkpt>
      <trkpt lat="44.58678" lon="1.51778">
        <ele>381</ele>
        <time>2021-04-09T14:13:43Z</time>
      </trkpt>
      <trkpt lat="44.5869" lon="1.51766">
        <ele>383</ele>
        <time>2021-04-09T14:13:46Z</time>
      </trkpt>
      <trkpt lat="44.58695" lon="1.51749">
        <ele>385</ele>
        <time>2021-04-09T14:13:49Z</time>
      </trkpt>
      <trkpt lat="44.58694" lon="1.51746">
        <ele>386</ele>
        <time>2021-04-09T14:13:50Z</time>
      </trkpt>
      <trkpt lat="44.58681" lon="1.51739">
        <ele>386</ele>
        <time>2021-04-09T14:13:53Z</time>
      </trkpt>
      <trkpt lat="44.58674" lon="1.51719">
        <ele>388</ele>
        <time>2021-04-09T14:13:57Z</time>
      </trkpt>
      <trkpt lat="44.58612" lon="1.51611">
        <ele>397</ele>
        <time>2021-04-09T14:14:20Z</time>
      </trkpt>
      <trkpt lat="44.58609" lon="1.51604">
        <ele>397</ele>
        <time>2021-04-09T14:14:21Z</time>
      </trkpt>
      <trkpt lat="44.58611" lon="1.516">
        <ele>398</ele>
        <time>2021-04-09T14:14:22Z</time>
      </trkpt>
      <trkpt lat="44.58625" lon="1.51595">
        <ele>399</ele>
        <time>2021-04-09T14:14:26Z</time>
      </trkpt>
      <trkpt lat="44.58635" lon="1.51596">
        <ele>399</ele>
        <time>2021-04-09T14:14:28Z</time>
      </trkpt>
      <trkpt lat="44.58692" lon="1.51588">
        <ele>400</ele>
        <time>2021-04-09T14:14:41Z</time>
      </trkpt>
      <trkpt lat="44.58717" lon="1.51587">
        <ele>400</ele>
        <time>2021-04-09T14:14:47Z</time>
      </trkpt>
      <trkpt lat="44.58785" lon="1.51576">
        <ele>401</ele>
        <time>2021-04-09T14:15:03Z</time>
      </trkpt>
      <trkpt lat="44.58887" lon="1.51537">
        <ele>403</ele>
        <time>2021-04-09T14:15:28Z</time>
      </trkpt>
      <trkpt lat="44.58919" lon="1.51531">
        <ele>403</ele>
        <time>2021-04-09T14:15:35Z</time>
      </trkpt>
      <trkpt lat="44.58989" lon="1.51526">
        <ele>401</ele>
        <time>2021-04-09T14:15:52Z</time>
      </trkpt>
      <trkpt lat="44.59011" lon="1.51521">
        <ele>401</ele>
        <time>2021-04-09T14:15:57Z</time>
      </trkpt>
      <trkpt lat="44.59039" lon="1.51508">
        <ele>400</ele>
        <time>2021-04-09T14:16:04Z</time>
      </trkpt>
      <trkpt lat="44.59056" lon="1.51488">
        <ele>400</ele>
        <time>2021-04-09T14:16:09Z</time>
      </trkpt>
      <trkpt lat="44.59084" lon="1.51469">
        <ele>401</ele>
        <time>2021-04-09T14:16:16Z</time>
      </trkpt>
      <trkpt lat="44.59114" lon="1.51468">
        <ele>402</ele>
        <time>2021-04-09T14:16:23Z</time>
      </trkpt>
      <trkpt lat="44.59174" lon="1.51486">
        <ele>405</ele>
        <time>2021-04-09T14:16:38Z</time>
      </trkpt>
      <trkpt lat="44.59185" lon="1.51494">
        <ele>405</ele>
        <time>2021-04-09T14:16:40Z</time>
      </trkpt>
      <trkpt lat="44.59199" lon="1.51512">
        <ele>405</ele>
        <time>2021-04-09T14:16:45Z</time>
      </trkpt>
      <trkpt lat="44.59218" lon="1.51563">
        <ele>408</ele>
        <time>2021-04-09T14:16:54Z</time>
      </trkpt>
      <trkpt lat="44.59235" lon="1.51587">
        <ele>410</ele>
        <time>2021-04-09T14:17:00Z</time>
      </trkpt>
      <trkpt lat="44.59236" lon="1.51598">
        <ele>410</ele>
        <time>2021-04-09T14:17:02Z</time>
      </trkpt>
      <trkpt lat="44.59231" lon="1.5162">
        <ele>410</ele>
        <time>2021-04-09T14:17:06Z</time>
      </trkpt>
      <trkpt lat="44.5923" lon="1.51639">
        <ele>410</ele>
        <time>2021-04-09T14:17:09Z</time>
      </trkpt>
      <trkpt lat="44.59233" lon="1.5166">
        <ele>410</ele>
        <time>2021-04-09T14:17:12Z</time>
      </trkpt>
      <trkpt lat="44.5924" lon="1.51683">
        <ele>411</ele>
        <time>2021-04-09T14:17:17Z</time>
      </trkpt>
      <trkpt lat="44.59274" lon="1.51748">
        <ele>409</ele>
        <time>2021-04-09T14:17:30Z</time>
      </trkpt>
      <trkpt lat="44.5929" lon="1.5179">
        <ele>408</ele>
        <time>2021-04-09T14:17:38Z</time>
      </trkpt>
      <trkpt lat="44.5929" lon="1.5182">
        <ele>408</ele>
        <time>2021-04-09T14:17:43Z</time>
      </trkpt>
      <trkpt lat="44.59266" lon="1.51893">
        <ele>408</ele>
        <time>2021-04-09T14:17:56Z</time>
      </trkpt>
      <trkpt lat="44.59261" lon="1.51916">
        <ele>408</ele>
        <time>2021-04-09T14:18:00Z</time>
      </trkpt>
      <trkpt lat="44.5926" lon="1.51948">
        <ele>407</ele>
        <time>2021-04-09T14:18:06Z</time>
      </trkpt>
      <trkpt lat="44.59326" lon="1.52268">
        <ele>408</ele>
        <time>2021-04-09T14:19:01Z</time>
      </trkpt>
      <trkpt lat="44.59322" lon="1.52321">
        <ele>408</ele>
        <time>2021-04-09T14:19:10Z</time>
      </trkpt>
      <trkpt lat="44.59305" lon="1.52374">
        <ele>406</ele>
        <time>2021-04-09T14:19:20Z</time>
      </trkpt>
      <trkpt lat="44.59308" lon="1.52377">
        <ele>406</ele>
        <time>2021-04-09T14:19:20Z</time>
      </trkpt>
      <trkpt lat="44.59317" lon="1.52376">
        <ele>406</ele>
        <time>2021-04-09T14:19:23Z</time>
      </trkpt>
      <trkpt lat="44.59365" lon="1.5235">
        <ele>406</ele>
        <time>2021-04-09T14:19:35Z</time>
      </trkpt>
      <trkpt lat="44.59423" lon="1.52331">
        <ele>404</ele>
        <time>2021-04-09T14:19:48Z</time>
      </trkpt>
      <trkpt lat="44.59433" lon="1.52335">
        <ele>404</ele>
        <time>2021-04-09T14:19:51Z</time>
      </trkpt>
      <trkpt lat="44.59446" lon="1.52351">
        <ele>404</ele>
        <time>2021-04-09T14:19:55Z</time>
      </trkpt>
      <trkpt lat="44.59461" lon="1.52373">
        <ele>403</ele>
        <time>2021-04-09T14:20:00Z</time>
      </trkpt>
      <trkpt lat="44.59473" lon="1.524">
        <ele>403</ele>
        <time>2021-04-09T14:20:05Z</time>
      </trkpt>
      <trkpt lat="44.59488" lon="1.52421">
        <ele>403</ele>
        <time>2021-04-09T14:20:10Z</time>
      </trkpt>
      <trkpt lat="44.59512" lon="1.52438">
        <ele>402</ele>
        <time>2021-04-09T14:20:17Z</time>
      </trkpt>
      <trkpt lat="44.5953" lon="1.52446">
        <ele>399</ele>
        <time>2021-04-09T14:20:21Z</time>
      </trkpt>
      <trkpt lat="44.59586" lon="1.5249">
        <ele>392</ele>
        <time>2021-04-09T14:20:36Z</time>
      </trkpt>
      <trkpt lat="44.59597" lon="1.52495">
        <ele>390</ele>
        <time>2021-04-09T14:20:39Z</time>
      </trkpt>
      <trkpt lat="44.59659" lon="1.52507">
        <ele>381</ele>
        <time>2021-04-09T14:20:53Z</time>
      </trkpt>
      <trkpt lat="44.59671" lon="1.52515">
        <ele>379</ele>
        <time>2021-04-09T14:20:56Z</time>
      </trkpt>
      <trkpt lat="44.59692" lon="1.52536">
        <ele>378</ele>
        <time>2021-04-09T14:21:02Z</time>
      </trkpt>
      <trkpt lat="44.59714" lon="1.52574">
        <ele>377</ele>
        <time>2021-04-09T14:21:11Z</time>
      </trkpt>
      <trkpt lat="44.59866" lon="1.52767">
        <ele>374</ele>
        <time>2021-04-09T14:21:58Z</time>
      </trkpt>
      <trkpt lat="44.59914" lon="1.52844">
        <ele>379</ele>
        <time>2021-04-09T14:22:15Z</time>
      </trkpt>
      <trkpt lat="44.59959" lon="1.52891">
        <ele>380</ele>
        <time>2021-04-09T14:22:28Z</time>
      </trkpt>
      <trkpt lat="44.60086" lon="1.53058">
        <ele>375</ele>
        <time>2021-04-09T14:23:09Z</time>
      </trkpt>
      <trkpt lat="44.60097" lon="1.53069">
        <ele>374</ele>
        <time>2021-04-09T14:23:12Z</time>
      </trkpt>
      <trkpt lat="44.60103" lon="1.53071">
        <ele>374</ele>
        <time>2021-04-09T14:23:14Z</time>
      </trkpt>
      <trkpt lat="44.60113" lon="1.53064">
        <ele>374</ele>
        <time>2021-04-09T14:23:16Z</time>
      </trkpt>
      <trkpt lat="44.6019" lon="1.52937">
        <ele>377</ele>
        <time>2021-04-09T14:23:44Z</time>
      </trkpt>
      <trkpt lat="44.602" lon="1.52914">
        <ele>377</ele>
        <time>2021-04-09T14:23:49Z</time>
      </trkpt>
      <trkpt lat="44.60206" lon="1.52882">
        <ele>378</ele>
        <time>2021-04-09T14:23:54Z</time>
      </trkpt>
      <trkpt lat="44.60211" lon="1.52875">
        <ele>379</ele>
        <time>2021-04-09T14:23:56Z</time>
      </trkpt>
      <trkpt lat="44.60242" lon="1.52872">
        <ele>381</ele>
        <time>2021-04-09T14:24:03Z</time>
      </trkpt>
      <trkpt lat="44.60266" lon="1.52876">
        <ele>383</ele>
        <time>2021-04-09T14:24:09Z</time>
      </trkpt>
      <trkpt lat="44.60313" lon="1.52893">
        <ele>386</ele>
        <time>2021-04-09T14:24:20Z</time>
      </trkpt>
      <trkpt lat="44.6035" lon="1.52885">
        <ele>388</ele>
        <time>2021-04-09T14:24:29Z</time>
      </trkpt>
      <trkpt lat="44.60413" lon="1.52848">
        <ele>391</ele>
        <time>2021-04-09T14:24:45Z</time>
      </trkpt>
      <trkpt lat="44.60482" lon="1.52815">
        <ele>390</ele>
        <time>2021-04-09T14:25:02Z</time>
      </trkpt>
      <trkpt lat="44.60521" lon="1.52776">
        <ele>387</ele>
        <time>2021-04-09T14:25:13Z</time>
      </trkpt>
      <trkpt lat="44.60523" lon="1.52756">
        <ele>386</ele>
        <time>2021-04-09T14:25:16Z</time>
      </trkpt>
      <trkpt lat="44.60504" lon="1.52693">
        <ele>381</ele>
        <time>2021-04-09T14:25:28Z</time>
      </trkpt>
      <trkpt lat="44.60509" lon="1.52658">
        <ele>379</ele>
        <time>2021-04-09T14:25:33Z</time>
      </trkpt>
      <trkpt lat="44.60497" lon="1.5263">
        <ele>376</ele>
        <time>2021-04-09T14:25:39Z</time>
      </trkpt>
      <trkpt lat="44.60486" lon="1.52614">
        <ele>374</ele>
        <time>2021-04-09T14:25:43Z</time>
      </trkpt>
      <trkpt lat="44.60458" lon="1.52601">
        <ele>370</ele>
        <time>2021-04-09T14:25:49Z</time>
      </trkpt>
      <trkpt lat="44.60405" lon="1.52563">
        <ele>366</ele>
        <time>2021-04-09T14:26:03Z</time>
      </trkpt>
      <trkpt lat="44.60398" lon="1.5255">
        <ele>366</ele>
        <time>2021-04-09T14:26:06Z</time>
      </trkpt>
      <trkpt lat="44.60384" lon="1.52501">
        <ele>367</ele>
        <time>2021-04-09T14:26:15Z</time>
      </trkpt>
      <trkpt lat="44.6034" lon="1.52452">
        <ele>376</ele>
        <time>2021-04-09T14:26:28Z</time>
      </trkpt>
      <trkpt lat="44.60336" lon="1.52444">
        <ele>377</ele>
        <time>2021-04-09T14:26:30Z</time>
      </trkpt>
      <trkpt lat="44.60333" lon="1.52422">
        <ele>379</ele>
        <time>2021-04-09T14:26:33Z</time>
      </trkpt>
      <trkpt lat="44.60334" lon="1.52397">
        <ele>381</ele>
        <time>2021-04-09T14:26:37Z</time>
      </trkpt>
      <trkpt lat="44.60346" lon="1.52345">
        <ele>385</ele>
        <time>2021-04-09T14:26:47Z</time>
      </trkpt>
      <trkpt lat="44.60356" lon="1.52323">
        <ele>385</ele>
        <time>2021-04-09T14:26:51Z</time>
      </trkpt>
      <trkpt lat="44.60356" lon="1.52298">
        <ele>387</ele>
        <time>2021-04-09T14:26:55Z</time>
      </trkpt>
      <trkpt lat="44.60375" lon="1.52271">
        <ele>386</ele>
        <time>2021-04-09T14:27:01Z</time>
      </trkpt>
      <trkpt lat="44.60413" lon="1.52237">
        <ele>384</ele>
        <time>2021-04-09T14:27:12Z</time>
      </trkpt>
      <trkpt lat="44.60456" lon="1.52179">
        <ele>379</ele>
        <time>2021-04-09T14:27:26Z</time>
      </trkpt>
      <trkpt lat="44.60469" lon="1.52169">
        <ele>378</ele>
        <time>2021-04-09T14:27:29Z</time>
      </trkpt>
      <trkpt lat="44.6049" lon="1.52162">
        <ele>376</ele>
        <time>2021-04-09T14:27:34Z</time>
      </trkpt>
      <trkpt lat="44.60503" lon="1.52154">
        <ele>373</ele>
        <time>2021-04-09T14:27:38Z</time>
      </trkpt>
      <trkpt lat="44.60522" lon="1.52133">
        <ele>367</ele>
        <time>2021-04-09T14:27:43Z</time>
      </trkpt>
      <trkpt lat="44.60539" lon="1.52106">
        <ele>363</ele>
        <time>2021-04-09T14:27:49Z</time>
      </trkpt>
      <trkpt lat="44.60544" lon="1.52102">
        <ele>362</ele>
        <time>2021-04-09T14:27:51Z</time>
      </trkpt>
      <trkpt lat="44.60553" lon="1.52104">
        <ele>361</ele>
        <time>2021-04-09T14:27:53Z</time>
      </trkpt>
      <trkpt lat="44.60576" lon="1.52124">
        <ele>357</ele>
        <time>2021-04-09T14:27:59Z</time>
      </trkpt>
      <trkpt lat="44.60586" lon="1.52137">
        <ele>355</ele>
        <time>2021-04-09T14:28:02Z</time>
      </trkpt>
      <trkpt lat="44.60592" lon="1.5214">
        <ele>354</ele>
        <time>2021-04-09T14:28:04Z</time>
      </trkpt>
      <trkpt lat="44.60608" lon="1.52142">
        <ele>350</ele>
        <time>2021-04-09T14:28:08Z</time>
      </trkpt>
      <trkpt lat="44.60634" lon="1.52141">
        <ele>345</ele>
        <time>2021-04-09T14:28:14Z</time>
      </trkpt>
      <trkpt lat="44.6066" lon="1.52134">
        <ele>339</ele>
        <time>2021-04-09T14:28:20Z</time>
      </trkpt>
      <trkpt lat="44.60671" lon="1.52134">
        <ele>337</ele>
        <time>2021-04-09T14:28:22Z</time>
      </trkpt>
      <trkpt lat="44.6068" lon="1.52141">
        <ele>336</ele>
        <time>2021-04-09T14:28:25Z</time>
      </trkpt>
      <trkpt lat="44.60696" lon="1.5216">
        <ele>334</ele>
        <time>2021-04-09T14:28:30Z</time>
      </trkpt>
      <trkpt lat="44.60709" lon="1.52169">
        <ele>332</ele>
        <time>2021-04-09T14:28:33Z</time>
      </trkpt>
      <trkpt lat="44.60719" lon="1.52172">
        <ele>330</ele>
        <time>2021-04-09T14:28:35Z</time>
      </trkpt>
      <trkpt lat="44.60725" lon="1.52164">
        <ele>329</ele>
        <time>2021-04-09T14:28:37Z</time>
      </trkpt>
      <trkpt lat="44.60731" lon="1.52144">
        <ele>326</ele>
        <time>2021-04-09T14:28:41Z</time>
      </trkpt>
      <trkpt lat="44.6073" lon="1.52128">
        <ele>324</ele>
        <time>2021-04-09T14:28:44Z</time>
      </trkpt>
      <trkpt lat="44.60727" lon="1.52119">
        <ele>324</ele>
        <time>2021-04-09T14:28:45Z</time>
      </trkpt>
      <trkpt lat="44.6066" lon="1.51982">
        <ele>321</ele>
        <time>2021-04-09T14:29:13Z</time>
      </trkpt>
      <trkpt lat="44.60654" lon="1.51964">
        <ele>321</ele>
        <time>2021-04-09T14:29:16Z</time>
      </trkpt>
      <trkpt lat="44.60655" lon="1.51958">
        <ele>321</ele>
        <time>2021-04-09T14:29:17Z</time>
      </trkpt>
      <trkpt lat="44.60661" lon="1.51943">
        <ele>320</ele>
        <time>2021-04-09T14:29:20Z</time>
      </trkpt>
      <trkpt lat="44.60677" lon="1.51919">
        <ele>320</ele>
        <time>2021-04-09T14:29:26Z</time>
      </trkpt>
      <trkpt lat="44.6071" lon="1.51895">
        <ele>326</ele>
        <time>2021-04-09T14:29:34Z</time>
      </trkpt>
      <trkpt lat="44.6072" lon="1.51865">
        <ele>329</ele>
        <time>2021-04-09T14:29:40Z</time>
      </trkpt>
      <trkpt lat="44.60726" lon="1.51836">
        <ele>331</ele>
        <time>2021-04-09T14:29:45Z</time>
      </trkpt>
      <trkpt lat="44.60757" lon="1.51758">
        <ele>331</ele>
        <time>2021-04-09T14:30:00Z</time>
      </trkpt>
      <trkpt lat="44.60759" lon="1.51748">
        <ele>332</ele>
        <time>2021-04-09T14:30:01Z</time>
      </trkpt>
      <trkpt lat="44.60789" lon="1.51683">
        <ele>336</ele>
        <time>2021-04-09T14:30:14Z</time>
      </trkpt>
      <trkpt lat="44.608" lon="1.51667">
        <ele>337</ele>
        <time>2021-04-09T14:30:18Z</time>
      </trkpt>
      <trkpt lat="44.60808" lon="1.51646">
        <ele>338</ele>
        <time>2021-04-09T14:30:22Z</time>
      </trkpt>
      <trkpt lat="44.60811" lon="1.5161">
        <ele>336</ele>
        <time>2021-04-09T14:30:28Z</time>
      </trkpt>
      <trkpt lat="44.60821" lon="1.51562">
        <ele>336</ele>
        <time>2021-04-09T14:30:36Z</time>
      </trkpt>
      <trkpt lat="44.60853" lon="1.51463">
        <ele>342</ele>
        <time>2021-04-09T14:30:54Z</time>
      </trkpt>
      <trkpt lat="44.60869" lon="1.51392">
        <ele>345</ele>
        <time>2021-04-09T14:31:07Z</time>
      </trkpt>
      <trkpt lat="44.60876" lon="1.51374">
        <ele>345</ele>
        <time>2021-04-09T14:31:10Z</time>
      </trkpt>
      <trkpt lat="44.60899" lon="1.51337">
        <ele>346</ele>
        <time>2021-04-09T14:31:18Z</time>
      </trkpt>
      <trkpt lat="44.60935" lon="1.51291">
        <ele>350</ele>
        <time>2021-04-09T14:31:30Z</time>
      </trkpt>
      <trkpt lat="44.6097" lon="1.51257">
        <ele>354</ele>
        <time>2021-04-09T14:31:40Z</time>
      </trkpt>
      <trkpt lat="44.60982" lon="1.51235">
        <ele>356</ele>
        <time>2021-04-09T14:31:44Z</time>
      </trkpt>
      <trkpt lat="44.60988" lon="1.51206">
        <ele>357</ele>
        <time>2021-04-09T14:31:49Z</time>
      </trkpt>
      <trkpt lat="44.60984" lon="1.51172">
        <ele>358</ele>
        <time>2021-04-09T14:31:55Z</time>
      </trkpt>
      <trkpt lat="44.60985" lon="1.51162">
        <ele>359</ele>
        <time>2021-04-09T14:31:57Z</time>
      </trkpt>
      <trkpt lat="44.60992" lon="1.51141">
        <ele>362</ele>
        <time>2021-04-09T14:32:00Z</time>
      </trkpt>
      <trkpt lat="44.61006" lon="1.51119">
        <ele>365</ele>
        <time>2021-04-09T14:32:05Z</time>
      </trkpt>
      <trkpt lat="44.61013" lon="1.51091">
        <ele>368</ele>
        <time>2021-04-09T14:32:10Z</time>
      </trkpt>
      <trkpt lat="44.61014" lon="1.51079">
        <ele>369</ele>
        <time>2021-04-09T14:32:12Z</time>
      </trkpt>
      <trkpt lat="44.6101" lon="1.51025">
        <ele>374</ele>
        <time>2021-04-09T14:32:21Z</time>
      </trkpt>
      <trkpt lat="44.61017" lon="1.50962">
        <ele>378</ele>
        <time>2021-04-09T14:32:32Z</time>
      </trkpt>
      <trkpt lat="44.61011" lon="1.50904">
        <ele>381</ele>
        <time>2021-04-09T14:32:42Z</time>
      </trkpt>
      <trkpt lat="44.61006" lon="1.50881">
        <ele>383</ele>
        <time>2021-04-09T14:32:46Z</time>
      </trkpt>
      <trkpt lat="44.6101" lon="1.50859">
        <ele>383</ele>
        <time>2021-04-09T14:32:49Z</time>
      </trkpt>
      <trkpt lat="44.61023" lon="1.50818">
        <ele>384</ele>
        <time>2021-04-09T14:32:57Z</time>
      </trkpt>
      <trkpt lat="44.61018" lon="1.50785">
        <ele>385</ele>
        <time>2021-04-09T14:33:03Z</time>
      </trkpt>
      <trkpt lat="44.60989" lon="1.50713">
        <ele>388</ele>
        <time>2021-04-09T14:33:16Z</time>
      </trkpt>
      <trkpt lat="44.60991" lon="1.50699">
        <ele>389</ele>
        <time>2021-04-09T14:33:19Z</time>
      </trkpt>
      <trkpt lat="44.61032" lon="1.50666">
        <ele>386</ele>
        <time>2021-04-09T14:33:30Z</time>
      </trkpt>
      <trkpt lat="44.61055" lon="1.50644">
        <ele>383</ele>
        <time>2021-04-09T14:33:36Z</time>
      </trkpt>
      <trkpt lat="44.61067" lon="1.50638">
        <ele>381</ele>
        <time>2021-04-09T14:33:39Z</time>
      </trkpt>
      <trkpt lat="44.61094" lon="1.50639">
        <ele>379</ele>
        <time>2021-04-09T14:33:45Z</time>
      </trkpt>
      <trkpt lat="44.61126" lon="1.50651">
        <ele>377</ele>
        <time>2021-04-09T14:33:53Z</time>
      </trkpt>
      <trkpt lat="44.61151" lon="1.50645">
        <ele>375</ele>
        <time>2021-04-09T14:33:59Z</time>
      </trkpt>
      <trkpt lat="44.61164" lon="1.50646">
        <ele>373</ele>
        <time>2021-04-09T14:34:02Z</time>
      </trkpt>
      <trkpt lat="44.61212" lon="1.50675">
        <ele>371</ele>
        <time>2021-04-09T14:34:14Z</time>
      </trkpt>
      <trkpt lat="44.61225" lon="1.5068">
        <ele>370</ele>
        <time>2021-04-09T14:34:17Z</time>
      </trkpt>
      <trkpt lat="44.61232" lon="1.5068">
        <ele>370</ele>
        <time>2021-04-09T14:34:19Z</time>
      </trkpt>
      <trkpt lat="44.61244" lon="1.50674">
        <ele>369</ele>
        <time>2021-04-09T14:34:22Z</time>
      </trkpt>
      <trkpt lat="44.61262" lon="1.50655">
        <ele>369</ele>
        <time>2021-04-09T14:34:27Z</time>
      </trkpt>
      <trkpt lat="44.61263" lon="1.50659">
        <ele>368</ele>
        <time>2021-04-09T14:34:28Z</time>
      </trkpt>
      <trkpt lat="44.61248" lon="1.50689">
        <ele>369</ele>
        <time>2021-04-09T14:34:34Z</time>
      </trkpt>
      <trkpt lat="44.61246" lon="1.50703">
        <ele>369</ele>
        <time>2021-04-09T14:34:37Z</time>
      </trkpt>
      <trkpt lat="44.61275" lon="1.5067">
        <ele>365</ele>
        <time>2021-04-09T14:34:45Z</time>
      </trkpt>
      <trkpt lat="44.61295" lon="1.50666">
        <ele>362</ele>
        <time>2021-04-09T14:34:50Z</time>
      </trkpt>
      <trkpt lat="44.61302" lon="1.50667">
        <ele>360</ele>
        <time>2021-04-09T14:34:52Z</time>
      </trkpt>
      <trkpt lat="44.61323" lon="1.50678">
        <ele>356</ele>
        <time>2021-04-09T14:34:57Z</time>
      </trkpt>
      <trkpt lat="44.61374" lon="1.50712">
        <ele>349</ele>
        <time>2021-04-09T14:35:10Z</time>
      </trkpt>
      <trkpt lat="44.61394" lon="1.50728">
        <ele>345</ele>
        <time>2021-04-09T14:35:15Z</time>
      </trkpt>
      <trkpt lat="44.61412" lon="1.50747">
        <ele>339</ele>
        <time>2021-04-09T14:35:21Z</time>
      </trkpt>
      <trkpt lat="44.61446" lon="1.50811">
        <ele>342</ele>
        <time>2021-04-09T14:35:34Z</time>
      </trkpt>
      <trkpt lat="44.61478" lon="1.50851">
        <ele>343</ele>
        <time>2021-04-09T14:35:44Z</time>
      </trkpt>
      <trkpt lat="44.61552" lon="1.50968">
        <ele>339</ele>
        <time>2021-04-09T14:36:10Z</time>
      </trkpt>
      <trkpt lat="44.6158" lon="1.51027">
        <ele>333</ele>
        <time>2021-04-09T14:36:22Z</time>
      </trkpt>
      <trkpt lat="44.61593" lon="1.5106">
        <ele>334</ele>
        <time>2021-04-09T14:36:28Z</time>
      </trkpt>
      <trkpt lat="44.61599" lon="1.51086">
        <ele>334</ele>
        <time>2021-04-09T14:36:33Z</time>
      </trkpt>
      <trkpt lat="44.61608" lon="1.51151">
        <ele>336</ele>
        <time>2021-04-09T14:36:44Z</time>
      </trkpt>
      <trkpt lat="44.61625" lon="1.51434">
        <ele>324</ele>
        <time>2021-04-09T14:37:31Z</time>
      </trkpt>
      <trkpt lat="44.61629" lon="1.51443">
        <ele>325</ele>
        <time>2021-04-09T14:37:33Z</time>
      </trkpt>
      <trkpt lat="44.61636" lon="1.51441">
        <ele>325</ele>
        <time>2021-04-09T14:37:34Z</time>
      </trkpt>
      <trkpt lat="44.61651" lon="1.51429">
        <ele>326</ele>
        <time>2021-04-09T14:37:38Z</time>
      </trkpt>
      <trkpt lat="44.6171" lon="1.51398">
        <ele>333</ele>
        <time>2021-04-09T14:37:53Z</time>
      </trkpt>
      <trkpt lat="44.61731" lon="1.5138">
        <ele>336</ele>
        <time>2021-04-09T14:37:59Z</time>
      </trkpt>
      <trkpt lat="44.61778" lon="1.51356">
        <ele>340</ele>
        <time>2021-04-09T14:38:10Z</time>
      </trkpt>
      <trkpt lat="44.61801" lon="1.51352">
        <ele>342</ele>
        <time>2021-04-09T14:38:16Z</time>
      </trkpt>
      <trkpt lat="44.6181" lon="1.51353">
        <ele>342</ele>
        <time>2021-04-09T14:38:18Z</time>
      </trkpt>
      <trkpt lat="44.61824" lon="1.5136">
        <ele>344</ele>
        <time>2021-04-09T14:38:21Z</time>
      </trkpt>
      <trkpt lat="44.6184" lon="1.51362">
        <ele>346</ele>
        <time>2021-04-09T14:38:25Z</time>
      </trkpt>
      <trkpt lat="44.6186" lon="1.51353">
        <ele>347</ele>
        <time>2021-04-09T14:38:30Z</time>
      </trkpt>
      <trkpt lat="44.61869" lon="1.51352">
        <ele>348</ele>
        <time>2021-04-09T14:38:32Z</time>
      </trkpt>
      <trkpt lat="44.61884" lon="1.51342">
        <ele>348</ele>
        <time>2021-04-09T14:38:36Z</time>
      </trkpt>
      <trkpt lat="44.61896" lon="1.51341">
        <ele>350</ele>
        <time>2021-04-09T14:38:39Z</time>
      </trkpt>
      <trkpt lat="44.61912" lon="1.51348">
        <ele>353</ele>
        <time>2021-04-09T14:38:43Z</time>
      </trkpt>
      <trkpt lat="44.61921" lon="1.51355">
        <ele>355</ele>
        <time>2021-04-09T14:38:45Z</time>
      </trkpt>
      <trkpt lat="44.61928" lon="1.51366">
        <ele>357</ele>
        <time>2021-04-09T14:38:48Z</time>
      </trkpt>
      <trkpt lat="44.61944" lon="1.51375">
        <ele>360</ele>
        <time>2021-04-09T14:38:52Z</time>
      </trkpt>
      <trkpt lat="44.61959" lon="1.51389">
        <ele>362</ele>
        <time>2021-04-09T14:38:56Z</time>
      </trkpt>
      <trkpt lat="44.61989" lon="1.51399">
        <ele>364</ele>
        <time>2021-04-09T14:39:03Z</time>
      </trkpt>
      <trkpt lat="44.62009" lon="1.514">
        <ele>365</ele>
        <time>2021-04-09T14:39:08Z</time>
      </trkpt>
      <trkpt lat="44.62033" lon="1.51397">
        <ele>366</ele>
        <time>2021-04-09T14:39:13Z</time>
      </trkpt>
      <trkpt lat="44.62035" lon="1.514">
        <ele>366</ele>
        <time>2021-04-09T14:39:14Z</time>
      </trkpt>
      <trkpt lat="44.62027" lon="1.51431">
        <ele>363</ele>
        <time>2021-04-09T14:39:19Z</time>
      </trkpt>
      <trkpt lat="44.62026" lon="1.51451">
        <ele>361</ele>
        <time>2021-04-09T14:39:23Z</time>
      </trkpt>
      <trkpt lat="44.62038" lon="1.51439">
        <ele>362</ele>
        <time>2021-04-09T14:39:26Z</time>
      </trkpt>
      <trkpt lat="44.62043" lon="1.51441">
        <ele>362</ele>
        <time>2021-04-09T14:39:27Z</time>
      </trkpt>
      <trkpt lat="44.62034" lon="1.51472">
        <ele>359</ele>
        <time>2021-04-09T14:39:33Z</time>
      </trkpt>
      <trkpt lat="44.62025" lon="1.51486">
        <ele>358</ele>
        <time>2021-04-09T14:39:36Z</time>
      </trkpt>
      <trkpt lat="44.61976" lon="1.51546">
        <ele>355</ele>
        <time>2021-04-09T14:39:51Z</time>
      </trkpt>
      <trkpt lat="44.61927" lon="1.51596">
        <ele>350</ele>
        <time>2021-04-09T14:40:05Z</time>
      </trkpt>
      <trkpt lat="44.61905" lon="1.51635">
        <ele>349</ele>
        <time>2021-04-09T14:40:14Z</time>
      </trkpt>
      <trkpt lat="44.61887" lon="1.51675">
        <ele>347</ele>
        <time>2021-04-09T14:40:22Z</time>
      </trkpt>
      <trkpt lat="44.61863" lon="1.51738">
        <ele>343</ele>
        <time>2021-04-09T14:40:34Z</time>
      </trkpt>
      <trkpt lat="44.61833" lon="1.51835">
        <ele>330</ele>
        <time>2021-04-09T14:40:51Z</time>
      </trkpt>
      <trkpt lat="44.6182" lon="1.51859">
        <ele>333</ele>
        <time>2021-04-09T14:40:56Z</time>
      </trkpt>
      <trkpt lat="44.61807" lon="1.51876">
        <ele>334</ele>
        <time>2021-04-09T14:41:00Z</time>
      </trkpt>
      <trkpt lat="44.61787" lon="1.51894">
        <ele>333</ele>
        <time>2021-04-09T14:41:06Z</time>
      </trkpt>
      <trkpt lat="44.61747" lon="1.51921">
        <ele>329</ele>
        <time>2021-04-09T14:41:16Z</time>
      </trkpt>
      <trkpt lat="44.61724" lon="1.51933">
        <ele>329</ele>
        <time>2021-04-09T14:41:22Z</time>
      </trkpt>
      <trkpt lat="44.61708" lon="1.51938">
        <ele>329</ele>
        <time>2021-04-09T14:41:26Z</time>
      </trkpt>
      <trkpt lat="44.61685" lon="1.51941">
        <ele>328</ele>
        <time>2021-04-09T14:41:31Z</time>
      </trkpt>
      <trkpt lat="44.61662" lon="1.51932">
        <ele>326</ele>
        <time>2021-04-09T14:41:37Z</time>
      </trkpt>
      <trkpt lat="44.61626" lon="1.51913">
        <ele>321</ele>
        <time>2021-04-09T14:41:46Z</time>
      </trkpt>
      <trkpt lat="44.61607" lon="1.51898">
        <ele>321</ele>
        <time>2021-04-09T14:41:51Z</time>
      </trkpt>
      <trkpt lat="44.61587" lon="1.51887">
        <ele>320</ele>
        <time>2021-04-09T14:41:56Z</time>
      </trkpt>
      <trkpt lat="44.61545" lon="1.51874">
        <ele>315</ele>
        <time>2021-04-09T14:42:06Z</time>
      </trkpt>
      <trkpt lat="44.61528" lon="1.51866">
        <ele>313</ele>
        <time>2021-04-09T14:42:10Z</time>
      </trkpt>
      <trkpt lat="44.61524" lon="1.51867">
        <ele>312</ele>
        <time>2021-04-09T14:42:11Z</time>
      </trkpt>
      <trkpt lat="44.61519" lon="1.51872">
        <ele>311</ele>
        <time>2021-04-09T14:42:12Z</time>
      </trkpt>
      <trkpt lat="44.61508" lon="1.51921">
        <ele>307</ele>
        <time>2021-04-09T14:42:21Z</time>
      </trkpt>
      <trkpt lat="44.6149" lon="1.51968">
        <ele>311</ele>
        <time>2021-04-09T14:42:30Z</time>
      </trkpt>
      <trkpt lat="44.61487" lon="1.51987">
        <ele>313</ele>
        <time>2021-04-09T14:42:33Z</time>
      </trkpt>
      <trkpt lat="44.61488" lon="1.52054">
        <ele>314</ele>
        <time>2021-04-09T14:42:44Z</time>
      </trkpt>
      <trkpt lat="44.61498" lon="1.52141">
        <ele>310</ele>
        <time>2021-04-09T14:42:59Z</time>
      </trkpt>
      <trkpt lat="44.61491" lon="1.52224">
        <ele>312</ele>
        <time>2021-04-09T14:43:13Z</time>
      </trkpt>
      <trkpt lat="44.61484" lon="1.52257">
        <ele>312</ele>
        <time>2021-04-09T14:43:18Z</time>
      </trkpt>
      <trkpt lat="44.61437" lon="1.52396">
        <ele>303</ele>
        <time>2021-04-09T14:43:44Z</time>
      </trkpt>
      <trkpt lat="44.61412" lon="1.52488">
        <ele>302</ele>
        <time>2021-04-09T14:44:00Z</time>
      </trkpt>
      <trkpt lat="44.61393" lon="1.52659">
        <ele>307</ele>
        <time>2021-04-09T14:44:29Z</time>
      </trkpt>
      <trkpt lat="44.61372" lon="1.52786">
        <ele>304</ele>
        <time>2021-04-09T14:44:51Z</time>
      </trkpt>
      <trkpt lat="44.61366" lon="1.52872">
        <ele>297</ele>
        <time>2021-04-09T14:45:05Z</time>
      </trkpt>
      <trkpt lat="44.61364" lon="1.52963">
        <ele>292</ele>
        <time>2021-04-09T14:45:20Z</time>
      </trkpt>
      <trkpt lat="44.6136" lon="1.52999">
        <ele>292</ele>
        <time>2021-04-09T14:45:26Z</time>
      </trkpt>
      <trkpt lat="44.61334" lon="1.53033">
        <ele>291</ele>
        <time>2021-04-09T14:45:35Z</time>
      </trkpt>
      <trkpt lat="44.61317" lon="1.5306">
        <ele>295</ele>
        <time>2021-04-09T14:45:41Z</time>
      </trkpt>
      <trkpt lat="44.61308" lon="1.53094">
        <ele>297</ele>
        <time>2021-04-09T14:45:47Z</time>
      </trkpt>
      <trkpt lat="44.61299" lon="1.53159">
        <ele>299</ele>
        <time>2021-04-09T14:45:58Z</time>
      </trkpt>
      <trkpt lat="44.61305" lon="1.53288">
        <ele>295</ele>
        <time>2021-04-09T14:46:19Z</time>
      </trkpt>
      <trkpt lat="44.61312" lon="1.53336">
        <ele>293</ele>
        <time>2021-04-09T14:46:27Z</time>
      </trkpt>
      <trkpt lat="44.61314" lon="1.53382">
        <ele>292</ele>
        <time>2021-04-09T14:46:35Z</time>
      </trkpt>
      <trkpt lat="44.61308" lon="1.53458">
        <ele>291</ele>
        <time>2021-04-09T14:46:48Z</time>
      </trkpt>
      <trkpt lat="44.61292" lon="1.5354">
        <ele>288</ele>
        <time>2021-04-09T14:47:02Z</time>
      </trkpt>
      <trkpt lat="44.61288" lon="1.53633">
        <ele>286</ele>
        <time>2021-04-09T14:47:17Z</time>
      </trkpt>
      <trkpt lat="44.61284" lon="1.53645">
        <ele>285</ele>
        <time>2021-04-09T14:47:20Z</time>
      </trkpt>
      <trkpt lat="44.61287" lon="1.53643">
        <ele>286</ele>
        <time>2021-04-09T14:47:20Z</time>
      </trkpt>
      <trkpt lat="44.61289" lon="1.53647">
        <ele>286</ele>
        <time>2021-04-09T14:47:21Z</time>
      </trkpt>
      <trkpt lat="44.61275" lon="1.53639">
        <ele>284</ele>
        <time>2021-04-09T14:47:25Z</time>
      </trkpt>
      <trkpt lat="44.6123" lon="1.53593">
        <ele>287</ele>
        <time>2021-04-09T14:47:38Z</time>
      </trkpt>
      <trkpt lat="44.61223" lon="1.53597">
        <ele>289</ele>
        <time>2021-04-09T14:47:39Z</time>
      </trkpt>
      <trkpt lat="44.61228" lon="1.53644">
        <ele>289</ele>
        <time>2021-04-09T14:47:47Z</time>
      </trkpt>
      <trkpt lat="44.6124" lon="1.53709">
        <ele>285</ele>
        <time>2021-04-09T14:47:58Z</time>
      </trkpt>
      <trkpt lat="44.61255" lon="1.53824">
        <ele>284</ele>
        <time>2021-04-09T14:48:18Z</time>
      </trkpt>
      <trkpt lat="44.61268" lon="1.53902">
        <ele>284</ele>
        <time>2021-04-09T14:48:31Z</time>
      </trkpt>
      <trkpt lat="44.6128" lon="1.54035">
        <ele>282</ele>
        <time>2021-04-09T14:48:54Z</time>
      </trkpt>
      <trkpt lat="44.61277" lon="1.54056">
        <ele>282</ele>
        <time>2021-04-09T14:48:57Z</time>
      </trkpt>
      <trkpt lat="44.61254" lon="1.54153">
        <ele>279</ele>
        <time>2021-04-09T14:49:14Z</time>
      </trkpt>
      <trkpt lat="44.61239" lon="1.54195">
        <ele>279</ele>
        <time>2021-04-09T14:49:22Z</time>
      </trkpt>
      <trkpt lat="44.61219" lon="1.54239">
        <ele>279</ele>
        <time>2021-04-09T14:49:31Z</time>
      </trkpt>
      <trkpt lat="44.61205" lon="1.54278">
        <ele>278</ele>
        <time>2021-04-09T14:49:38Z</time>
      </trkpt>
      <trkpt lat="44.61189" lon="1.54298">
        <ele>278</ele>
        <time>2021-04-09T14:49:43Z</time>
      </trkpt>
      <trkpt lat="44.61172" lon="1.54325">
        <ele>277</ele>
        <time>2021-04-09T14:49:49Z</time>
      </trkpt>
      <trkpt lat="44.61142" lon="1.54383">
        <ele>276</ele>
        <time>2021-04-09T14:50:01Z</time>
      </trkpt>
      <trkpt lat="44.61123" lon="1.54436">
        <ele>273</ele>
        <time>2021-04-09T14:50:11Z</time>
      </trkpt>
      <trkpt lat="44.61089" lon="1.54479">
        <ele>273</ele>
        <time>2021-04-09T14:50:21Z</time>
      </trkpt>
      <trkpt lat="44.6107" lon="1.54499">
        <ele>272</ele>
        <time>2021-04-09T14:50:27Z</time>
      </trkpt>
      <trkpt lat="44.61028" lon="1.54535">
        <ele>274</ele>
        <time>2021-04-09T14:50:38Z</time>
      </trkpt>
      <trkpt lat="44.61004" lon="1.54561">
        <ele>272</ele>
        <time>2021-04-09T14:50:45Z</time>
      </trkpt>
      <trkpt lat="44.60987" lon="1.54586">
        <ele>269</ele>
        <time>2021-04-09T14:50:51Z</time>
      </trkpt>
      <trkpt lat="44.60975" lon="1.54611">
        <ele>268</ele>
        <time>2021-04-09T14:50:56Z</time>
      </trkpt>
      <trkpt lat="44.60953" lon="1.54633">
        <ele>268</ele>
        <time>2021-04-09T14:51:02Z</time>
      </trkpt>
      <trkpt lat="44.60949" lon="1.5464">
        <ele>267</ele>
        <time>2021-04-09T14:51:04Z</time>
      </trkpt>
      <trkpt lat="44.60944" lon="1.54659">
        <ele>264</ele>
        <time>2021-04-09T14:51:07Z</time>
      </trkpt>
      <trkpt lat="44.60941" lon="1.54721">
        <ele>259</ele>
        <time>2021-04-09T14:51:18Z</time>
      </trkpt>
      <trkpt lat="44.60935" lon="1.54734">
        <ele>258</ele>
        <time>2021-04-09T14:51:20Z</time>
      </trkpt>
      <trkpt lat="44.6092" lon="1.54744">
        <ele>256</ele>
        <time>2021-04-09T14:51:24Z</time>
      </trkpt>
      <trkpt lat="44.60908" lon="1.54743">
        <ele>256</ele>
        <time>2021-04-09T14:51:27Z</time>
      </trkpt>
      <trkpt lat="44.6089" lon="1.54746">
        <ele>257</ele>
        <time>2021-04-09T14:51:31Z</time>
      </trkpt>
      <trkpt lat="44.60851" lon="1.54757">
        <ele>259</ele>
        <time>2021-04-09T14:51:40Z</time>
      </trkpt>
      <trkpt lat="44.60841" lon="1.54757">
        <ele>259</ele>
        <time>2021-04-09T14:51:43Z</time>
      </trkpt>
      <trkpt lat="44.60833" lon="1.54752">
        <ele>260</ele>
        <time>2021-04-09T14:51:45Z</time>
      </trkpt>
      <trkpt lat="44.60821" lon="1.54737">
        <ele>264</ele>
        <time>2021-04-09T14:51:49Z</time>
      </trkpt>
      <trkpt lat="44.60804" lon="1.54742">
        <ele>267</ele>
        <time>2021-04-09T14:51:53Z</time>
      </trkpt>
      <trkpt lat="44.60752" lon="1.54818">
        <ele>268</ele>
        <time>2021-04-09T14:52:10Z</time>
      </trkpt>
      <trkpt lat="44.60732" lon="1.54855">
        <ele>270</ele>
        <time>2021-04-09T14:52:18Z</time>
      </trkpt>
      <trkpt lat="44.60717" lon="1.54877">
        <ele>271</ele>
        <time>2021-04-09T14:52:23Z</time>
      </trkpt>
      <trkpt lat="44.60704" lon="1.54903">
        <ele>271</ele>
        <time>2021-04-09T14:52:28Z</time>
      </trkpt>
      <trkpt lat="44.6069" lon="1.54942">
        <ele>269</ele>
        <time>2021-04-09T14:52:36Z</time>
      </trkpt>
      <trkpt lat="44.60666" lon="1.54994">
        <ele>267</ele>
        <time>2021-04-09T14:52:46Z</time>
      </trkpt>
      <trkpt lat="44.60642" lon="1.55071">
        <ele>269</ele>
        <time>2021-04-09T14:53:00Z</time>
      </trkpt>
      <trkpt lat="44.60619" lon="1.55154">
        <ele>268</ele>
        <time>2021-04-09T14:53:15Z</time>
      </trkpt>
      <trkpt lat="44.60623" lon="1.55179">
        <ele>263</ele>
        <time>2021-04-09T14:53:19Z</time>
      </trkpt>
      <trkpt lat="44.60615" lon="1.5521">
        <ele>261</ele>
        <time>2021-04-09T14:53:24Z</time>
      </trkpt>
      <trkpt lat="44.60616" lon="1.55232">
        <ele>257</ele>
        <time>2021-04-09T14:53:28Z</time>
      </trkpt>
      <trkpt lat="44.60605" lon="1.55241">
        <ele>257</ele>
        <time>2021-04-09T14:53:31Z</time>
      </trkpt>
      <trkpt lat="44.60602" lon="1.55254">
        <ele>255</ele>
        <time>2021-04-09T14:53:33Z</time>
      </trkpt>
      <trkpt lat="44.60603" lon="1.55267">
        <ele>254</ele>
        <time>2021-04-09T14:53:35Z</time>
      </trkpt>
      <trkpt lat="44.60578" lon="1.55302">
        <ele>254</ele>
        <time>2021-04-09T14:53:44Z</time>
      </trkpt>
      <trkpt lat="44.60562" lon="1.55338">
        <ele>255</ele>
        <time>2021-04-09T14:53:51Z</time>
      </trkpt>
      <trkpt lat="44.60524" lon="1.55391">
        <ele>256</ele>
        <time>2021-04-09T14:54:03Z</time>
      </trkpt>
      <trkpt lat="44.605" lon="1.55415">
        <ele>252</ele>
        <time>2021-04-09T14:54:10Z</time>
      </trkpt>
      <trkpt lat="44.60454" lon="1.55443">
        <ele>255</ele>
        <time>2021-04-09T14:54:22Z</time>
      </trkpt>
      <trkpt lat="44.60371" lon="1.55471">
        <ele>253</ele>
        <time>2021-04-09T14:54:42Z</time>
      </trkpt>
      <trkpt lat="44.60341" lon="1.55471">
        <ele>253</ele>
        <time>2021-04-09T14:54:49Z</time>
      </trkpt>
      <trkpt lat="44.60273" lon="1.55458">
        <ele>253</ele>
        <time>2021-04-09T14:55:05Z</time>
      </trkpt>
      <trkpt lat="44.60249" lon="1.55457">
        <ele>252</ele>
        <time>2021-04-09T14:55:10Z</time>
      </trkpt>
      <trkpt lat="44.60221" lon="1.55451">
        <ele>251</ele>
        <time>2021-04-09T14:55:17Z</time>
      </trkpt>
      <trkpt lat="44.60192" lon="1.55432">
        <ele>252</ele>
        <time>2021-04-09T14:55:24Z</time>
      </trkpt>
      <trkpt lat="44.60115" lon="1.55388">
        <ele>258</ele>
        <time>2021-04-09T14:55:44Z</time>
      </trkpt>
      <trkpt lat="44.60011" lon="1.55345">
        <ele>260</ele>
        <time>2021-04-09T14:56:09Z</time>
      </trkpt>
      <trkpt lat="44.59959" lon="1.55327">
        <ele>258</ele>
        <time>2021-04-09T14:56:22Z</time>
      </trkpt>
      <trkpt lat="44.5987" lon="1.55309">
        <ele>259</ele>
        <time>2021-04-09T14:56:43Z</time>
      </trkpt>
      <trkpt lat="44.598" lon="1.55312">
        <ele>255</ele>
        <time>2021-04-09T14:56:59Z</time>
      </trkpt>
      <trkpt lat="44.59738" lon="1.55296">
        <ele>253</ele>
        <time>2021-04-09T14:57:14Z</time>
      </trkpt>
      <trkpt lat="44.59713" lon="1.55287">
        <ele>252</ele>
        <time>2021-04-09T14:57:20Z</time>
      </trkpt>
      <trkpt lat="44.59652" lon="1.55277">
        <ele>247</ele>
        <time>2021-04-09T14:57:34Z</time>
      </trkpt>
      <trkpt lat="44.59625" lon="1.55268">
        <ele>247</ele>
        <time>2021-04-09T14:57:41Z</time>
      </trkpt>
      <trkpt lat="44.59603" lon="1.55264">
        <ele>246</ele>
        <time>2021-04-09T14:57:46Z</time>
      </trkpt>
      <trkpt lat="44.59587" lon="1.55264">
        <ele>244</ele>
        <time>2021-04-09T14:57:50Z</time>
      </trkpt>
      <trkpt lat="44.59532" lon="1.55254">
        <ele>241</ele>
        <time>2021-04-09T14:58:03Z</time>
      </trkpt>
      <trkpt lat="44.59513" lon="1.55246">
        <ele>241</ele>
        <time>2021-04-09T14:58:07Z</time>
      </trkpt>
      <trkpt lat="44.59506" lon="1.55234">
        <ele>241</ele>
        <time>2021-04-09T14:58:10Z</time>
      </trkpt>
      <trkpt lat="44.59507" lon="1.55223">
        <ele>242</ele>
        <time>2021-04-09T14:58:12Z</time>
      </trkpt>
      <trkpt lat="44.59517" lon="1.55184">
        <ele>249</ele>
        <time>2021-04-09T14:58:18Z</time>
      </trkpt>
      <trkpt lat="44.59531" lon="1.5511">
        <ele>257</ele>
        <time>2021-04-09T14:58:31Z</time>
      </trkpt>
      <trkpt lat="44.59533" lon="1.55045">
        <ele>258</ele>
        <time>2021-04-09T14:58:42Z</time>
      </trkpt>
      <trkpt lat="44.59529" lon="1.5504">
        <ele>257</ele>
        <time>2021-04-09T14:58:43Z</time>
      </trkpt>
      <trkpt lat="44.59497" lon="1.55018">
        <ele>247</ele>
        <time>2021-04-09T14:58:52Z</time>
      </trkpt>
      <trkpt lat="44.5947" lon="1.54986">
        <ele>256</ele>
        <time>2021-04-09T14:59:00Z</time>
      </trkpt>
      <trkpt lat="44.59464" lon="1.54972">
        <ele>257</ele>
        <time>2021-04-09T14:59:03Z</time>
      </trkpt>
      <trkpt lat="44.59455" lon="1.54936">
        <ele>257</ele>
        <time>2021-04-09T14:59:09Z</time>
      </trkpt>
      <trkpt lat="44.59423" lon="1.54871">
        <ele>257</ele>
        <time>2021-04-09T14:59:22Z</time>
      </trkpt>
      <trkpt lat="44.59413" lon="1.54859">
        <ele>258</ele>
        <time>2021-04-09T14:59:25Z</time>
      </trkpt>
      <trkpt lat="44.59388" lon="1.54839">
        <ele>265</ele>
        <time>2021-04-09T14:59:32Z</time>
      </trkpt>
      <trkpt lat="44.59365" lon="1.5481">
        <ele>271</ele>
        <time>2021-04-09T14:59:39Z</time>
      </trkpt>
      <trkpt lat="44.59349" lon="1.54785">
        <ele>275</ele>
        <time>2021-04-09T14:59:45Z</time>
      </trkpt>
      <trkpt lat="44.59341" lon="1.54763">
        <ele>276</ele>
        <time>2021-04-09T14:59:49Z</time>
      </trkpt>
      <trkpt lat="44.59324" lon="1.54735">
        <ele>281</ele>
        <time>2021-04-09T14:59:55Z</time>
      </trkpt>
      <trkpt lat="44.59304" lon="1.54695">
        <ele>286</ele>
        <time>2021-04-09T15:00:03Z</time>
      </trkpt>
      <trkpt lat="44.59286" lon="1.54653">
        <ele>290</ele>
        <time>2021-04-09T15:00:11Z</time>
      </trkpt>
      <trkpt lat="44.59286" lon="1.54644">
        <ele>290</ele>
        <time>2021-04-09T15:00:13Z</time>
      </trkpt>
      <trkpt lat="44.59292" lon="1.54632">
        <ele>289</ele>
        <time>2021-04-09T15:00:15Z</time>
      </trkpt>
      <trkpt lat="44.59312" lon="1.54613">
        <ele>283</ele>
        <time>2021-04-09T15:00:21Z</time>
      </trkpt>
      <trkpt lat="44.59312" lon="1.54607">
        <ele>283</ele>
        <time>2021-04-09T15:00:22Z</time>
      </trkpt>
      <trkpt lat="44.59269" lon="1.54579">
        <ele>297</ele>
        <time>2021-04-09T15:00:33Z</time>
      </trkpt>
      <trkpt lat="44.59242" lon="1.54568">
        <ele>307</ele>
        <time>2021-04-09T15:00:39Z</time>
      </trkpt>
      <trkpt lat="44.59236" lon="1.54572">
        <ele>307</ele>
        <time>2021-04-09T15:00:41Z</time>
      </trkpt>
      <trkpt lat="44.59233" lon="1.54579">
        <ele>307</ele>
        <time>2021-04-09T15:00:42Z</time>
      </trkpt>
      <trkpt lat="44.59263" lon="1.54765">
        <ele>307</ele>
        <time>2021-04-09T15:01:14Z</time>
      </trkpt>
      <trkpt lat="44.59262" lon="1.54774">
        <ele>309</ele>
        <time>2021-04-09T15:01:15Z</time>
      </trkpt>
      <trkpt lat="44.59261" lon="1.54765">
        <ele>308</ele>
        <time>2021-04-09T15:01:17Z</time>
      </trkpt>
      <trkpt lat="44.59263" lon="1.54765">
        <ele>307</ele>
        <time>2021-04-09T15:01:17Z</time>
      </trkpt>
      <trkpt lat="44.59239" lon="1.54716">
        <ele>311</ele>
        <time>2021-04-09T15:01:27Z</time>
      </trkpt>
      <trkpt lat="44.59217" lon="1.54647">
        <ele>311</ele>
        <time>2021-04-09T15:01:40Z</time>
      </trkpt>
      <trkpt lat="44.59205" lon="1.54625">
        <ele>314</ele>
        <time>2021-04-09T15:01:45Z</time>
      </trkpt>
      <trkpt lat="44.59193" lon="1.54617">
        <ele>317</ele>
        <time>2021-04-09T15:01:48Z</time>
      </trkpt>
      <trkpt lat="44.59179" lon="1.54615">
        <ele>320</ele>
        <time>2021-04-09T15:01:51Z</time>
      </trkpt>
      <trkpt lat="44.5914" lon="1.54617">
        <ele>330</ele>
        <time>2021-04-09T15:02:00Z</time>
      </trkpt>
      <trkpt lat="44.59122" lon="1.54606">
        <ele>334</ele>
        <time>2021-04-09T15:02:05Z</time>
      </trkpt>
      <trkpt lat="44.59117" lon="1.54592">
        <ele>334</ele>
        <time>2021-04-09T15:02:07Z</time>
      </trkpt>
      <trkpt lat="44.59119" lon="1.54596">
        <ele>334</ele>
        <time>2021-04-09T15:02:08Z</time>
      </trkpt>
      <trkpt lat="44.59118" lon="1.54605">
        <ele>335</ele>
        <time>2021-04-09T15:02:10Z</time>
      </trkpt>
      <trkpt lat="44.59112" lon="1.54608">
        <ele>337</ele>
        <time>2021-04-09T15:02:11Z</time>
      </trkpt>
      <trkpt lat="44.59107" lon="1.54623">
        <ele>339</ele>
        <time>2021-04-09T15:02:14Z</time>
      </trkpt>
      <trkpt lat="44.59104" lon="1.54624">
        <ele>340</ele>
        <time>2021-04-09T15:02:15Z</time>
      </trkpt>
      <trkpt lat="44.59102" lon="1.54622">
        <ele>340</ele>
        <time>2021-04-09T15:02:15Z</time>
      </trkpt>
      <trkpt lat="44.5908" lon="1.54572">
        <ele>343</ele>
        <time>2021-04-09T15:02:25Z</time>
      </trkpt>
      <trkpt lat="44.59079" lon="1.5456">
        <ele>344</ele>
        <time>2021-04-09T15:02:27Z</time>
      </trkpt>
      <trkpt lat="44.59089" lon="1.54531">
        <ele>343</ele>
        <time>2021-04-09T15:02:32Z</time>
      </trkpt>
      <trkpt lat="44.59089" lon="1.54527">
        <ele>343</ele>
        <time>2021-04-09T15:02:33Z</time>
      </trkpt>
      <trkpt lat="44.59085" lon="1.54523">
        <ele>344</ele>
        <time>2021-04-09T15:02:34Z</time>
      </trkpt>
      <trkpt lat="44.59065" lon="1.54534">
        <ele>347</ele>
        <time>2021-04-09T15:02:39Z</time>
      </trkpt>
      <trkpt lat="44.59032" lon="1.54545">
        <ele>351</ele>
        <time>2021-04-09T15:02:47Z</time>
      </trkpt>
      <trkpt lat="44.58982" lon="1.54539">
        <ele>359</ele>
        <time>2021-04-09T15:02:59Z</time>
      </trkpt>
      <trkpt lat="44.58925" lon="1.54544">
        <ele>364</ele>
        <time>2021-04-09T15:03:12Z</time>
      </trkpt>
      <trkpt lat="44.58877" lon="1.54533">
        <ele>368</ele>
        <time>2021-04-09T15:03:23Z</time>
      </trkpt>
      <trkpt lat="44.58815" lon="1.54542">
        <ele>368</ele>
        <time>2021-04-09T15:03:38Z</time>
      </trkpt>
      <trkpt lat="44.58758" lon="1.54538">
        <ele>369</ele>
        <time>2021-04-09T15:03:51Z</time>
      </trkpt>
      <trkpt lat="44.58745" lon="1.54534">
        <ele>369</ele>
        <time>2021-04-09T15:03:54Z</time>
      </trkpt>
      <trkpt lat="44.58737" lon="1.54525">
        <ele>369</ele>
        <time>2021-04-09T15:03:57Z</time>
      </trkpt>
      <trkpt lat="44.5872" lon="1.54486">
        <ele>369</ele>
        <time>2021-04-09T15:04:04Z</time>
      </trkpt>
      <trkpt lat="44.58712" lon="1.54479">
        <ele>368</ele>
        <time>2021-04-09T15:04:07Z</time>
      </trkpt>
      <trkpt lat="44.587" lon="1.54488">
        <ele>368</ele>
        <time>2021-04-09T15:04:10Z</time>
      </trkpt>
      <trkpt lat="44.58625" lon="1.54578">
        <ele>366</ele>
        <time>2021-04-09T15:04:33Z</time>
      </trkpt>
      <trkpt lat="44.58562" lon="1.54662">
        <ele>364</ele>
        <time>2021-04-09T15:04:53Z</time>
      </trkpt>
      <trkpt lat="44.58554" lon="1.54657">
        <ele>363</ele>
        <time>2021-04-09T15:04:55Z</time>
      </trkpt>
      <trkpt lat="44.58553" lon="1.5465">
        <ele>362</ele>
        <time>2021-04-09T15:04:56Z</time>
      </trkpt>
      <trkpt lat="44.58555" lon="1.54545">
        <ele>361</ele>
        <time>2021-04-09T15:05:14Z</time>
      </trkpt>
      <trkpt lat="44.58543" lon="1.54529">
        <ele>360</ele>
        <time>2021-04-09T15:05:18Z</time>
      </trkpt>
      <trkpt lat="44.58515" lon="1.5451">
        <ele>358</ele>
        <time>2021-04-09T15:05:25Z</time>
      </trkpt>
      <trkpt lat="44.5847" lon="1.54458">
        <ele>361</ele>
        <time>2021-04-09T15:05:39Z</time>
      </trkpt>
      <trkpt lat="44.58453" lon="1.54444">
        <ele>362</ele>
        <time>2021-04-09T15:05:43Z</time>
      </trkpt>
      <trkpt lat="44.58426" lon="1.54438">
        <ele>364</ele>
        <time>2021-04-09T15:05:50Z</time>
      </trkpt>
      <trkpt lat="44.58389" lon="1.54434">
        <ele>363</ele>
        <time>2021-04-09T15:05:58Z</time>
      </trkpt>
      <trkpt lat="44.5835" lon="1.54412">
        <ele>365</ele>
        <time>2021-04-09T15:06:08Z</time>
      </trkpt>
      <trkpt lat="44.58311" lon="1.54401">
        <ele>366</ele>
        <time>2021-04-09T15:06:17Z</time>
      </trkpt>
      <trkpt lat="44.58306" lon="1.54401">
        <ele>366</ele>
        <time>2021-04-09T15:06:18Z</time>
      </trkpt>
      <trkpt lat="44.5828" lon="1.54411">
        <ele>365</ele>
        <time>2021-04-09T15:06:25Z</time>
      </trkpt>
      <trkpt lat="44.58246" lon="1.5443">
        <ele>363</ele>
        <time>2021-04-09T15:06:33Z</time>
      </trkpt>
      <trkpt lat="44.58215" lon="1.54459">
        <ele>360</ele>
        <time>2021-04-09T15:06:42Z</time>
      </trkpt>
      <trkpt lat="44.58178" lon="1.54516">
        <ele>358</ele>
        <time>2021-04-09T15:06:55Z</time>
      </trkpt>
      <trkpt lat="44.5816" lon="1.54548">
        <ele>358</ele>
        <time>2021-04-09T15:07:02Z</time>
      </trkpt>
      <trkpt lat="44.58119" lon="1.54609">
        <ele>357</ele>
        <time>2021-04-09T15:07:16Z</time>
      </trkpt>
      <trkpt lat="44.58077" lon="1.54664">
        <ele>361</ele>
        <time>2021-04-09T15:07:29Z</time>
      </trkpt>
      <trkpt lat="44.58048" lon="1.54725">
        <ele>356</ele>
        <time>2021-04-09T15:07:41Z</time>
      </trkpt>
      <trkpt lat="44.58045" lon="1.54765">
        <ele>354</ele>
        <time>2021-04-09T15:07:48Z</time>
      </trkpt>
      <trkpt lat="44.5805" lon="1.54813">
        <ele>350</ele>
        <time>2021-04-09T15:07:56Z</time>
      </trkpt>
      <trkpt lat="44.58013" lon="1.55025">
        <ele>339</ele>
        <time>2021-04-09T15:08:32Z</time>
      </trkpt>
      <trkpt lat="44.58005" lon="1.55106">
        <ele>327</ele>
        <time>2021-04-09T15:08:46Z</time>
      </trkpt>
      <trkpt lat="44.57989" lon="1.55227">
        <ele>311</ele>
        <time>2021-04-09T15:09:06Z</time>
      </trkpt>
      <trkpt lat="44.57988" lon="1.55272">
        <ele>301</ele>
        <time>2021-04-09T15:09:14Z</time>
      </trkpt>
      <trkpt lat="44.57967" lon="1.55447">
        <ele>276</ele>
        <time>2021-04-09T15:09:43Z</time>
      </trkpt>
      <trkpt lat="44.57951" lon="1.55556">
        <ele>265</ele>
        <time>2021-04-09T15:10:02Z</time>
      </trkpt>
      <trkpt lat="44.57938" lon="1.55607">
        <ele>259</ele>
        <time>2021-04-09T15:10:11Z</time>
      </trkpt>
      <trkpt lat="44.57936" lon="1.55628">
        <ele>254</ele>
        <time>2021-04-09T15:10:14Z</time>
      </trkpt>
      <trkpt lat="44.57936" lon="1.55655">
        <ele>247</ele>
        <time>2021-04-09T15:10:19Z</time>
      </trkpt>
      <trkpt lat="44.57942" lon="1.5565">
        <ele>247</ele>
        <time>2021-04-09T15:10:20Z</time>
      </trkpt>
      <trkpt lat="44.57949" lon="1.55634">
        <ele>249</ele>
        <time>2021-04-09T15:10:24Z</time>
      </trkpt>
      <trkpt lat="44.57952" lon="1.55635">
        <ele>248</ele>
        <time>2021-04-09T15:10:24Z</time>
      </trkpt>
      <trkpt lat="44.57949" lon="1.55693">
        <ele>236</ele>
        <time>2021-04-09T15:10:34Z</time>
      </trkpt>
      <trkpt lat="44.57954" lon="1.55702">
        <ele>234</ele>
        <time>2021-04-09T15:10:36Z</time>
      </trkpt>
      <trkpt lat="44.57958" lon="1.55739">
        <ele>227</ele>
        <time>2021-04-09T15:10:42Z</time>
      </trkpt>
      <trkpt lat="44.5797" lon="1.55782">
        <ele>223</ele>
        <time>2021-04-09T15:10:50Z</time>
      </trkpt>
      <trkpt lat="44.57961" lon="1.55788">
        <ele>223</ele>
        <time>2021-04-09T15:10:52Z</time>
      </trkpt>
      <trkpt lat="44.57932" lon="1.55786">
        <ele>225</ele>
        <time>2021-04-09T15:10:59Z</time>
      </trkpt>
      <trkpt lat="44.57908" lon="1.55779">
        <ele>226</ele>
        <time>2021-04-09T15:11:05Z</time>
      </trkpt>
      <trkpt lat="44.57874" lon="1.55775">
        <ele>228</ele>
        <time>2021-04-09T15:11:13Z</time>
      </trkpt>
      <trkpt lat="44.57849" lon="1.55773">
        <ele>229</ele>
        <time>2021-04-09T15:11:18Z</time>
      </trkpt>
      <trkpt lat="44.5783" lon="1.55777">
        <ele>229</ele>
        <time>2021-04-09T15:11:23Z</time>
      </trkpt>
      <trkpt lat="44.57764" lon="1.55758">
        <ele>229</ele>
        <time>2021-04-09T15:11:39Z</time>
      </trkpt>
      <trkpt lat="44.577" lon="1.55708">
        <ele>233</ele>
        <time>2021-04-09T15:11:56Z</time>
      </trkpt>
      <trkpt lat="44.57672" lon="1.5569">
        <ele>232</ele>
        <time>2021-04-09T15:12:03Z</time>
      </trkpt>
      <trkpt lat="44.57545" lon="1.55629">
        <ele>223</ele>
        <time>2021-04-09T15:12:34Z</time>
      </trkpt>
      <trkpt lat="44.57526" lon="1.55616">
        <ele>221</ele>
        <time>2021-04-09T15:12:39Z</time>
      </trkpt>
      <trkpt lat="44.57498" lon="1.55583">
        <ele>220</ele>
        <time>2021-04-09T15:12:48Z</time>
      </trkpt>
      <trkpt lat="44.57463" lon="1.5555">
        <ele>222</ele>
        <time>2021-04-09T15:12:58Z</time>
      </trkpt>
      <trkpt lat="44.57423" lon="1.55532">
        <ele>218</ele>
        <time>2021-04-09T15:13:07Z</time>
      </trkpt>
      <trkpt lat="44.57397" lon="1.55516">
        <ele>216</ele>
        <time>2021-04-09T15:13:14Z</time>
      </trkpt>
      <trkpt lat="44.5737" lon="1.55491">
        <ele>216</ele>
        <time>2021-04-09T15:13:22Z</time>
      </trkpt>
      <trkpt lat="44.57355" lon="1.55482">
        <ele>215</ele>
        <time>2021-04-09T15:13:25Z</time>
      </trkpt>
      <trkpt lat="44.57179" lon="1.55403">
        <ele>210</ele>
        <time>2021-04-09T15:14:09Z</time>
      </trkpt>
      <trkpt lat="44.57128" lon="1.55383">
        <ele>210</ele>
        <time>2021-04-09T15:14:21Z</time>
      </trkpt>
      <trkpt lat="44.57093" lon="1.55359">
        <ele>209</ele>
        <time>2021-04-09T15:14:30Z</time>
      </trkpt>
      <trkpt lat="44.57063" lon="1.55329">
        <ele>208</ele>
        <time>2021-04-09T15:14:39Z</time>
      </trkpt>
      <trkpt lat="44.57007" lon="1.55286">
        <ele>216</ele>
        <time>2021-04-09T15:14:54Z</time>
      </trkpt>
      <trkpt lat="44.56995" lon="1.55269">
        <ele>220</ele>
        <time>2021-04-09T15:14:58Z</time>
      </trkpt>
      <trkpt lat="44.56979" lon="1.55265">
        <ele>220</ele>
        <time>2021-04-09T15:15:01Z</time>
      </trkpt>
      <trkpt lat="44.56897" lon="1.55277">
        <ele>216</ele>
        <time>2021-04-09T15:15:21Z</time>
      </trkpt>
      <trkpt lat="44.56885" lon="1.55245">
        <ele>219</ele>
        <time>2021-04-09T15:15:27Z</time>
      </trkpt>
      <trkpt lat="44.56866" lon="1.55239">
        <ele>220</ele>
        <time>2021-04-09T15:15:31Z</time>
      </trkpt>
      <trkpt lat="44.56841" lon="1.55239">
        <ele>221</ele>
        <time>2021-04-09T15:15:37Z</time>
      </trkpt>
      <trkpt lat="44.56835" lon="1.55243">
        <ele>221</ele>
        <time>2021-04-09T15:15:39Z</time>
      </trkpt>
      <trkpt lat="44.56833" lon="1.55248">
        <ele>220</ele>
        <time>2021-04-09T15:15:40Z</time>
      </trkpt>
      <trkpt lat="44.56821" lon="1.553">
        <ele>217</ele>
        <time>2021-04-09T15:15:49Z</time>
      </trkpt>
      <trkpt lat="44.56817" lon="1.55306">
        <ele>216</ele>
        <time>2021-04-09T15:15:50Z</time>
      </trkpt>
      <trkpt lat="44.56813" lon="1.55307">
        <ele>217</ele>
        <time>2021-04-09T15:15:51Z</time>
      </trkpt>
      <trkpt lat="44.56779" lon="1.55293">
        <ele>222</ele>
        <time>2021-04-09T15:15:59Z</time>
      </trkpt>
      <trkpt lat="44.5677" lon="1.55286">
        <ele>224</ele>
        <time>2021-04-09T15:16:02Z</time>
      </trkpt>
      <trkpt lat="44.56756" lon="1.55282">
        <ele>227</ele>
        <time>2021-04-09T15:16:05Z</time>
      </trkpt>
      <trkpt lat="44.56698" lon="1.5525">
        <ele>231</ele>
        <time>2021-04-09T15:16:19Z</time>
      </trkpt>
      <trkpt lat="44.56674" lon="1.5523">
        <ele>235</ele>
        <time>2021-04-09T15:16:26Z</time>
      </trkpt>
      <trkpt lat="44.56656" lon="1.55206">
        <ele>240</ele>
        <time>2021-04-09T15:16:32Z</time>
      </trkpt>
      <trkpt lat="44.56643" lon="1.55196">
        <ele>241</ele>
        <time>2021-04-09T15:16:35Z</time>
      </trkpt>
      <trkpt lat="44.56628" lon="1.55192">
        <ele>239</ele>
        <time>2021-04-09T15:16:39Z</time>
      </trkpt>
      <trkpt lat="44.56615" lon="1.55183">
        <ele>239</ele>
        <time>2021-04-09T15:16:42Z</time>
      </trkpt>
      <trkpt lat="44.56579" lon="1.55166">
        <ele>238</ele>
        <time>2021-04-09T15:16:51Z</time>
      </trkpt>
      <trkpt lat="44.56532" lon="1.55148">
        <ele>239</ele>
        <time>2021-04-09T15:17:02Z</time>
      </trkpt>
      <trkpt lat="44.56512" lon="1.55145">
        <ele>238</ele>
        <time>2021-04-09T15:17:07Z</time>
      </trkpt>
      <trkpt lat="44.56483" lon="1.55147">
        <ele>236</ele>
        <time>2021-04-09T15:17:14Z</time>
      </trkpt>
      <trkpt lat="44.5638" lon="1.55163">
        <ele>227</ele>
        <time>2021-04-09T15:17:38Z</time>
      </trkpt>
      <trkpt lat="44.56174" lon="1.55188">
        <ele>217</ele>
        <time>2021-04-09T15:18:26Z</time>
      </trkpt>
      <trkpt lat="44.56166" lon="1.5519">
        <ele>216</ele>
        <time>2021-04-09T15:18:28Z</time>
      </trkpt>
      <trkpt lat="44.56154" lon="1.552">
        <ele>215</ele>
        <time>2021-04-09T15:18:32Z</time>
      </trkpt>
      <trkpt lat="44.56148" lon="1.55215">
        <ele>213</ele>
        <time>2021-04-09T15:18:34Z</time>
      </trkpt>
      <trkpt lat="44.56144" lon="1.55219">
        <ele>212</ele>
        <time>2021-04-09T15:18:36Z</time>
      </trkpt>
      <trkpt lat="44.56131" lon="1.55225">
        <ele>211</ele>
        <time>2021-04-09T15:18:39Z</time>
      </trkpt>
      <trkpt lat="44.56119" lon="1.55227">
        <ele>211</ele>
        <time>2021-04-09T15:18:42Z</time>
      </trkpt>
      <trkpt lat="44.56097" lon="1.55225">
        <ele>211</ele>
        <time>2021-04-09T15:18:47Z</time>
      </trkpt>
      <trkpt lat="44.56075" lon="1.55218">
        <ele>213</ele>
        <time>2021-04-09T15:18:52Z</time>
      </trkpt>
      <trkpt lat="44.5606" lon="1.55217">
        <ele>215</ele>
        <time>2021-04-09T15:18:56Z</time>
      </trkpt>
      <trkpt lat="44.56004" lon="1.5524">
        <ele>212</ele>
        <time>2021-04-09T15:19:09Z</time>
      </trkpt>
      <trkpt lat="44.5597" lon="1.55248">
        <ele>210</ele>
        <time>2021-04-09T15:19:17Z</time>
      </trkpt>
      <trkpt lat="44.55888" lon="1.55244">
        <ele>211</ele>
        <time>2021-04-09T15:19:36Z</time>
      </trkpt>
      <trkpt lat="44.55823" lon="1.55224">
        <ele>215</ele>
        <time>2021-04-09T15:19:52Z</time>
      </trkpt>
      <trkpt lat="44.55807" lon="1.55222">
        <ele>216</ele>
        <time>2021-04-09T15:19:56Z</time>
      </trkpt>
      <trkpt lat="44.55775" lon="1.55223">
        <ele>217</ele>
        <time>2021-04-09T15:20:03Z</time>
      </trkpt>
      <trkpt lat="44.55758" lon="1.5522">
        <ele>218</ele>
        <time>2021-04-09T15:20:07Z</time>
      </trkpt>
      <trkpt lat="44.55751" lon="1.55216">
        <ele>219</ele>
        <time>2021-04-09T15:20:09Z</time>
      </trkpt>
      <trkpt lat="44.55728" lon="1.55169">
        <ele>231</ele>
        <time>2021-04-09T15:20:18Z</time>
      </trkpt>
      <trkpt lat="44.55709" lon="1.55115">
        <ele>243</ele>
        <time>2021-04-09T15:20:28Z</time>
      </trkpt>
      <trkpt lat="44.55703" lon="1.5509">
        <ele>247</ele>
        <time>2021-04-09T15:20:33Z</time>
      </trkpt>
      <trkpt lat="44.55691" lon="1.55075">
        <ele>250</ele>
        <time>2021-04-09T15:20:37Z</time>
      </trkpt>
      <trkpt lat="44.55686" lon="1.55074">
        <ele>250</ele>
        <time>2021-04-09T15:20:38Z</time>
      </trkpt>
      <trkpt lat="44.55681" lon="1.55079">
        <ele>250</ele>
        <time>2021-04-09T15:20:39Z</time>
      </trkpt>
      <trkpt lat="44.55662" lon="1.55137">
        <ele>242</ele>
        <time>2021-04-09T15:20:50Z</time>
      </trkpt>
      <trkpt lat="44.55647" lon="1.55163">
        <ele>241</ele>
        <time>2021-04-09T15:20:55Z</time>
      </trkpt>
      <trkpt lat="44.55631" lon="1.5518">
        <ele>241</ele>
        <time>2021-04-09T15:21:00Z</time>
      </trkpt>
      <trkpt lat="44.55616" lon="1.55186">
        <ele>242</ele>
        <time>2021-04-09T15:21:04Z</time>
      </trkpt>
      <trkpt lat="44.55607" lon="1.55188">
        <ele>243</ele>
        <time>2021-04-09T15:21:06Z</time>
      </trkpt>
      <trkpt lat="44.5559" lon="1.55184">
        <ele>247</ele>
        <time>2021-04-09T15:21:10Z</time>
      </trkpt>
      <trkpt lat="44.55565" lon="1.55164">
        <ele>254</ele>
        <time>2021-04-09T15:21:17Z</time>
      </trkpt>
      <trkpt lat="44.55552" lon="1.55149">
        <ele>257</ele>
        <time>2021-04-09T15:21:20Z</time>
      </trkpt>
      <trkpt lat="44.55547" lon="1.55137">
        <ele>260</ele>
        <time>2021-04-09T15:21:23Z</time>
      </trkpt>
      <trkpt lat="44.55537" lon="1.55129">
        <ele>262</ele>
        <time>2021-04-09T15:21:25Z</time>
      </trkpt>
      <trkpt lat="44.55527" lon="1.55097">
        <ele>267</ele>
        <time>2021-04-09T15:21:31Z</time>
      </trkpt>
      <trkpt lat="44.55516" lon="1.55077">
        <ele>271</ele>
        <time>2021-04-09T15:21:36Z</time>
      </trkpt>
      <trkpt lat="44.55485" lon="1.55037">
        <ele>274</ele>
        <time>2021-04-09T15:21:45Z</time>
      </trkpt>
      <trkpt lat="44.55469" lon="1.5502">
        <ele>276</ele>
        <time>2021-04-09T15:21:50Z</time>
      </trkpt>
      <trkpt lat="44.55462" lon="1.55003">
        <ele>277</ele>
        <time>2021-04-09T15:21:53Z</time>
      </trkpt>
      <trkpt lat="44.55432" lon="1.54888">
        <ele>283</ele>
        <time>2021-04-09T15:22:14Z</time>
      </trkpt>
      <trkpt lat="44.55426" lon="1.54875">
        <ele>284</ele>
        <time>2021-04-09T15:22:16Z</time>
      </trkpt>
      <trkpt lat="44.55419" lon="1.54864">
        <ele>284</ele>
        <time>2021-04-09T15:22:19Z</time>
      </trkpt>
      <trkpt lat="44.55399" lon="1.54844">
        <ele>286</ele>
        <time>2021-04-09T15:22:24Z</time>
      </trkpt>
      <trkpt lat="44.55377" lon="1.54832">
        <ele>286</ele>
        <time>2021-04-09T15:22:30Z</time>
      </trkpt>
      <trkpt lat="44.55356" lon="1.5483">
        <ele>286</ele>
        <time>2021-04-09T15:22:35Z</time>
      </trkpt>
      <trkpt lat="44.55344" lon="1.54842">
        <ele>286</ele>
        <time>2021-04-09T15:22:38Z</time>
      </trkpt>
      <trkpt lat="44.55313" lon="1.54884">
        <ele>288</ele>
        <time>2021-04-09T15:22:48Z</time>
      </trkpt>
      <trkpt lat="44.55309" lon="1.54893">
        <ele>288</ele>
        <time>2021-04-09T15:22:50Z</time>
      </trkpt>
      <trkpt lat="44.55283" lon="1.5493">
        <ele>292</ele>
        <time>2021-04-09T15:22:59Z</time>
      </trkpt>
      <trkpt lat="44.55213" lon="1.55071">
        <ele>303</ele>
        <time>2021-04-09T15:23:27Z</time>
      </trkpt>
      <trkpt lat="44.55151" lon="1.55204">
        <ele>311</ele>
        <time>2021-04-09T15:23:54Z</time>
      </trkpt>
      <trkpt lat="44.55129" lon="1.55241">
        <ele>311</ele>
        <time>2021-04-09T15:24:02Z</time>
      </trkpt>
      <trkpt lat="44.55108" lon="1.5527">
        <ele>311</ele>
        <time>2021-04-09T15:24:09Z</time>
      </trkpt>
      <trkpt lat="44.55085" lon="1.55292">
        <ele>312</ele>
        <time>2021-04-09T15:24:15Z</time>
      </trkpt>
      <trkpt lat="44.55077" lon="1.55285">
        <ele>312</ele>
        <time>2021-04-09T15:24:17Z</time>
      </trkpt>
      <trkpt lat="44.55081" lon="1.55289">
        <ele>312</ele>
        <time>2021-04-09T15:24:19Z</time>
      </trkpt>
      <trkpt lat="44.55081" lon="1.55297">
        <ele>312</ele>
        <time>2021-04-09T15:24:20Z</time>
      </trkpt>
      <trkpt lat="44.55028" lon="1.55339">
        <ele>308</ele>
        <time>2021-04-09T15:24:34Z</time>
      </trkpt>
      <trkpt lat="44.55006" lon="1.55361">
        <ele>307</ele>
        <time>2021-04-09T15:24:40Z</time>
      </trkpt>
      <trkpt lat="44.55" lon="1.55356">
        <ele>307</ele>
        <time>2021-04-09T15:24:42Z</time>
      </trkpt>
      <trkpt lat="44.54991" lon="1.55334">
        <ele>306</ele>
        <time>2021-04-09T15:24:46Z</time>
      </trkpt>
      <trkpt lat="44.54976" lon="1.55318">
        <ele>304</ele>
        <time>2021-04-09T15:24:51Z</time>
      </trkpt>
      <trkpt lat="44.54969" lon="1.55318">
        <ele>303</ele>
        <time>2021-04-09T15:24:52Z</time>
      </trkpt>
      <trkpt lat="44.54966" lon="1.55314">
        <ele>303</ele>
        <time>2021-04-09T15:24:53Z</time>
      </trkpt>
      <trkpt lat="44.54944" lon="1.55311">
        <ele>302</ele>
        <time>2021-04-09T15:24:58Z</time>
      </trkpt>
      <trkpt lat="44.54916" lon="1.55299">
        <ele>299</ele>
        <time>2021-04-09T15:25:05Z</time>
      </trkpt>
      <trkpt lat="44.54877" lon="1.55272">
        <ele>296</ele>
        <time>2021-04-09T15:25:15Z</time>
      </trkpt>
      <trkpt lat="44.54836" lon="1.55237">
        <ele>294</ele>
        <time>2021-04-09T15:25:27Z</time>
      </trkpt>
      <trkpt lat="44.54824" lon="1.5521">
        <ele>289</ele>
        <time>2021-04-09T15:25:32Z</time>
      </trkpt>
      <trkpt lat="44.54822" lon="1.55189">
        <ele>286</ele>
        <time>2021-04-09T15:25:35Z</time>
      </trkpt>
      <trkpt lat="44.54805" lon="1.55166">
        <ele>281</ele>
        <time>2021-04-09T15:25:41Z</time>
      </trkpt>
      <trkpt lat="44.54804" lon="1.55158">
        <ele>280</ele>
        <time>2021-04-09T15:25:42Z</time>
      </trkpt>
      <trkpt lat="44.54791" lon="1.55136">
        <ele>276</ele>
        <time>2021-04-09T15:25:47Z</time>
      </trkpt>
      <trkpt lat="44.54781" lon="1.55102">
        <ele>272</ele>
        <time>2021-04-09T15:25:53Z</time>
      </trkpt>
      <trkpt lat="44.5475" lon="1.55047">
        <ele>268</ele>
        <time>2021-04-09T15:26:05Z</time>
      </trkpt>
      <trkpt lat="44.54722" lon="1.55014">
        <ele>258</ele>
        <time>2021-04-09T15:26:13Z</time>
      </trkpt>
      <trkpt lat="44.54704" lon="1.55005">
        <ele>254</ele>
        <time>2021-04-09T15:26:18Z</time>
      </trkpt>
      <trkpt lat="44.547" lon="1.54998">
        <ele>252</ele>
        <time>2021-04-09T15:26:19Z</time>
      </trkpt>
      <trkpt lat="44.5468" lon="1.54982">
        <ele>245</ele>
        <time>2021-04-09T15:26:25Z</time>
      </trkpt>
      <trkpt lat="44.54678" lon="1.54975">
        <ele>243</ele>
        <time>2021-04-09T15:26:26Z</time>
      </trkpt>
      <trkpt lat="44.54664" lon="1.5496">
        <ele>237</ele>
        <time>2021-04-09T15:26:30Z</time>
      </trkpt>
      <trkpt lat="44.54641" lon="1.54953">
        <ele>232</ele>
        <time>2021-04-09T15:26:36Z</time>
      </trkpt>
      <trkpt lat="44.5463" lon="1.54953">
        <ele>229</ele>
        <time>2021-04-09T15:26:38Z</time>
      </trkpt>
      <trkpt lat="44.54616" lon="1.54943">
        <ele>226</ele>
        <time>2021-04-09T15:26:42Z</time>
      </trkpt>
      <trkpt lat="44.54603" lon="1.54939">
        <ele>223</ele>
        <time>2021-04-09T15:26:45Z</time>
      </trkpt>
      <trkpt lat="44.54593" lon="1.54928">
        <ele>220</ele>
        <time>2021-04-09T15:26:48Z</time>
      </trkpt>
      <trkpt lat="44.54561" lon="1.54902">
        <ele>211</ele>
        <time>2021-04-09T15:26:57Z</time>
      </trkpt>
      <trkpt lat="44.5455" lon="1.54898">
        <ele>208</ele>
        <time>2021-04-09T15:26:59Z</time>
      </trkpt>
      <trkpt lat="44.54521" lon="1.54901">
        <ele>204</ele>
        <time>2021-04-09T15:27:06Z</time>
      </trkpt>
      <trkpt lat="44.54516" lon="1.54904">
        <ele>203</ele>
        <time>2021-04-09T15:27:07Z</time>
      </trkpt>
      <trkpt lat="44.54511" lon="1.54908">
        <ele>203</ele>
        <time>2021-04-09T15:27:09Z</time>
      </trkpt>
      <trkpt lat="44.54492" lon="1.54936">
        <ele>201</ele>
        <time>2021-04-09T15:27:15Z</time>
      </trkpt>
      <trkpt lat="44.54489" lon="1.54937">
        <ele>201</ele>
        <time>2021-04-09T15:27:16Z</time>
      </trkpt>
      <trkpt lat="44.54475" lon="1.54931">
        <ele>198</ele>
        <time>2021-04-09T15:27:19Z</time>
      </trkpt>
      <trkpt lat="44.54471" lon="1.54925">
        <ele>196</ele>
        <time>2021-04-09T15:27:21Z</time>
      </trkpt>
      <trkpt lat="44.54466" lon="1.54906">
        <ele>195</ele>
        <time>2021-04-09T15:27:24Z</time>
      </trkpt>
      <trkpt lat="44.54461" lon="1.54902">
        <ele>194</ele>
        <time>2021-04-09T15:27:25Z</time>
      </trkpt>
      <trkpt lat="44.54442" lon="1.54914">
        <ele>191</ele>
        <time>2021-04-09T15:27:30Z</time>
      </trkpt>
      <trkpt lat="44.54429" lon="1.54929">
        <ele>189</ele>
        <time>2021-04-09T15:27:34Z</time>
      </trkpt>
      <trkpt lat="44.54425" lon="1.5493">
        <ele>188</ele>
        <time>2021-04-09T15:27:35Z</time>
      </trkpt>
      <trkpt lat="44.54418" lon="1.54926">
        <ele>187</ele>
        <time>2021-04-09T15:27:37Z</time>
      </trkpt>
      <trkpt lat="44.54419" lon="1.54893">
        <ele>187</ele>
        <time>2021-04-09T15:27:42Z</time>
      </trkpt>
      <trkpt lat="44.5441" lon="1.54835">
        <ele>189</ele>
        <time>2021-04-09T15:27:52Z</time>
      </trkpt>
      <trkpt lat="44.54377" lon="1.54756">
        <ele>192</ele>
        <time>2021-04-09T15:28:07Z</time>
      </trkpt>
      <trkpt lat="44.54372" lon="1.54674">
        <ele>196</ele>
        <time>2021-04-09T15:28:21Z</time>
      </trkpt>
      <trkpt lat="44.54364" lon="1.54637">
        <ele>198</ele>
        <time>2021-04-09T15:28:28Z</time>
      </trkpt>
      <trkpt lat="44.54345" lon="1.54601">
        <ele>197</ele>
        <time>2021-04-09T15:28:35Z</time>
      </trkpt>
      <trkpt lat="44.54317" lon="1.5456">
        <ele>198</ele>
        <time>2021-04-09T15:28:44Z</time>
      </trkpt>
      <trkpt lat="44.54277" lon="1.54508">
        <ele>202</ele>
        <time>2021-04-09T15:28:57Z</time>
      </trkpt>
      <trkpt lat="44.54256" lon="1.54487">
        <ele>203</ele>
        <time>2021-04-09T15:29:03Z</time>
      </trkpt>
      <trkpt lat="44.54235" lon="1.54483">
        <ele>203</ele>
        <time>2021-04-09T15:29:08Z</time>
      </trkpt>
      <trkpt lat="44.5422" lon="1.54483">
        <ele>203</ele>
        <time>2021-04-09T15:29:12Z</time>
      </trkpt>
      <trkpt lat="44.54192" lon="1.54494">
        <ele>200</ele>
        <time>2021-04-09T15:29:18Z</time>
      </trkpt>
      <trkpt lat="44.54178" lon="1.54497">
        <ele>200</ele>
        <time>2021-04-09T15:29:22Z</time>
      </trkpt>
      <trkpt lat="44.54169" lon="1.54503">
        <ele>199</ele>
        <time>2021-04-09T15:29:24Z</time>
      </trkpt>
      <trkpt lat="44.54172" lon="1.54485">
        <ele>203</ele>
        <time>2021-04-09T15:29:27Z</time>
      </trkpt>
      <trkpt lat="44.54153" lon="1.54491">
        <ele>199</ele>
        <time>2021-04-09T15:29:32Z</time>
      </trkpt>
      <trkpt lat="44.54121" lon="1.5447">
        <ele>198</ele>
        <time>2021-04-09T15:29:40Z</time>
      </trkpt>
      <trkpt lat="44.5411" lon="1.54468">
        <ele>196</ele>
        <time>2021-04-09T15:29:43Z</time>
      </trkpt>
      <trkpt lat="44.54088" lon="1.54455">
        <ele>193</ele>
        <time>2021-04-09T15:29:48Z</time>
      </trkpt>
      <trkpt lat="44.54076" lon="1.54427">
        <ele>195</ele>
        <time>2021-04-09T15:29:54Z</time>
      </trkpt>
      <trkpt lat="44.54076" lon="1.54413">
        <ele>195</ele>
        <time>2021-04-09T15:29:56Z</time>
      </trkpt>
      <trkpt lat="44.54073" lon="1.54406">
        <ele>196</ele>
        <time>2021-04-09T15:29:57Z</time>
      </trkpt>
      <trkpt lat="44.5407" lon="1.54411">
        <ele>196</ele>
        <time>2021-04-09T15:29:58Z</time>
      </trkpt>
      <trkpt lat="44.5407" lon="1.54445">
        <ele>195</ele>
        <time>2021-04-09T15:30:04Z</time>
      </trkpt>
      <trkpt lat="44.54075" lon="1.54478">
        <ele>192</ele>
        <time>2021-04-09T15:30:10Z</time>
      </trkpt>
      <trkpt lat="44.5407" lon="1.54486">
        <ele>193</ele>
        <time>2021-04-09T15:30:11Z</time>
      </trkpt>
      <trkpt lat="44.54061" lon="1.54491">
        <ele>194</ele>
        <time>2021-04-09T15:30:14Z</time>
      </trkpt>
      <trkpt lat="44.54055" lon="1.54504">
        <ele>196</ele>
        <time>2021-04-09T15:30:16Z</time>
      </trkpt>
      <trkpt lat="44.54053" lon="1.54512">
        <ele>197</ele>
        <time>2021-04-09T15:30:18Z</time>
      </trkpt>
      <trkpt lat="44.54053" lon="1.54537">
        <ele>200</ele>
        <time>2021-04-09T15:30:22Z</time>
      </trkpt>
      <trkpt lat="44.54059" lon="1.54566">
        <ele>200</ele>
        <time>2021-04-09T15:30:27Z</time>
      </trkpt>
      <trkpt lat="44.54074" lon="1.54588">
        <ele>197</ele>
        <time>2021-04-09T15:30:32Z</time>
      </trkpt>
      <trkpt lat="44.54102" lon="1.54609">
        <ele>196</ele>
        <time>2021-04-09T15:30:39Z</time>
      </trkpt>
      <trkpt lat="44.54145" lon="1.54667">
        <ele>194</ele>
        <time>2021-04-09T15:30:53Z</time>
      </trkpt>
      <trkpt lat="44.54161" lon="1.54683">
        <ele>194</ele>
        <time>2021-04-09T15:30:58Z</time>
      </trkpt>
      <trkpt lat="44.54169" lon="1.54689">
        <ele>194</ele>
        <time>2021-04-09T15:31:00Z</time>
      </trkpt>
      <trkpt lat="44.54197" lon="1.54702">
        <ele>198</ele>
        <time>2021-04-09T15:31:07Z</time>
      </trkpt>
      <trkpt lat="44.54218" lon="1.547">
        <ele>197</ele>
        <time>2021-04-09T15:31:12Z</time>
      </trkpt>
      <trkpt lat="44.54248" lon="1.54675">
        <ele>192</ele>
        <time>2021-04-09T15:31:20Z</time>
      </trkpt>
      <trkpt lat="44.54254" lon="1.54662">
        <ele>190</ele>
        <time>2021-04-09T15:31:22Z</time>
      </trkpt>
      <trkpt lat="44.54259" lon="1.54634">
        <ele>189</ele>
        <time>2021-04-09T15:31:27Z</time>
      </trkpt>
      <trkpt lat="44.54262" lon="1.54628">
        <ele>188</ele>
        <time>2021-04-09T15:31:29Z</time>
      </trkpt>
      <trkpt lat="44.54266" lon="1.54627">
        <ele>189</ele>
        <time>2021-04-09T15:31:29Z</time>
      </trkpt>
      <trkpt lat="44.54276" lon="1.54629">
        <ele>189</ele>
        <time>2021-04-09T15:31:32Z</time>
      </trkpt>
      <trkpt lat="44.54289" lon="1.54641">
        <ele>189</ele>
        <time>2021-04-09T15:31:35Z</time>
      </trkpt>
      <trkpt lat="44.54299" lon="1.54656">
        <ele>188</ele>
        <time>2021-04-09T15:31:39Z</time>
      </trkpt>
      <trkpt lat="44.54309" lon="1.54683">
        <ele>188</ele>
        <time>2021-04-09T15:31:44Z</time>
      </trkpt>
      <trkpt lat="44.54319" lon="1.5474">
        <ele>190</ele>
        <time>2021-04-09T15:31:54Z</time>
      </trkpt>
      <trkpt lat="44.54314" lon="1.54798">
        <ele>192</ele>
        <time>2021-04-09T15:32:03Z</time>
      </trkpt>
      <trkpt lat="44.54297" lon="1.54861">
        <ele>195</ele>
        <time>2021-04-09T15:32:15Z</time>
      </trkpt>
      <trkpt lat="44.54251" lon="1.54973">
        <ele>198</ele>
        <time>2021-04-09T15:32:36Z</time>
      </trkpt>
      <trkpt lat="44.54241" lon="1.5501">
        <ele>199</ele>
        <time>2021-04-09T15:32:43Z</time>
      </trkpt>
      <trkpt lat="44.54236" lon="1.5505">
        <ele>198</ele>
        <time>2021-04-09T15:32:50Z</time>
      </trkpt>
      <trkpt lat="44.54254" lon="1.55097">
        <ele>188</ele>
        <time>2021-04-09T15:32:58Z</time>
      </trkpt>
      <trkpt lat="44.54259" lon="1.55124">
        <ele>186</ele>
        <time>2021-04-09T15:33:03Z</time>
      </trkpt>
      <trkpt lat="44.5426" lon="1.55111">
        <ele>187</ele>
        <time>2021-04-09T15:33:05Z</time>
      </trkpt>
      <trkpt lat="44.54257" lon="1.55101">
        <ele>187</ele>
        <time>2021-04-09T15:33:07Z</time>
      </trkpt>
      <trkpt lat="44.54254" lon="1.551">
        <ele>188</ele>
        <time>2021-04-09T15:33:08Z</time>
      </trkpt>
      <trkpt lat="44.54236" lon="1.55115">
        <ele>192</ele>
        <time>2021-04-09T15:33:13Z</time>
      </trkpt>
      <trkpt lat="44.5418" lon="1.55148">
        <ele>203</ele>
        <time>2021-04-09T15:33:27Z</time>
      </trkpt>
      <trkpt lat="44.54155" lon="1.55168">
        <ele>203</ele>
        <time>2021-04-09T15:33:34Z</time>
      </trkpt>
      <trkpt lat="44.54148" lon="1.55171">
        <ele>204</ele>
        <time>2021-04-09T15:33:35Z</time>
      </trkpt>
      <trkpt lat="44.54136" lon="1.55171">
        <ele>206</ele>
        <time>2021-04-09T15:33:38Z</time>
      </trkpt>
      <trkpt lat="44.54101" lon="1.55192">
        <ele>207</ele>
        <time>2021-04-09T15:33:47Z</time>
      </trkpt>
      <trkpt lat="44.54093" lon="1.55194">
        <ele>208</ele>
        <time>2021-04-09T15:33:49Z</time>
      </trkpt>
      <trkpt lat="44.54016" lon="1.55173">
        <ele>225</ele>
        <time>2021-04-09T15:34:07Z</time>
      </trkpt>
      <trkpt lat="44.54" lon="1.55172">
        <ele>228</ele>
        <time>2021-04-09T15:34:11Z</time>
      </trkpt>
      <trkpt lat="44.53979" lon="1.55161">
        <ele>234</ele>
        <time>2021-04-09T15:34:16Z</time>
      </trkpt>
      <trkpt lat="44.53967" lon="1.55163">
        <ele>236</ele>
        <time>2021-04-09T15:34:19Z</time>
      </trkpt>
      <trkpt lat="44.53945" lon="1.5516">
        <ele>241</ele>
        <time>2021-04-09T15:34:24Z</time>
      </trkpt>
      <trkpt lat="44.53918" lon="1.55166">
        <ele>244</ele>
        <time>2021-04-09T15:34:30Z</time>
      </trkpt>
      <trkpt lat="44.53894" lon="1.55178">
        <ele>248</ele>
        <time>2021-04-09T15:34:36Z</time>
      </trkpt>
      <trkpt lat="44.53861" lon="1.55207">
        <ele>252</ele>
        <time>2021-04-09T15:34:46Z</time>
      </trkpt>
      <trkpt lat="44.53838" lon="1.55236">
        <ele>254</ele>
        <time>2021-04-09T15:34:53Z</time>
      </trkpt>
      <trkpt lat="44.53827" lon="1.55254">
        <ele>254</ele>
        <time>2021-04-09T15:34:57Z</time>
      </trkpt>
      <trkpt lat="44.53817" lon="1.55277">
        <ele>254</ele>
        <time>2021-04-09T15:35:01Z</time>
      </trkpt>
      <trkpt lat="44.53811" lon="1.55298">
        <ele>254</ele>
        <time>2021-04-09T15:35:05Z</time>
      </trkpt>
      <trkpt lat="44.53801" lon="1.5531">
        <ele>254</ele>
        <time>2021-04-09T15:35:08Z</time>
      </trkpt>
      <trkpt lat="44.53788" lon="1.5532">
        <ele>256</ele>
        <time>2021-04-09T15:35:11Z</time>
      </trkpt>
      <trkpt lat="44.53753" lon="1.55327">
        <ele>262</ele>
        <time>2021-04-09T15:35:20Z</time>
      </trkpt>
      <trkpt lat="44.53694" lon="1.55325">
        <ele>266</ele>
        <time>2021-04-09T15:35:34Z</time>
      </trkpt>
      <trkpt lat="44.53679" lon="1.55327">
        <ele>266</ele>
        <time>2021-04-09T15:35:37Z</time>
      </trkpt>
      <trkpt lat="44.53645" lon="1.55339">
        <ele>265</ele>
        <time>2021-04-09T15:35:45Z</time>
      </trkpt>
      <trkpt lat="44.53623" lon="1.55342">
        <ele>266</ele>
        <time>2021-04-09T15:35:50Z</time>
      </trkpt>
      <trkpt lat="44.53612" lon="1.55341">
        <ele>266</ele>
        <time>2021-04-09T15:35:53Z</time>
      </trkpt>
      <trkpt lat="44.53574" lon="1.5533">
        <ele>268</ele>
        <time>2021-04-09T15:36:02Z</time>
      </trkpt>
      <trkpt lat="44.53558" lon="1.55321">
        <ele>268</ele>
        <time>2021-04-09T15:36:06Z</time>
      </trkpt>
      <trkpt lat="44.53549" lon="1.55304">
        <ele>268</ele>
        <time>2021-04-09T15:36:10Z</time>
      </trkpt>
      <trkpt lat="44.53545" lon="1.55201">
        <ele>276</ele>
        <time>2021-04-09T15:36:27Z</time>
      </trkpt>
      <trkpt lat="44.53541" lon="1.55177">
        <ele>277</ele>
        <time>2021-04-09T15:36:31Z</time>
      </trkpt>
      <trkpt lat="44.53531" lon="1.55161">
        <ele>278</ele>
        <time>2021-04-09T15:36:34Z</time>
      </trkpt>
      <trkpt lat="44.53526" lon="1.55157">
        <ele>278</ele>
        <time>2021-04-09T15:36:36Z</time>
      </trkpt>
      <trkpt lat="44.53489" lon="1.55146">
        <ele>277</ele>
        <time>2021-04-09T15:36:45Z</time>
      </trkpt>
      <trkpt lat="44.53473" lon="1.55145">
        <ele>278</ele>
        <time>2021-04-09T15:36:48Z</time>
      </trkpt>
      <trkpt lat="44.5347" lon="1.55142">
        <ele>278</ele>
        <time>2021-04-09T15:36:49Z</time>
      </trkpt>
      <trkpt lat="44.53465" lon="1.5512">
        <ele>279</ele>
        <time>2021-04-09T15:36:53Z</time>
      </trkpt>
      <trkpt lat="44.53443" lon="1.55059">
        <ele>283</ele>
        <time>2021-04-09T15:37:04Z</time>
      </trkpt>
      <trkpt lat="44.53423" lon="1.54966">
        <ele>289</ele>
        <time>2021-04-09T15:37:21Z</time>
      </trkpt>
      <trkpt lat="44.53414" lon="1.54812">
        <ele>301</ele>
        <time>2021-04-09T15:37:46Z</time>
      </trkpt>
      <trkpt lat="44.53401" lon="1.5473">
        <ele>305</ele>
        <time>2021-04-09T15:38:00Z</time>
      </trkpt>
      <trkpt lat="44.53387" lon="1.54677">
        <ele>309</ele>
        <time>2021-04-09T15:38:10Z</time>
      </trkpt>
      <trkpt lat="44.53362" lon="1.54619">
        <ele>313</ele>
        <time>2021-04-09T15:38:21Z</time>
      </trkpt>
      <trkpt lat="44.53345" lon="1.54586">
        <ele>315</ele>
        <time>2021-04-09T15:38:28Z</time>
      </trkpt>
      <trkpt lat="44.53307" lon="1.54527">
        <ele>316</ele>
        <time>2021-04-09T15:38:41Z</time>
      </trkpt>
      <trkpt lat="44.53267" lon="1.54474">
        <ele>320</ele>
        <time>2021-04-09T15:38:54Z</time>
      </trkpt>
      <trkpt lat="44.5324" lon="1.54433">
        <ele>323</ele>
        <time>2021-04-09T15:39:03Z</time>
      </trkpt>
      <trkpt lat="44.53215" lon="1.54388">
        <ele>324</ele>
        <time>2021-04-09T15:39:13Z</time>
      </trkpt>
      <trkpt lat="44.53166" lon="1.54337">
        <ele>325</ele>
        <time>2021-04-09T15:39:27Z</time>
      </trkpt>
      <trkpt lat="44.53144" lon="1.54318">
        <ele>324</ele>
        <time>2021-04-09T15:39:33Z</time>
      </trkpt>
      <trkpt lat="44.53071" lon="1.54268">
        <ele>326</ele>
        <time>2021-04-09T15:39:52Z</time>
      </trkpt>
      <trkpt lat="44.53013" lon="1.54217">
        <ele>326</ele>
        <time>2021-04-09T15:40:08Z</time>
      </trkpt>
      <trkpt lat="44.52984" lon="1.542">
        <ele>327</ele>
        <time>2021-04-09T15:40:15Z</time>
      </trkpt>
      <trkpt lat="44.52957" lon="1.5419">
        <ele>327</ele>
        <time>2021-04-09T15:40:22Z</time>
      </trkpt>
      <trkpt lat="44.52936" lon="1.54185">
        <ele>327</ele>
        <time>2021-04-09T15:40:27Z</time>
      </trkpt>
      <trkpt lat="44.52909" lon="1.54183">
        <ele>328</ele>
        <time>2021-04-09T15:40:33Z</time>
      </trkpt>
      <trkpt lat="44.5285" lon="1.54199">
        <ele>332</ele>
        <time>2021-04-09T15:40:47Z</time>
      </trkpt>
      <trkpt lat="44.52833" lon="1.54201">
        <ele>334</ele>
        <time>2021-04-09T15:40:51Z</time>
      </trkpt>
      <trkpt lat="44.52808" lon="1.54198">
        <ele>335</ele>
        <time>2021-04-09T15:40:57Z</time>
      </trkpt>
      <trkpt lat="44.52798" lon="1.54222">
        <ele>334</ele>
        <time>2021-04-09T15:41:02Z</time>
      </trkpt>
      <trkpt lat="44.52795" lon="1.54244">
        <ele>332</ele>
        <time>2021-04-09T15:41:05Z</time>
      </trkpt>
      <trkpt lat="44.52807" lon="1.54308">
        <ele>323</ele>
        <time>2021-04-09T15:41:16Z</time>
      </trkpt>
      <trkpt lat="44.52807" lon="1.5433">
        <ele>320</ele>
        <time>2021-04-09T15:41:20Z</time>
      </trkpt>
      <trkpt lat="44.52797" lon="1.54362">
        <ele>318</ele>
        <time>2021-04-09T15:41:26Z</time>
      </trkpt>
      <trkpt lat="44.52781" lon="1.5444">
        <ele>313</ele>
        <time>2021-04-09T15:41:39Z</time>
      </trkpt>
      <trkpt lat="44.52749" lon="1.5457">
        <ele>303</ele>
        <time>2021-04-09T15:42:02Z</time>
      </trkpt>
      <trkpt lat="44.52747" lon="1.54674">
        <ele>287</ele>
        <time>2021-04-09T15:42:19Z</time>
      </trkpt>
      <trkpt lat="44.5274" lon="1.54692">
        <ele>283</ele>
        <time>2021-04-09T15:42:23Z</time>
      </trkpt>
      <trkpt lat="44.52729" lon="1.5471">
        <ele>277</ele>
        <time>2021-04-09T15:42:27Z</time>
      </trkpt>
      <trkpt lat="44.52724" lon="1.54749">
        <ele>271</ele>
        <time>2021-04-09T15:42:33Z</time>
      </trkpt>
      <trkpt lat="44.52709" lon="1.54801">
        <ele>260</ele>
        <time>2021-04-09T15:42:43Z</time>
      </trkpt>
      <trkpt lat="44.52704" lon="1.54841">
        <ele>254</ele>
        <time>2021-04-09T15:42:50Z</time>
      </trkpt>
      <trkpt lat="44.52694" lon="1.54893">
        <ele>246</ele>
        <time>2021-04-09T15:42:58Z</time>
      </trkpt>
      <trkpt lat="44.52692" lon="1.54925">
        <ele>243</ele>
        <time>2021-04-09T15:43:04Z</time>
      </trkpt>
      <trkpt lat="44.52697" lon="1.54941">
        <ele>243</ele>
        <time>2021-04-09T15:43:07Z</time>
      </trkpt>
      <trkpt lat="44.52703" lon="1.54948">
        <ele>243</ele>
        <time>2021-04-09T15:43:09Z</time>
      </trkpt>
      <trkpt lat="44.52775" lon="1.54956">
        <ele>236</ele>
        <time>2021-04-09T15:43:25Z</time>
      </trkpt>
      <trkpt lat="44.52789" lon="1.54962">
        <ele>232</ele>
        <time>2021-04-09T15:43:29Z</time>
      </trkpt>
      <trkpt lat="44.52805" lon="1.54982">
        <ele>226</ele>
        <time>2021-04-09T15:43:34Z</time>
      </trkpt>
      <trkpt lat="44.52818" lon="1.55011">
        <ele>220</ele>
        <time>2021-04-09T15:43:40Z</time>
      </trkpt>
      <trkpt lat="44.52837" lon="1.55034">
        <ele>213</ele>
        <time>2021-04-09T15:43:45Z</time>
      </trkpt>
      <trkpt lat="44.52858" lon="1.55065">
        <ele>203</ele>
        <time>2021-04-09T15:43:53Z</time>
      </trkpt>
      <trkpt lat="44.52877" lon="1.55069">
        <ele>197</ele>
        <time>2021-04-09T15:43:57Z</time>
      </trkpt>
      <trkpt lat="44.52884" lon="1.55068">
        <ele>195</ele>
        <time>2021-04-09T15:43:59Z</time>
      </trkpt>
      <trkpt lat="44.52893" lon="1.55062">
        <ele>192</ele>
        <time>2021-04-09T15:44:01Z</time>
      </trkpt>
      <trkpt lat="44.52898" lon="1.55053">
        <ele>191</ele>
        <time>2021-04-09T15:44:03Z</time>
      </trkpt>
      <trkpt lat="44.52915" lon="1.55035">
        <ele>186</ele>
        <time>2021-04-09T15:44:08Z</time>
      </trkpt>
      <trkpt lat="44.52922" lon="1.5505">
        <ele>185</ele>
        <time>2021-04-09T15:44:11Z</time>
      </trkpt>
      <trkpt lat="44.52934" lon="1.55063">
        <ele>185</ele>
        <time>2021-04-09T15:44:14Z</time>
      </trkpt>
      <trkpt lat="44.52945" lon="1.55096">
        <ele>185</ele>
        <time>2021-04-09T15:44:20Z</time>
      </trkpt>
      <trkpt lat="44.52953" lon="1.55109">
        <ele>185</ele>
        <time>2021-04-09T15:44:23Z</time>
      </trkpt>
      <trkpt lat="44.52956" lon="1.55125">
        <ele>186</ele>
        <time>2021-04-09T15:44:26Z</time>
      </trkpt>
      <trkpt lat="44.52935" lon="1.55213">
        <ele>183</ele>
        <time>2021-04-09T15:44:42Z</time>
      </trkpt>
      <trkpt lat="44.52931" lon="1.55278">
        <ele>179</ele>
        <time>2021-04-09T15:44:52Z</time>
      </trkpt>
      <trkpt lat="44.52921" lon="1.55316">
        <ele>172</ele>
        <time>2021-04-09T15:44:59Z</time>
      </trkpt>
      <trkpt lat="44.52921" lon="1.55333">
        <ele>171</ele>
        <time>2021-04-09T15:45:02Z</time>
      </trkpt>
      <trkpt lat="44.52927" lon="1.55351">
        <ele>172</ele>
        <time>2021-04-09T15:45:05Z</time>
      </trkpt>
      <trkpt lat="44.52967" lon="1.55428">
        <ele>173</ele>
        <time>2021-04-09T15:45:21Z</time>
      </trkpt>
      <trkpt lat="44.52984" lon="1.55444">
        <ele>173</ele>
        <time>2021-04-09T15:45:26Z</time>
      </trkpt>
      <trkpt lat="44.53007" lon="1.55453">
        <ele>173</ele>
        <time>2021-04-09T15:45:31Z</time>
      </trkpt>
      <trkpt lat="44.53024" lon="1.55454">
        <ele>172</ele>
        <time>2021-04-09T15:45:35Z</time>
      </trkpt>
      <trkpt lat="44.53045" lon="1.55507">
        <ele>167</ele>
        <time>2021-04-09T15:45:46Z</time>
      </trkpt>
      <trkpt lat="44.53045" lon="1.55521">
        <ele>168</ele>
        <time>2021-04-09T15:45:48Z</time>
      </trkpt>
      <trkpt lat="44.53069" lon="1.55559">
        <ele>173</ele>
        <time>2021-04-09T15:45:56Z</time>
      </trkpt>
      <trkpt lat="44.53071" lon="1.55567">
        <ele>174</ele>
        <time>2021-04-09T15:45:58Z</time>
      </trkpt>
      <trkpt lat="44.53067" lon="1.55583">
        <ele>175</ele>
        <time>2021-04-09T15:46:01Z</time>
      </trkpt>
      <trkpt lat="44.53059" lon="1.55594">
        <ele>180</ele>
        <time>2021-04-09T15:46:03Z</time>
      </trkpt>
      <trkpt lat="44.53017" lon="1.55614">
        <ele>189</ele>
        <time>2021-04-09T15:46:14Z</time>
      </trkpt>
      <trkpt lat="44.52993" lon="1.55621">
        <ele>193</ele>
        <time>2021-04-09T15:46:19Z</time>
      </trkpt>
      <trkpt lat="44.52976" lon="1.55615">
        <ele>193</ele>
        <time>2021-04-09T15:46:23Z</time>
      </trkpt>
      <trkpt lat="44.52951" lon="1.55582">
        <ele>181</ele>
        <time>2021-04-09T15:46:31Z</time>
      </trkpt>
      <trkpt lat="44.52878" lon="1.55506">
        <ele>171</ele>
        <time>2021-04-09T15:46:53Z</time>
      </trkpt>
      <trkpt lat="44.52871" lon="1.55477">
        <ele>169</ele>
        <time>2021-04-09T15:46:58Z</time>
      </trkpt>
      <trkpt lat="44.52872" lon="1.55464">
        <ele>168</ele>
        <time>2021-04-09T15:47:00Z</time>
      </trkpt>
      <trkpt lat="44.52868" lon="1.55455">
        <ele>168</ele>
        <time>2021-04-09T15:47:02Z</time>
      </trkpt>
      <trkpt lat="44.52862" lon="1.55449">
        <ele>168</ele>
        <time>2021-04-09T15:47:03Z</time>
      </trkpt>
      <trkpt lat="44.52848" lon="1.55446">
        <ele>168</ele>
        <time>2021-04-09T15:47:07Z</time>
      </trkpt>
      <trkpt lat="44.52834" lon="1.55447">
        <ele>169</ele>
        <time>2021-04-09T15:47:10Z</time>
      </trkpt>
      <trkpt lat="44.52817" lon="1.55451">
        <ele>168</ele>
        <time>2021-04-09T15:47:14Z</time>
      </trkpt>
      <trkpt lat="44.52808" lon="1.55457">
        <ele>168</ele>
        <time>2021-04-09T15:47:16Z</time>
      </trkpt>
      <trkpt lat="44.52797" lon="1.5547">
        <ele>168</ele>
        <time>2021-04-09T15:47:20Z</time>
      </trkpt>
      <trkpt lat="44.52782" lon="1.55524">
        <ele>171</ele>
        <time>2021-04-09T15:47:29Z</time>
      </trkpt>
      <trkpt lat="44.52775" lon="1.55561">
        <ele>173</ele>
        <time>2021-04-09T15:47:36Z</time>
      </trkpt>
      <trkpt lat="44.52767" lon="1.55627">
        <ele>175</ele>
        <time>2021-04-09T15:47:47Z</time>
      </trkpt>
      <trkpt lat="44.52759" lon="1.55647">
        <ele>174</ele>
        <time>2021-04-09T15:47:51Z</time>
      </trkpt>
      <trkpt lat="44.5271" lon="1.55722">
        <ele>174</ele>
        <time>2021-04-09T15:48:08Z</time>
      </trkpt>
      <trkpt lat="44.52686" lon="1.55736">
        <ele>174</ele>
        <time>2021-04-09T15:48:14Z</time>
      </trkpt>
      <trkpt lat="44.52606" lon="1.55733">
        <ele>174</ele>
        <time>2021-04-09T15:48:32Z</time>
      </trkpt>
      <trkpt lat="44.52579" lon="1.55729">
        <ele>174</ele>
        <time>2021-04-09T15:48:39Z</time>
      </trkpt>
      <trkpt lat="44.52554" lon="1.55731">
        <ele>175</ele>
        <time>2021-04-09T15:48:45Z</time>
      </trkpt>
      <trkpt lat="44.5251" lon="1.55713">
        <ele>172</ele>
        <time>2021-04-09T15:48:55Z</time>
      </trkpt>
      <trkpt lat="44.52425" lon="1.55687">
        <ele>169</ele>
        <time>2021-04-09T15:49:16Z</time>
      </trkpt>
      <trkpt lat="44.52343" lon="1.55683">
        <ele>170</ele>
        <time>2021-04-09T15:49:35Z</time>
      </trkpt>
      <trkpt lat="44.52312" lon="1.55686">
        <ele>171</ele>
        <time>2021-04-09T15:49:42Z</time>
      </trkpt>
      <trkpt lat="44.52227" lon="1.55713">
        <ele>173</ele>
        <time>2021-04-09T15:50:02Z</time>
      </trkpt>
      <trkpt lat="44.52148" lon="1.55716">
        <ele>168</ele>
        <time>2021-04-09T15:50:21Z</time>
      </trkpt>
      <trkpt lat="44.521" lon="1.55753">
        <ele>165</ele>
        <time>2021-04-09T15:50:34Z</time>
      </trkpt>
      <trkpt lat="44.52068" lon="1.55787">
        <ele>170</ele>
        <time>2021-04-09T15:50:43Z</time>
      </trkpt>
      <trkpt lat="44.5203" lon="1.55819">
        <ele>171</ele>
        <time>2021-04-09T15:50:53Z</time>
      </trkpt>
      <trkpt lat="44.52006" lon="1.55824">
        <ele>167</ele>
        <time>2021-04-09T15:50:59Z</time>
      </trkpt>
      <trkpt lat="44.51975" lon="1.5582">
        <ele>164</ele>
        <time>2021-04-09T15:51:06Z</time>
      </trkpt>
      <trkpt lat="44.51924" lon="1.55842">
        <ele>162</ele>
        <time>2021-04-09T15:51:19Z</time>
      </trkpt>
      <trkpt lat="44.519" lon="1.55857">
        <ele>165</ele>
        <time>2021-04-09T15:51:25Z</time>
      </trkpt>
      <trkpt lat="44.51872" lon="1.55867">
        <ele>169</ele>
        <time>2021-04-09T15:51:32Z</time>
      </trkpt>
      <trkpt lat="44.51853" lon="1.5587">
        <ele>171</ele>
        <time>2021-04-09T15:51:36Z</time>
      </trkpt>
      <trkpt lat="44.51797" lon="1.55856">
        <ele>175</ele>
        <time>2021-04-09T15:51:49Z</time>
      </trkpt>
      <trkpt lat="44.5178" lon="1.55843">
        <ele>173</ele>
        <time>2021-04-09T15:51:54Z</time>
      </trkpt>
      <trkpt lat="44.51762" lon="1.55812">
        <ele>169</ele>
        <time>2021-04-09T15:52:01Z</time>
      </trkpt>
      <trkpt lat="44.51725" lon="1.55766">
        <ele>168</ele>
        <time>2021-04-09T15:52:12Z</time>
      </trkpt>
      <trkpt lat="44.51695" lon="1.55721">
        <ele>165</ele>
        <time>2021-04-09T15:52:22Z</time>
      </trkpt>
      <trkpt lat="44.51681" lon="1.5571">
        <ele>165</ele>
        <time>2021-04-09T15:52:26Z</time>
      </trkpt>
      <trkpt lat="44.51655" lon="1.55699">
        <ele>164</ele>
        <time>2021-04-09T15:52:32Z</time>
      </trkpt>
      <trkpt lat="44.51622" lon="1.55696">
        <ele>164</ele>
        <time>2021-04-09T15:52:40Z</time>
      </trkpt>
      <trkpt lat="44.51561" lon="1.5571">
        <ele>165</ele>
        <time>2021-04-09T15:52:55Z</time>
      </trkpt>
      <trkpt lat="44.51531" lon="1.55727">
        <ele>164</ele>
        <time>2021-04-09T15:53:02Z</time>
      </trkpt>
      <trkpt lat="44.51509" lon="1.55743">
        <ele>162</ele>
        <time>2021-04-09T15:53:08Z</time>
      </trkpt>
      <trkpt lat="44.51486" lon="1.55767">
        <ele>164</ele>
        <time>2021-04-09T15:53:15Z</time>
      </trkpt>
      <trkpt lat="44.51481" lon="1.55775">
        <ele>166</ele>
        <time>2021-04-09T15:53:16Z</time>
      </trkpt>
      <trkpt lat="44.51463" lon="1.55817">
        <ele>172</ele>
        <time>2021-04-09T15:53:25Z</time>
      </trkpt>
      <trkpt lat="44.51449" lon="1.55867">
        <ele>176</ele>
        <time>2021-04-09T15:53:33Z</time>
      </trkpt>
      <trkpt lat="44.51442" lon="1.55882">
        <ele>176</ele>
        <time>2021-04-09T15:53:36Z</time>
      </trkpt>
      <trkpt lat="44.5143" lon="1.55888">
        <ele>173</ele>
        <time>2021-04-09T15:53:39Z</time>
      </trkpt>
      <trkpt lat="44.5142" lon="1.55883">
        <ele>170</ele>
        <time>2021-04-09T15:53:42Z</time>
      </trkpt>
      <trkpt lat="44.51416" lon="1.55867">
        <ele>168</ele>
        <time>2021-04-09T15:53:45Z</time>
      </trkpt>
      <trkpt lat="44.51415" lon="1.55842">
        <ele>167</ele>
        <time>2021-04-09T15:53:49Z</time>
      </trkpt>
      <trkpt lat="44.51419" lon="1.5579">
        <ele>162</ele>
        <time>2021-04-09T15:53:58Z</time>
      </trkpt>
      <trkpt lat="44.51418" lon="1.55783">
        <ele>161</ele>
        <time>2021-04-09T15:53:59Z</time>
      </trkpt>
      <trkpt lat="44.51407" lon="1.55765">
        <ele>161</ele>
        <time>2021-04-09T15:54:03Z</time>
      </trkpt>
      <trkpt lat="44.51388" lon="1.55758">
        <ele>162</ele>
        <time>2021-04-09T15:54:07Z</time>
      </trkpt>
      <trkpt lat="44.5133" lon="1.55745">
        <ele>166</ele>
        <time>2021-04-09T15:54:21Z</time>
      </trkpt>
      <trkpt lat="44.5128" lon="1.55743">
        <ele>166</ele>
        <time>2021-04-09T15:54:33Z</time>
      </trkpt>
      <trkpt lat="44.51228" lon="1.55751">
        <ele>166</ele>
        <time>2021-04-09T15:54:45Z</time>
      </trkpt>
      <trkpt lat="44.51186" lon="1.55762">
        <ele>168</ele>
        <time>2021-04-09T15:54:55Z</time>
      </trkpt>
      <trkpt lat="44.51079" lon="1.55779">
        <ele>167</ele>
        <time>2021-04-09T15:55:20Z</time>
      </trkpt>
      <trkpt lat="44.51042" lon="1.55782">
        <ele>167</ele>
        <time>2021-04-09T15:55:29Z</time>
      </trkpt>
      <trkpt lat="44.51019" lon="1.5578">
        <ele>166</ele>
        <time>2021-04-09T15:55:34Z</time>
      </trkpt>
      <trkpt lat="44.50973" lon="1.55766">
        <ele>162</ele>
        <time>2021-04-09T15:55:45Z</time>
      </trkpt>
      <trkpt lat="44.50959" lon="1.55765">
        <ele>163</ele>
        <time>2021-04-09T15:55:48Z</time>
      </trkpt>
      <trkpt lat="44.50911" lon="1.55753">
        <ele>162</ele>
        <time>2021-04-09T15:56:00Z</time>
      </trkpt>
      <trkpt lat="44.50877" lon="1.55739">
        <ele>163</ele>
        <time>2021-04-09T15:56:08Z</time>
      </trkpt>
      <trkpt lat="44.5083" lon="1.55707">
        <ele>163</ele>
        <time>2021-04-09T15:56:20Z</time>
      </trkpt>
      <trkpt lat="44.50776" lon="1.55656">
        <ele>166</ele>
        <time>2021-04-09T15:56:35Z</time>
      </trkpt>
      <trkpt lat="44.50759" lon="1.55631">
        <ele>165</ele>
        <time>2021-04-09T15:56:41Z</time>
      </trkpt>
      <trkpt lat="44.50742" lon="1.55597">
        <ele>162</ele>
        <time>2021-04-09T15:56:48Z</time>
      </trkpt>
      <trkpt lat="44.50691" lon="1.55533">
        <ele>162</ele>
        <time>2021-04-09T15:57:04Z</time>
      </trkpt>
      <trkpt lat="44.50656" lon="1.55514">
        <ele>160</ele>
        <time>2021-04-09T15:57:13Z</time>
      </trkpt>
      <trkpt lat="44.50646" lon="1.55506">
        <ele>159</ele>
        <time>2021-04-09T15:57:16Z</time>
      </trkpt>
      <trkpt lat="44.50626" lon="1.55497">
        <ele>158</ele>
        <time>2021-04-09T15:57:20Z</time>
      </trkpt>
      <trkpt lat="44.50588" lon="1.55487">
        <ele>159</ele>
        <time>2021-04-09T15:57:29Z</time>
      </trkpt>
      <trkpt lat="44.50567" lon="1.55485">
        <ele>158</ele>
        <time>2021-04-09T15:57:34Z</time>
      </trkpt>
      <trkpt lat="44.50557" lon="1.55487">
        <ele>157</ele>
        <time>2021-04-09T15:57:37Z</time>
      </trkpt>
      <trkpt lat="44.5053" lon="1.555">
        <ele>155</ele>
        <time>2021-04-09T15:57:43Z</time>
      </trkpt>
      <trkpt lat="44.50524" lon="1.55505">
        <ele>155</ele>
        <time>2021-04-09T15:57:45Z</time>
      </trkpt>
      <trkpt lat="44.50512" lon="1.55525">
        <ele>156</ele>
        <time>2021-04-09T15:57:49Z</time>
      </trkpt>
      <trkpt lat="44.50497" lon="1.55559">
        <ele>156</ele>
        <time>2021-04-09T15:57:56Z</time>
      </trkpt>
      <trkpt lat="44.5046" lon="1.55612">
        <ele>159</ele>
        <time>2021-04-09T15:58:08Z</time>
      </trkpt>
      <trkpt lat="44.50428" lon="1.55639">
        <ele>159</ele>
        <time>2021-04-09T15:58:17Z</time>
      </trkpt>
      <trkpt lat="44.50381" lon="1.55665">
        <ele>157</ele>
        <time>2021-04-09T15:58:29Z</time>
      </trkpt>
      <trkpt lat="44.50354" lon="1.55684">
        <ele>160</ele>
        <time>2021-04-09T15:58:36Z</time>
      </trkpt>
      <trkpt lat="44.50333" lon="1.55688">
        <ele>158</ele>
        <time>2021-04-09T15:58:41Z</time>
      </trkpt>
      <trkpt lat="44.50312" lon="1.55688">
        <ele>159</ele>
        <time>2021-04-09T15:58:46Z</time>
      </trkpt>
      <trkpt lat="44.5027" lon="1.55684">
        <ele>159</ele>
        <time>2021-04-09T15:58:56Z</time>
      </trkpt>
      <trkpt lat="44.5024" lon="1.55674">
        <ele>156</ele>
        <time>2021-04-09T15:59:03Z</time>
      </trkpt>
      <trkpt lat="44.50214" lon="1.55642">
        <ele>153</ele>
        <time>2021-04-09T15:59:11Z</time>
      </trkpt>
      <trkpt lat="44.50199" lon="1.55632">
        <ele>152</ele>
        <time>2021-04-09T15:59:15Z</time>
      </trkpt>
      <trkpt lat="44.50176" lon="1.5563">
        <ele>153</ele>
        <time>2021-04-09T15:59:20Z</time>
      </trkpt>
      <trkpt lat="44.50155" lon="1.55633">
        <ele>153</ele>
        <time>2021-04-09T15:59:25Z</time>
      </trkpt>
      <trkpt lat="44.50136" lon="1.55641">
        <ele>152</ele>
        <time>2021-04-09T15:59:30Z</time>
      </trkpt>
      <trkpt lat="44.5011" lon="1.55674">
        <ele>152</ele>
        <time>2021-04-09T15:59:38Z</time>
      </trkpt>
      <trkpt lat="44.50073" lon="1.55751">
        <ele>153</ele>
        <time>2021-04-09T15:59:53Z</time>
      </trkpt>
      <trkpt lat="44.50052" lon="1.55788">
        <ele>155</ele>
        <time>2021-04-09T16:00:01Z</time>
      </trkpt>
      <trkpt lat="44.50012" lon="1.55846">
        <ele>155</ele>
        <time>2021-04-09T16:00:15Z</time>
      </trkpt>
      <trkpt lat="44.49986" lon="1.55871">
        <ele>158</ele>
        <time>2021-04-09T16:00:22Z</time>
      </trkpt>
      <trkpt lat="44.49956" lon="1.5588">
        <ele>156</ele>
        <time>2021-04-09T16:00:29Z</time>
      </trkpt>
      <trkpt lat="44.49914" lon="1.55899">
        <ele>155</ele>
        <time>2021-04-09T16:00:40Z</time>
      </trkpt>
      <trkpt lat="44.49896" lon="1.559">
        <ele>155</ele>
        <time>2021-04-09T16:00:44Z</time>
      </trkpt>
      <trkpt lat="44.49864" lon="1.55887">
        <ele>153</ele>
        <time>2021-04-09T16:00:52Z</time>
      </trkpt>
      <trkpt lat="44.4983" lon="1.55879">
        <ele>153</ele>
        <time>2021-04-09T16:01:00Z</time>
      </trkpt>
      <trkpt lat="44.49821" lon="1.55872">
        <ele>154</ele>
        <time>2021-04-09T16:01:02Z</time>
      </trkpt>
      <trkpt lat="44.49772" lon="1.55796">
        <ele>153</ele>
        <time>2021-04-09T16:01:19Z</time>
      </trkpt>
      <trkpt lat="44.49726" lon="1.55736">
        <ele>159</ele>
        <time>2021-04-09T16:01:34Z</time>
      </trkpt>
      <trkpt lat="44.49713" lon="1.55708">
        <ele>162</ele>
        <time>2021-04-09T16:01:39Z</time>
      </trkpt>
      <trkpt lat="44.49706" lon="1.55686">
        <ele>162</ele>
        <time>2021-04-09T16:01:43Z</time>
      </trkpt>
      <trkpt lat="44.49709" lon="1.55676">
        <ele>160</ele>
        <time>2021-04-09T16:01:45Z</time>
      </trkpt>
      <trkpt lat="44.49708" lon="1.55658">
        <ele>159</ele>
        <time>2021-04-09T16:01:48Z</time>
      </trkpt>
      <trkpt lat="44.49716" lon="1.55603">
        <ele>152</ele>
        <time>2021-04-09T16:01:58Z</time>
      </trkpt>
      <trkpt lat="44.49708" lon="1.55577">
        <ele>152</ele>
        <time>2021-04-09T16:02:02Z</time>
      </trkpt>
      <trkpt lat="44.49696" lon="1.55563">
        <ele>153</ele>
        <time>2021-04-09T16:02:06Z</time>
      </trkpt>
      <trkpt lat="44.49679" lon="1.55557">
        <ele>155</ele>
        <time>2021-04-09T16:02:10Z</time>
      </trkpt>
      <trkpt lat="44.49671" lon="1.55551">
        <ele>155</ele>
        <time>2021-04-09T16:02:12Z</time>
      </trkpt>
      <trkpt lat="44.49626" lon="1.55501">
        <ele>155</ele>
        <time>2021-04-09T16:02:26Z</time>
      </trkpt>
      <trkpt lat="44.49611" lon="1.55472">
        <ele>154</ele>
        <time>2021-04-09T16:02:31Z</time>
      </trkpt>
      <trkpt lat="44.496" lon="1.55442">
        <ele>151</ele>
        <time>2021-04-09T16:02:37Z</time>
      </trkpt>
      <trkpt lat="44.49594" lon="1.55407">
        <ele>148</ele>
        <time>2021-04-09T16:02:43Z</time>
      </trkpt>
      <trkpt lat="44.49591" lon="1.55404">
        <ele>148</ele>
        <time>2021-04-09T16:02:44Z</time>
      </trkpt>
      <trkpt lat="44.49584" lon="1.55404">
        <ele>149</ele>
        <time>2021-04-09T16:02:46Z</time>
      </trkpt>
      <trkpt lat="44.49563" lon="1.55419">
        <ele>147</ele>
        <time>2021-04-09T16:02:51Z</time>
      </trkpt>
      <trkpt lat="44.49507" lon="1.55497">
        <ele>152</ele>
        <time>2021-04-09T16:03:10Z</time>
      </trkpt>
      <trkpt lat="44.49439" lon="1.55578">
        <ele>152</ele>
        <time>2021-04-09T16:03:30Z</time>
      </trkpt>
      <trkpt lat="44.49429" lon="1.55601">
        <ele>154</ele>
        <time>2021-04-09T16:03:35Z</time>
      </trkpt>
      <trkpt lat="44.49422" lon="1.55631">
        <ele>159</ele>
        <time>2021-04-09T16:03:40Z</time>
      </trkpt>
      <trkpt lat="44.49381" lon="1.55691">
        <ele>165</ele>
        <time>2021-04-09T16:03:54Z</time>
      </trkpt>
      <trkpt lat="44.49358" lon="1.55705">
        <ele>165</ele>
        <time>2021-04-09T16:04:00Z</time>
      </trkpt>
      <trkpt lat="44.49313" lon="1.55721">
        <ele>160</ele>
        <time>2021-04-09T16:04:11Z</time>
      </trkpt>
      <trkpt lat="44.49248" lon="1.5574">
        <ele>152</ele>
        <time>2021-04-09T16:04:26Z</time>
      </trkpt>
      <trkpt lat="44.49221" lon="1.55752">
        <ele>151</ele>
        <time>2021-04-09T16:04:33Z</time>
      </trkpt>
      <trkpt lat="44.49188" lon="1.55762">
        <ele>151</ele>
        <time>2021-04-09T16:04:41Z</time>
      </trkpt>
      <trkpt lat="44.49157" lon="1.55765">
        <ele>150</ele>
        <time>2021-04-09T16:04:48Z</time>
      </trkpt>
      <trkpt lat="44.49112" lon="1.55775">
        <ele>157</ele>
        <time>2021-04-09T16:04:59Z</time>
      </trkpt>
      <trkpt lat="44.49108" lon="1.55771">
        <ele>155</ele>
        <time>2021-04-09T16:05:00Z</time>
      </trkpt>
      <trkpt lat="44.49086" lon="1.55761">
        <ele>153</ele>
        <time>2021-04-09T16:05:05Z</time>
      </trkpt>
      <trkpt lat="44.49038" lon="1.55733">
        <ele>158</ele>
        <time>2021-04-09T16:05:17Z</time>
      </trkpt>
      <trkpt lat="44.48957" lon="1.55657">
        <ele>159</ele>
        <time>2021-04-09T16:05:40Z</time>
      </trkpt>
      <trkpt lat="44.48878" lon="1.55528">
        <ele>153</ele>
        <time>2021-04-09T16:06:08Z</time>
      </trkpt>
      <trkpt lat="44.48847" lon="1.55459">
        <ele>147</ele>
        <time>2021-04-09T16:06:22Z</time>
      </trkpt>
      <trkpt lat="44.4883" lon="1.55428">
        <ele>143</ele>
        <time>2021-04-09T16:06:28Z</time>
      </trkpt>
      <trkpt lat="44.48825" lon="1.55408">
        <ele>140</ele>
        <time>2021-04-09T16:06:32Z</time>
      </trkpt>
      <trkpt lat="44.48821" lon="1.55402">
        <ele>140</ele>
        <time>2021-04-09T16:06:33Z</time>
      </trkpt>
      <trkpt lat="44.48801" lon="1.55385">
        <ele>140</ele>
        <time>2021-04-09T16:06:39Z</time>
      </trkpt>
      <trkpt lat="44.48782" lon="1.55374">
        <ele>140</ele>
        <time>2021-04-09T16:06:44Z</time>
      </trkpt>
      <trkpt lat="44.48746" lon="1.55357">
        <ele>139</ele>
        <time>2021-04-09T16:06:52Z</time>
      </trkpt>
      <trkpt lat="44.48706" lon="1.55349">
        <ele>136</ele>
        <time>2021-04-09T16:07:02Z</time>
      </trkpt>
      <trkpt lat="44.48679" lon="1.55327">
        <ele>134</ele>
        <time>2021-04-09T16:07:09Z</time>
      </trkpt>
      <trkpt lat="44.48626" lon="1.55296">
        <ele>134</ele>
        <time>2021-04-09T16:07:23Z</time>
      </trkpt>
      <trkpt lat="44.48598" lon="1.5529">
        <ele>133</ele>
        <time>2021-04-09T16:07:29Z</time>
      </trkpt>
      <trkpt lat="44.48579" lon="1.5528">
        <ele>133</ele>
        <time>2021-04-09T16:07:34Z</time>
      </trkpt>
      <trkpt lat="44.48566" lon="1.55266">
        <ele>133</ele>
        <time>2021-04-09T16:07:38Z</time>
      </trkpt>
      <trkpt lat="44.48567" lon="1.55248">
        <ele>134</ele>
        <time>2021-04-09T16:07:41Z</time>
      </trkpt>
      <trkpt lat="44.48573" lon="1.5523">
        <ele>139</ele>
        <time>2021-04-09T16:07:44Z</time>
      </trkpt>
      <trkpt lat="44.48568" lon="1.5522">
        <ele>142</ele>
        <time>2021-04-09T16:07:46Z</time>
      </trkpt>
      <trkpt lat="44.48557" lon="1.55212">
        <ele>143</ele>
        <time>2021-04-09T16:07:49Z</time>
      </trkpt>
      <trkpt lat="44.48526" lon="1.55175">
        <ele>146</ele>
        <time>2021-04-09T16:07:59Z</time>
      </trkpt>
      <trkpt lat="44.48501" lon="1.55159">
        <ele>145</ele>
        <time>2021-04-09T16:08:05Z</time>
      </trkpt>
      <trkpt lat="44.48476" lon="1.55147">
        <ele>148</ele>
        <time>2021-04-09T16:08:11Z</time>
      </trkpt>
      <trkpt lat="44.48477" lon="1.5514">
        <ele>151</ele>
        <time>2021-04-09T16:08:12Z</time>
      </trkpt>
      <trkpt lat="44.48484" lon="1.55136">
        <ele>153</ele>
        <time>2021-04-09T16:08:14Z</time>
      </trkpt>
      <trkpt lat="44.48496" lon="1.55138">
        <ele>153</ele>
        <time>2021-04-09T16:08:17Z</time>
      </trkpt>
      <trkpt lat="44.48501" lon="1.55136">
        <ele>154</ele>
        <time>2021-04-09T16:08:18Z</time>
      </trkpt>
      <trkpt lat="44.48526" lon="1.55137">
        <ele>159</ele>
        <time>2021-04-09T16:08:24Z</time>
      </trkpt>
      <trkpt lat="44.48534" lon="1.55134">
        <ele>162</ele>
        <time>2021-04-09T16:08:26Z</time>
      </trkpt>
      <trkpt lat="44.4854" lon="1.55137">
        <ele>162</ele>
        <time>2021-04-09T16:08:27Z</time>
      </trkpt>
      <trkpt lat="44.48558" lon="1.55138">
        <ele>165</ele>
        <time>2021-04-09T16:08:32Z</time>
      </trkpt>
      <trkpt lat="44.48582" lon="1.55149">
        <ele>166</ele>
        <time>2021-04-09T16:08:37Z</time>
      </trkpt>
      <trkpt lat="44.48586" lon="1.55147">
        <ele>168</ele>
        <time>2021-04-09T16:08:38Z</time>
      </trkpt>
      <trkpt lat="44.48586" lon="1.55143">
        <ele>170</ele>
        <time>2021-04-09T16:08:39Z</time>
      </trkpt>
      <trkpt lat="44.48582" lon="1.55141">
        <ele>169</ele>
        <time>2021-04-09T16:08:40Z</time>
      </trkpt>
      <trkpt lat="44.48581" lon="1.55134">
        <ele>172</ele>
        <time>2021-04-09T16:08:41Z</time>
      </trkpt>
      <trkpt lat="44.48572" lon="1.55119">
        <ele>175</ele>
        <time>2021-04-09T16:08:45Z</time>
      </trkpt>
      <trkpt lat="44.48537" lon="1.55074">
        <ele>185</ele>
        <time>2021-04-09T16:08:56Z</time>
      </trkpt>
      <trkpt lat="44.4853" lon="1.55069">
        <ele>186</ele>
        <time>2021-04-09T16:08:58Z</time>
      </trkpt>
      <trkpt lat="44.48531" lon="1.55066">
        <ele>187</ele>
        <time>2021-04-09T16:08:58Z</time>
      </trkpt>
      <trkpt lat="44.48538" lon="1.55066">
        <ele>188</ele>
        <time>2021-04-09T16:09:00Z</time>
      </trkpt>
      <trkpt lat="44.48554" lon="1.5507">
        <ele>190</ele>
        <time>2021-04-09T16:09:03Z</time>
      </trkpt>
      <trkpt lat="44.48555" lon="1.55065">
        <ele>192</ele>
        <time>2021-04-09T16:09:04Z</time>
      </trkpt>
      <trkpt lat="44.48509" lon="1.55042">
        <ele>192</ele>
        <time>2021-04-09T16:09:16Z</time>
      </trkpt>
      <trkpt lat="44.48475" lon="1.55036">
        <ele>192</ele>
        <time>2021-04-09T16:09:24Z</time>
      </trkpt>
      <trkpt lat="44.48468" lon="1.5503">
        <ele>194</ele>
        <time>2021-04-09T16:09:26Z</time>
      </trkpt>
      <trkpt lat="44.48454" lon="1.55024">
        <ele>195</ele>
        <time>2021-04-09T16:09:29Z</time>
      </trkpt>
      <trkpt lat="44.4845" lon="1.55012">
        <ele>199</ele>
        <time>2021-04-09T16:09:31Z</time>
      </trkpt>
      <trkpt lat="44.48456" lon="1.54987">
        <ele>205</ele>
        <time>2021-04-09T16:09:36Z</time>
      </trkpt>
      <trkpt lat="44.48456" lon="1.54957">
        <ele>208</ele>
        <time>2021-04-09T16:09:41Z</time>
      </trkpt>
      <trkpt lat="44.4846" lon="1.54932">
        <ele>211</ele>
        <time>2021-04-09T16:09:45Z</time>
      </trkpt>
      <trkpt lat="44.48481" lon="1.54866">
        <ele>214</ele>
        <time>2021-04-09T16:09:57Z</time>
      </trkpt>
      <trkpt lat="44.48499" lon="1.5482">
        <ele>213</ele>
        <time>2021-04-09T16:10:06Z</time>
      </trkpt>
      <trkpt lat="44.48546" lon="1.54755">
        <ele>217</ele>
        <time>2021-04-09T16:10:21Z</time>
      </trkpt>
      <trkpt lat="44.48573" lon="1.54712">
        <ele>218</ele>
        <time>2021-04-09T16:10:31Z</time>
      </trkpt>
      <trkpt lat="44.48578" lon="1.54709">
        <ele>218</ele>
        <time>2021-04-09T16:10:32Z</time>
      </trkpt>
      <trkpt lat="44.48588" lon="1.54696">
        <ele>218</ele>
        <time>2021-04-09T16:10:35Z</time>
      </trkpt>
      <trkpt lat="44.48607" lon="1.5466">
        <ele>217</ele>
        <time>2021-04-09T16:10:43Z</time>
      </trkpt>
      <trkpt lat="44.48604" lon="1.54637">
        <ele>218</ele>
        <time>2021-04-09T16:10:47Z</time>
      </trkpt>
      <trkpt lat="44.48597" lon="1.54617">
        <ele>218</ele>
        <time>2021-04-09T16:10:50Z</time>
      </trkpt>
      <trkpt lat="44.48577" lon="1.54592">
        <ele>218</ele>
        <time>2021-04-09T16:10:56Z</time>
      </trkpt>
      <trkpt lat="44.48574" lon="1.54583">
        <ele>219</ele>
        <time>2021-04-09T16:10:58Z</time>
      </trkpt>
      <trkpt lat="44.48574" lon="1.54572">
        <ele>220</ele>
        <time>2021-04-09T16:11:00Z</time>
      </trkpt>
      <trkpt lat="44.48587" lon="1.54513">
        <ele>226</ele>
        <time>2021-04-09T16:11:10Z</time>
      </trkpt>
      <trkpt lat="44.48602" lon="1.54477">
        <ele>231</ele>
        <time>2021-04-09T16:11:17Z</time>
      </trkpt>
      <trkpt lat="44.48609" lon="1.54452">
        <ele>233</ele>
        <time>2021-04-09T16:11:22Z</time>
      </trkpt>
      <trkpt lat="44.4861" lon="1.54418">
        <ele>237</ele>
        <time>2021-04-09T16:11:27Z</time>
      </trkpt>
      <trkpt lat="44.48603" lon="1.54398">
        <ele>240</ele>
        <time>2021-04-09T16:11:31Z</time>
      </trkpt>
      <trkpt lat="44.48597" lon="1.54369">
        <ele>244</ele>
        <time>2021-04-09T16:11:36Z</time>
      </trkpt>
      <trkpt lat="44.48592" lon="1.54358">
        <ele>246</ele>
        <time>2021-04-09T16:11:38Z</time>
      </trkpt>
      <trkpt lat="44.48592" lon="1.54332">
        <ele>249</ele>
        <time>2021-04-09T16:11:43Z</time>
      </trkpt>
      <trkpt lat="44.48584" lon="1.54302">
        <ele>254</ele>
        <time>2021-04-09T16:11:48Z</time>
      </trkpt>
      <trkpt lat="44.48582" lon="1.54301">
        <ele>254</ele>
        <time>2021-04-09T16:11:48Z</time>
      </trkpt>
      <trkpt lat="44.48577" lon="1.5427">
        <ele>258</ele>
        <time>2021-04-09T16:11:54Z</time>
      </trkpt>
      <trkpt lat="44.48561" lon="1.54211">
        <ele>267</ele>
        <time>2021-04-09T16:12:04Z</time>
      </trkpt>
      <trkpt lat="44.48564" lon="1.54204">
        <ele>268</ele>
        <time>2021-04-09T16:12:06Z</time>
      </trkpt>
      <trkpt lat="44.48575" lon="1.54194">
        <ele>269</ele>
        <time>2021-04-09T16:12:09Z</time>
      </trkpt>
      <trkpt lat="44.48603" lon="1.54158">
        <ele>269</ele>
        <time>2021-04-09T16:12:18Z</time>
      </trkpt>
      <trkpt lat="44.48642" lon="1.54054">
        <ele>269</ele>
        <time>2021-04-09T16:12:37Z</time>
      </trkpt>
      <trkpt lat="44.48646" lon="1.54034">
        <ele>269</ele>
        <time>2021-04-09T16:12:41Z</time>
      </trkpt>
      <trkpt lat="44.4864" lon="1.54027">
        <ele>270</ele>
        <time>2021-04-09T16:12:42Z</time>
      </trkpt>
      <trkpt lat="44.48592" lon="1.54033">
        <ele>273</ele>
        <time>2021-04-09T16:12:54Z</time>
      </trkpt>
      <trkpt lat="44.4855" lon="1.54035">
        <ele>276</ele>
        <time>2021-04-09T16:13:03Z</time>
      </trkpt>
      <trkpt lat="44.48519" lon="1.54032">
        <ele>279</ele>
        <time>2021-04-09T16:13:11Z</time>
      </trkpt>
      <trkpt lat="44.48491" lon="1.54023">
        <ele>280</ele>
        <time>2021-04-09T16:13:17Z</time>
      </trkpt>
      <trkpt lat="44.48417" lon="1.54011">
        <ele>282</ele>
        <time>2021-04-09T16:13:35Z</time>
      </trkpt>
      <trkpt lat="44.48335" lon="1.54014">
        <ele>279</ele>
        <time>2021-04-09T16:13:54Z</time>
      </trkpt>
      <trkpt lat="44.48221" lon="1.54022">
        <ele>273</ele>
        <time>2021-04-09T16:14:21Z</time>
      </trkpt>
      <trkpt lat="44.48185" lon="1.54021">
        <ele>272</ele>
        <time>2021-04-09T16:14:29Z</time>
      </trkpt>
      <trkpt lat="44.48135" lon="1.54012">
        <ele>270</ele>
        <time>2021-04-09T16:14:41Z</time>
      </trkpt>
      <trkpt lat="44.48081" lon="1.53991">
        <ele>268</ele>
        <time>2021-04-09T16:14:54Z</time>
      </trkpt>
      <trkpt lat="44.48044" lon="1.53982">
        <ele>267</ele>
        <time>2021-04-09T16:15:03Z</time>
      </trkpt>
      <trkpt lat="44.4799" lon="1.53972">
        <ele>266</ele>
        <time>2021-04-09T16:15:15Z</time>
      </trkpt>
      <trkpt lat="44.47962" lon="1.53971">
        <ele>265</ele>
        <time>2021-04-09T16:15:22Z</time>
      </trkpt>
      <trkpt lat="44.47923" lon="1.53966">
        <ele>264</ele>
        <time>2021-04-09T16:15:31Z</time>
      </trkpt>
      <trkpt lat="44.47908" lon="1.53967">
        <ele>263</ele>
        <time>2021-04-09T16:15:35Z</time>
      </trkpt>
      <trkpt lat="44.47878" lon="1.53976">
        <ele>263</ele>
        <time>2021-04-09T16:15:42Z</time>
      </trkpt>
      <trkpt lat="44.47815" lon="1.54009">
        <ele>260</ele>
        <time>2021-04-09T16:15:57Z</time>
      </trkpt>
      <trkpt lat="44.47793" lon="1.54015">
        <ele>259</ele>
        <time>2021-04-09T16:16:03Z</time>
      </trkpt>
      <trkpt lat="44.47769" lon="1.54017">
        <ele>258</ele>
        <time>2021-04-09T16:16:08Z</time>
      </trkpt>
      <trkpt lat="44.47715" lon="1.54004">
        <ele>255</ele>
        <time>2021-04-09T16:16:21Z</time>
      </trkpt>
      <trkpt lat="44.47692" lon="1.54012">
        <ele>252</ele>
        <time>2021-04-09T16:16:27Z</time>
      </trkpt>
      <trkpt lat="44.4768" lon="1.5402">
        <ele>250</ele>
        <time>2021-04-09T16:16:30Z</time>
      </trkpt>
      <trkpt lat="44.47667" lon="1.54036">
        <ele>249</ele>
        <time>2021-04-09T16:16:34Z</time>
      </trkpt>
      <trkpt lat="44.47658" lon="1.54054">
        <ele>247</ele>
        <time>2021-04-09T16:16:37Z</time>
      </trkpt>
      <trkpt lat="44.47654" lon="1.54069">
        <ele>247</ele>
        <time>2021-04-09T16:16:40Z</time>
      </trkpt>
      <trkpt lat="44.47652" lon="1.54107">
        <ele>246</ele>
        <time>2021-04-09T16:16:46Z</time>
      </trkpt>
      <trkpt lat="44.47657" lon="1.54143">
        <ele>245</ele>
        <time>2021-04-09T16:16:53Z</time>
      </trkpt>
      <trkpt lat="44.47663" lon="1.54166">
        <ele>245</ele>
        <time>2021-04-09T16:16:57Z</time>
      </trkpt>
      <trkpt lat="44.47728" lon="1.54312">
        <ele>233</ele>
        <time>2021-04-09T16:17:25Z</time>
      </trkpt>
      <trkpt lat="44.47782" lon="1.54379">
        <ele>228</ele>
        <time>2021-04-09T16:17:42Z</time>
      </trkpt>
      <trkpt lat="44.47811" lon="1.54419">
        <ele>223</ele>
        <time>2021-04-09T16:17:52Z</time>
      </trkpt>
      <trkpt lat="44.47844" lon="1.54455">
        <ele>219</ele>
        <time>2021-04-09T16:18:01Z</time>
      </trkpt>
    </trkseg>
  </trk>
</gpx>